<?xml version="1.0" encoding="UTF-8" standalone="no" ?>
<gpx xmlns="http://www.topografix.com/GPX/1/1" xmlns:xsi="http://www.w3.org/2001/XMLSchema-instance" xsi:schemaLocation="http://www.topografix.com/GPX/1/1 http://www.topografix.com/GPX/1/1/gpx.xsd" version="1.1" creator="VisuGPX - https://www.visugpx.com">
  <metadata>
    <name>Balade dimanche 24 mai 2020 </name>
    <desc><![CDATA[Dimanche après midi ensoleillé. Visite du lac de Sesquières]]></desc>
  </metadata>
  <trk>
    <name><![CDATA[Balade dimanche 24 mai 2020 _1]]></name>
    <trkseg>
      <trkpt lat="43.55028" lon="1.47649">
        <ele>231.741</ele>
        <time>2020-05-24T11:28:53Z</time>
      </trkpt>
      <trkpt lat="43.55031" lon="1.47659">
        <ele>231.691</ele>
        <time>2020-05-24T11:28:58Z</time>
      </trkpt>
      <trkpt lat="43.55041" lon="1.47668">
        <ele>226.167</ele>
        <time>2020-05-24T11:29:04Z</time>
      </trkpt>
      <trkpt lat="43.55041" lon="1.47666">
        <ele>217.001</ele>
        <time>2020-05-24T11:29:10Z</time>
      </trkpt>
      <trkpt lat="43.55045" lon="1.47654">
        <ele>208.733</ele>
        <time>2020-05-24T11:29:16Z</time>
      </trkpt>
      <trkpt lat="43.55069" lon="1.47649">
        <ele>208.276</ele>
        <time>2020-05-24T11:29:22Z</time>
      </trkpt>
      <trkpt lat="43.55088" lon="1.47636">
        <ele>207.279</ele>
        <time>2020-05-24T11:29:27Z</time>
      </trkpt>
      <trkpt lat="43.55111" lon="1.47618">
        <ele>206.749</ele>
        <time>2020-05-24T11:29:34Z</time>
      </trkpt>
      <trkpt lat="43.55133" lon="1.47597">
        <ele>206.375</ele>
        <time>2020-05-24T11:29:39Z</time>
      </trkpt>
      <trkpt lat="43.55151" lon="1.47579">
        <ele>208.897</ele>
        <time>2020-05-24T11:29:44Z</time>
      </trkpt>
      <trkpt lat="43.55172" lon="1.47571">
        <ele>209.119</ele>
        <time>2020-05-24T11:29:50Z</time>
      </trkpt>
      <trkpt lat="43.55185" lon="1.47591">
        <ele>209.117</ele>
        <time>2020-05-24T11:29:55Z</time>
      </trkpt>
      <trkpt lat="43.55207" lon="1.47616">
        <ele>208.441</ele>
        <time>2020-05-24T11:30:01Z</time>
      </trkpt>
      <trkpt lat="43.55234" lon="1.47619">
        <ele>207.343</ele>
        <time>2020-05-24T11:30:07Z</time>
      </trkpt>
      <trkpt lat="43.55261" lon="1.47605">
        <ele>207.361</ele>
        <time>2020-05-24T11:30:13Z</time>
      </trkpt>
      <trkpt lat="43.55286" lon="1.47594">
        <ele>207.745</ele>
        <time>2020-05-24T11:30:18Z</time>
      </trkpt>
      <trkpt lat="43.55313" lon="1.47583">
        <ele>208.238</ele>
        <time>2020-05-24T11:30:24Z</time>
      </trkpt>
      <trkpt lat="43.55336" lon="1.47572">
        <ele>208.344</ele>
        <time>2020-05-24T11:30:30Z</time>
      </trkpt>
      <trkpt lat="43.55356" lon="1.47566">
        <ele>208.379</ele>
        <time>2020-05-24T11:30:36Z</time>
      </trkpt>
      <trkpt lat="43.55374" lon="1.47575">
        <ele>208.468</ele>
        <time>2020-05-24T11:30:41Z</time>
      </trkpt>
      <trkpt lat="43.55385" lon="1.476">
        <ele>208.725</ele>
        <time>2020-05-24T11:30:46Z</time>
      </trkpt>
      <trkpt lat="43.55403" lon="1.4761">
        <ele>208.755</ele>
        <time>2020-05-24T11:30:52Z</time>
      </trkpt>
      <trkpt lat="43.55411" lon="1.47627">
        <ele>208.736</ele>
        <time>2020-05-24T11:30:58Z</time>
      </trkpt>
      <trkpt lat="43.55419" lon="1.47627">
        <ele>208.715</ele>
        <time>2020-05-24T11:31:04Z</time>
      </trkpt>
      <trkpt lat="43.55433" lon="1.4763">
        <ele>208.672</ele>
        <time>2020-05-24T11:31:09Z</time>
      </trkpt>
      <trkpt lat="43.55441" lon="1.47632">
        <ele>208.605</ele>
        <time>2020-05-24T11:31:14Z</time>
      </trkpt>
      <trkpt lat="43.55447" lon="1.47633">
        <ele>208.531</ele>
        <time>2020-05-24T11:31:20Z</time>
      </trkpt>
      <trkpt lat="43.55457" lon="1.47638">
        <ele>208.462</ele>
        <time>2020-05-24T11:31:25Z</time>
      </trkpt>
      <trkpt lat="43.55471" lon="1.47647">
        <ele>208.348</ele>
        <time>2020-05-24T11:31:31Z</time>
      </trkpt>
      <trkpt lat="43.55492" lon="1.47644">
        <ele>208.232</ele>
        <time>2020-05-24T11:31:37Z</time>
      </trkpt>
      <trkpt lat="43.55511" lon="1.4764">
        <ele>207.591</ele>
        <time>2020-05-24T11:31:42Z</time>
      </trkpt>
      <trkpt lat="43.5553" lon="1.47634">
        <ele>207.213</ele>
        <time>2020-05-24T11:31:47Z</time>
      </trkpt>
      <trkpt lat="43.55547" lon="1.47628">
        <ele>207.164</ele>
        <time>2020-05-24T11:31:52Z</time>
      </trkpt>
      <trkpt lat="43.55561" lon="1.47621">
        <ele>207.106</ele>
        <time>2020-05-24T11:31:58Z</time>
      </trkpt>
      <trkpt lat="43.55582" lon="1.47618">
        <ele>207.027</ele>
        <time>2020-05-24T11:32:04Z</time>
      </trkpt>
      <trkpt lat="43.55598" lon="1.47618">
        <ele>206.927</ele>
        <time>2020-05-24T11:32:10Z</time>
      </trkpt>
      <trkpt lat="43.55615" lon="1.47616">
        <ele>206.504</ele>
        <time>2020-05-24T11:32:15Z</time>
      </trkpt>
      <trkpt lat="43.55633" lon="1.4761">
        <ele>206.361</ele>
        <time>2020-05-24T11:32:20Z</time>
      </trkpt>
      <trkpt lat="43.55646" lon="1.47596">
        <ele>206.342</ele>
        <time>2020-05-24T11:32:26Z</time>
      </trkpt>
      <trkpt lat="43.5566" lon="1.47583">
        <ele>206.336</ele>
        <time>2020-05-24T11:32:32Z</time>
      </trkpt>
      <trkpt lat="43.55677" lon="1.47598">
        <ele>206.343</ele>
        <time>2020-05-24T11:32:38Z</time>
      </trkpt>
      <trkpt lat="43.55692" lon="1.47601">
        <ele>206.352</ele>
        <time>2020-05-24T11:32:43Z</time>
      </trkpt>
      <trkpt lat="43.55709" lon="1.47588">
        <ele>206.368</ele>
        <time>2020-05-24T11:32:49Z</time>
      </trkpt>
      <trkpt lat="43.5573" lon="1.47574">
        <ele>206.418</ele>
        <time>2020-05-24T11:32:55Z</time>
      </trkpt>
      <trkpt lat="43.55747" lon="1.47556">
        <ele>206.458</ele>
        <time>2020-05-24T11:33:01Z</time>
      </trkpt>
      <trkpt lat="43.55763" lon="1.47535">
        <ele>206.635</ele>
        <time>2020-05-24T11:33:07Z</time>
      </trkpt>
      <trkpt lat="43.55777" lon="1.4751">
        <ele>206.872</ele>
        <time>2020-05-24T11:33:13Z</time>
      </trkpt>
      <trkpt lat="43.55788" lon="1.47487">
        <ele>207.06</ele>
        <time>2020-05-24T11:33:18Z</time>
      </trkpt>
      <trkpt lat="43.55799" lon="1.4746">
        <ele>207.166</ele>
        <time>2020-05-24T11:33:24Z</time>
      </trkpt>
      <trkpt lat="43.5581" lon="1.4743">
        <ele>207.381</ele>
        <time>2020-05-24T11:33:30Z</time>
      </trkpt>
      <trkpt lat="43.55823" lon="1.47402">
        <ele>207.484</ele>
        <time>2020-05-24T11:33:36Z</time>
      </trkpt>
      <trkpt lat="43.55833" lon="1.4738">
        <ele>207.501</ele>
        <time>2020-05-24T11:33:41Z</time>
      </trkpt>
      <trkpt lat="43.55836" lon="1.4736">
        <ele>207.521</ele>
        <time>2020-05-24T11:33:47Z</time>
      </trkpt>
      <trkpt lat="43.55865" lon="1.47341">
        <ele>207.729</ele>
        <time>2020-05-24T11:33:53Z</time>
      </trkpt>
      <trkpt lat="43.55882" lon="1.47328">
        <ele>207.999</ele>
        <time>2020-05-24T11:33:58Z</time>
      </trkpt>
      <trkpt lat="43.55905" lon="1.47308">
        <ele>208.172</ele>
        <time>2020-05-24T11:34:04Z</time>
      </trkpt>
      <trkpt lat="43.55923" lon="1.47288">
        <ele>208.238</ele>
        <time>2020-05-24T11:34:09Z</time>
      </trkpt>
      <trkpt lat="43.55945" lon="1.47271">
        <ele>208.255</ele>
        <time>2020-05-24T11:34:14Z</time>
      </trkpt>
      <trkpt lat="43.55968" lon="1.47246">
        <ele>208.207</ele>
        <time>2020-05-24T11:34:20Z</time>
      </trkpt>
      <trkpt lat="43.55994" lon="1.47219">
        <ele>208.108</ele>
        <time>2020-05-24T11:34:26Z</time>
      </trkpt>
      <trkpt lat="43.5602" lon="1.47194">
        <ele>208.054</ele>
        <time>2020-05-24T11:34:32Z</time>
      </trkpt>
      <trkpt lat="43.56047" lon="1.47167">
        <ele>208.068</ele>
        <time>2020-05-24T11:34:38Z</time>
      </trkpt>
      <trkpt lat="43.56072" lon="1.47143">
        <ele>208.013</ele>
        <time>2020-05-24T11:34:44Z</time>
      </trkpt>
      <trkpt lat="43.56095" lon="1.47126">
        <ele>208.03</ele>
        <time>2020-05-24T11:34:49Z</time>
      </trkpt>
      <trkpt lat="43.56118" lon="1.47104">
        <ele>208.087</ele>
        <time>2020-05-24T11:34:55Z</time>
      </trkpt>
      <trkpt lat="43.56139" lon="1.47084">
        <ele>208.112</ele>
        <time>2020-05-24T11:35:00Z</time>
      </trkpt>
      <trkpt lat="43.56163" lon="1.47058">
        <ele>208.205</ele>
        <time>2020-05-24T11:35:06Z</time>
      </trkpt>
      <trkpt lat="43.56184" lon="1.4704">
        <ele>208.201</ele>
        <time>2020-05-24T11:35:11Z</time>
      </trkpt>
      <trkpt lat="43.56206" lon="1.47016">
        <ele>208.216</ele>
        <time>2020-05-24T11:35:17Z</time>
      </trkpt>
      <trkpt lat="43.56226" lon="1.47005">
        <ele>208.216</ele>
        <time>2020-05-24T11:35:22Z</time>
      </trkpt>
      <trkpt lat="43.56251" lon="1.46977">
        <ele>208.207</ele>
        <time>2020-05-24T11:35:28Z</time>
      </trkpt>
      <trkpt lat="43.56271" lon="1.46959">
        <ele>208.248</ele>
        <time>2020-05-24T11:35:33Z</time>
      </trkpt>
      <trkpt lat="43.56297" lon="1.46932">
        <ele>208.225</ele>
        <time>2020-05-24T11:35:39Z</time>
      </trkpt>
      <trkpt lat="43.56324" lon="1.46904">
        <ele>208.183</ele>
        <time>2020-05-24T11:35:45Z</time>
      </trkpt>
      <trkpt lat="43.56348" lon="1.46888">
        <ele>208.143</ele>
        <time>2020-05-24T11:35:50Z</time>
      </trkpt>
      <trkpt lat="43.56372" lon="1.46862">
        <ele>208.085</ele>
        <time>2020-05-24T11:35:56Z</time>
      </trkpt>
      <trkpt lat="43.56392" lon="1.46842">
        <ele>208.07</ele>
        <time>2020-05-24T11:36:01Z</time>
      </trkpt>
      <trkpt lat="43.56412" lon="1.46819">
        <ele>208.032</ele>
        <time>2020-05-24T11:36:07Z</time>
      </trkpt>
      <trkpt lat="43.56425" lon="1.46798">
        <ele>208.036</ele>
        <time>2020-05-24T11:36:12Z</time>
      </trkpt>
      <trkpt lat="43.56431" lon="1.46766">
        <ele>208.006</ele>
        <time>2020-05-24T11:36:18Z</time>
      </trkpt>
      <trkpt lat="43.56448" lon="1.46746">
        <ele>207.963</ele>
        <time>2020-05-24T11:36:23Z</time>
      </trkpt>
      <trkpt lat="43.56471" lon="1.46722">
        <ele>207.989</ele>
        <time>2020-05-24T11:36:29Z</time>
      </trkpt>
      <trkpt lat="43.56495" lon="1.467">
        <ele>207.995</ele>
        <time>2020-05-24T11:36:35Z</time>
      </trkpt>
      <trkpt lat="43.56515" lon="1.4668">
        <ele>208.006</ele>
        <time>2020-05-24T11:36:40Z</time>
      </trkpt>
      <trkpt lat="43.56537" lon="1.4666">
        <ele>207.914</ele>
        <time>2020-05-24T11:36:46Z</time>
      </trkpt>
      <trkpt lat="43.56554" lon="1.46644">
        <ele>207.809</ele>
        <time>2020-05-24T11:36:51Z</time>
      </trkpt>
      <trkpt lat="43.56576" lon="1.46624">
        <ele>207.769</ele>
        <time>2020-05-24T11:36:57Z</time>
      </trkpt>
      <trkpt lat="43.56595" lon="1.46605">
        <ele>207.754</ele>
        <time>2020-05-24T11:37:03Z</time>
      </trkpt>
      <trkpt lat="43.56613" lon="1.46589">
        <ele>207.614</ele>
        <time>2020-05-24T11:37:08Z</time>
      </trkpt>
      <trkpt lat="43.56634" lon="1.46573">
        <ele>207.452</ele>
        <time>2020-05-24T11:37:14Z</time>
      </trkpt>
      <trkpt lat="43.5665" lon="1.46558">
        <ele>207.427</ele>
        <time>2020-05-24T11:37:19Z</time>
      </trkpt>
      <trkpt lat="43.5667" lon="1.46539">
        <ele>207.266</ele>
        <time>2020-05-24T11:37:25Z</time>
      </trkpt>
      <trkpt lat="43.56686" lon="1.46522">
        <ele>207.162</ele>
        <time>2020-05-24T11:37:30Z</time>
      </trkpt>
      <trkpt lat="43.56704" lon="1.46502">
        <ele>206.997</ele>
        <time>2020-05-24T11:37:35Z</time>
      </trkpt>
      <trkpt lat="43.56724" lon="1.46482">
        <ele>206.884</ele>
        <time>2020-05-24T11:37:41Z</time>
      </trkpt>
      <trkpt lat="43.56737" lon="1.46469">
        <ele>206.853</ele>
        <time>2020-05-24T11:37:46Z</time>
      </trkpt>
      <trkpt lat="43.56745" lon="1.46441">
        <ele>206.8</ele>
        <time>2020-05-24T11:37:52Z</time>
      </trkpt>
      <trkpt lat="43.56761" lon="1.46428">
        <ele>206.55</ele>
        <time>2020-05-24T11:37:58Z</time>
      </trkpt>
      <trkpt lat="43.56783" lon="1.46427">
        <ele>206.453</ele>
        <time>2020-05-24T11:38:03Z</time>
      </trkpt>
      <trkpt lat="43.56811" lon="1.46426">
        <ele>206.454</ele>
        <time>2020-05-24T11:38:09Z</time>
      </trkpt>
      <trkpt lat="43.56841" lon="1.46422">
        <ele>206.489</ele>
        <time>2020-05-24T11:38:15Z</time>
      </trkpt>
      <trkpt lat="43.56873" lon="1.46417">
        <ele>206.484</ele>
        <time>2020-05-24T11:38:21Z</time>
      </trkpt>
      <trkpt lat="43.569" lon="1.46413">
        <ele>206.536</ele>
        <time>2020-05-24T11:38:26Z</time>
      </trkpt>
      <trkpt lat="43.56932" lon="1.46409">
        <ele>206.626</ele>
        <time>2020-05-24T11:38:32Z</time>
      </trkpt>
      <trkpt lat="43.56958" lon="1.46406">
        <ele>206.649</ele>
        <time>2020-05-24T11:38:37Z</time>
      </trkpt>
      <trkpt lat="43.56988" lon="1.46401">
        <ele>206.482</ele>
        <time>2020-05-24T11:38:43Z</time>
      </trkpt>
      <trkpt lat="43.57019" lon="1.46397">
        <ele>206.361</ele>
        <time>2020-05-24T11:38:49Z</time>
      </trkpt>
      <trkpt lat="43.57049" lon="1.46393">
        <ele>206.319</ele>
        <time>2020-05-24T11:38:55Z</time>
      </trkpt>
      <trkpt lat="43.57071" lon="1.46379">
        <ele>206.349</ele>
        <time>2020-05-24T11:39:00Z</time>
      </trkpt>
      <trkpt lat="43.57088" lon="1.46355">
        <ele>206.335</ele>
        <time>2020-05-24T11:39:05Z</time>
      </trkpt>
      <trkpt lat="43.57106" lon="1.46321">
        <ele>206.317</ele>
        <time>2020-05-24T11:39:11Z</time>
      </trkpt>
      <trkpt lat="43.57126" lon="1.46288">
        <ele>206.335</ele>
        <time>2020-05-24T11:39:17Z</time>
      </trkpt>
      <trkpt lat="43.57142" lon="1.46263">
        <ele>206.376</ele>
        <time>2020-05-24T11:39:22Z</time>
      </trkpt>
      <trkpt lat="43.57159" lon="1.46234">
        <ele>206.413</ele>
        <time>2020-05-24T11:39:28Z</time>
      </trkpt>
      <trkpt lat="43.57179" lon="1.46202">
        <ele>206.468</ele>
        <time>2020-05-24T11:39:34Z</time>
      </trkpt>
      <trkpt lat="43.57197" lon="1.46175">
        <ele>206.521</ele>
        <time>2020-05-24T11:39:40Z</time>
      </trkpt>
      <trkpt lat="43.57212" lon="1.46149">
        <ele>206.581</ele>
        <time>2020-05-24T11:39:46Z</time>
      </trkpt>
      <trkpt lat="43.57228" lon="1.46121">
        <ele>206.648</ele>
        <time>2020-05-24T11:39:52Z</time>
      </trkpt>
      <trkpt lat="43.57243" lon="1.46088">
        <ele>206.691</ele>
        <time>2020-05-24T11:39:58Z</time>
      </trkpt>
      <trkpt lat="43.57248" lon="1.46061">
        <ele>206.686</ele>
        <time>2020-05-24T11:40:04Z</time>
      </trkpt>
      <trkpt lat="43.57259" lon="1.46039">
        <ele>206.677</ele>
        <time>2020-05-24T11:40:10Z</time>
      </trkpt>
      <trkpt lat="43.57275" lon="1.46017">
        <ele>206.626</ele>
        <time>2020-05-24T11:40:16Z</time>
      </trkpt>
      <trkpt lat="43.57297" lon="1.45988">
        <ele>206.597</ele>
        <time>2020-05-24T11:40:21Z</time>
      </trkpt>
      <trkpt lat="43.57315" lon="1.45962">
        <ele>206.584</ele>
        <time>2020-05-24T11:40:27Z</time>
      </trkpt>
      <trkpt lat="43.57322" lon="1.45947">
        <ele>206.579</ele>
        <time>2020-05-24T11:40:32Z</time>
      </trkpt>
      <trkpt lat="43.57312" lon="1.45935">
        <ele>206.567</ele>
        <time>2020-05-24T11:40:38Z</time>
      </trkpt>
      <trkpt lat="43.57296" lon="1.45915">
        <ele>206.582</ele>
        <time>2020-05-24T11:40:43Z</time>
      </trkpt>
      <trkpt lat="43.57272" lon="1.45892">
        <ele>206.62</ele>
        <time>2020-05-24T11:40:49Z</time>
      </trkpt>
      <trkpt lat="43.57256" lon="1.45876">
        <ele>206.626</ele>
        <time>2020-05-24T11:40:55Z</time>
      </trkpt>
      <trkpt lat="43.57254" lon="1.45841">
        <ele>206.622</ele>
        <time>2020-05-24T11:41:01Z</time>
      </trkpt>
      <trkpt lat="43.57254" lon="1.45814">
        <ele>206.624</ele>
        <time>2020-05-24T11:41:06Z</time>
      </trkpt>
      <trkpt lat="43.57254" lon="1.45778">
        <ele>206.654</ele>
        <time>2020-05-24T11:41:12Z</time>
      </trkpt>
      <trkpt lat="43.57257" lon="1.45744">
        <ele>206.66</ele>
        <time>2020-05-24T11:41:18Z</time>
      </trkpt>
      <trkpt lat="43.57258" lon="1.45711">
        <ele>206.63</ele>
        <time>2020-05-24T11:41:24Z</time>
      </trkpt>
      <trkpt lat="43.5726" lon="1.45678">
        <ele>206.621</ele>
        <time>2020-05-24T11:41:30Z</time>
      </trkpt>
      <trkpt lat="43.57266" lon="1.45643">
        <ele>206.615</ele>
        <time>2020-05-24T11:41:36Z</time>
      </trkpt>
      <trkpt lat="43.57256" lon="1.4561">
        <ele>206.594</ele>
        <time>2020-05-24T11:41:42Z</time>
      </trkpt>
      <trkpt lat="43.57264" lon="1.45576">
        <ele>206.56</ele>
        <time>2020-05-24T11:41:48Z</time>
      </trkpt>
      <trkpt lat="43.57268" lon="1.45555">
        <ele>206.55</ele>
        <time>2020-05-24T11:41:54Z</time>
      </trkpt>
      <trkpt lat="43.57272" lon="1.45517">
        <ele>206.467</ele>
        <time>2020-05-24T11:42:00Z</time>
      </trkpt>
      <trkpt lat="43.57275" lon="1.45483">
        <ele>206.404</ele>
        <time>2020-05-24T11:42:05Z</time>
      </trkpt>
      <trkpt lat="43.57277" lon="1.45443">
        <ele>206.353</ele>
        <time>2020-05-24T11:42:11Z</time>
      </trkpt>
      <trkpt lat="43.57283" lon="1.45408">
        <ele>206.304</ele>
        <time>2020-05-24T11:42:16Z</time>
      </trkpt>
      <trkpt lat="43.5729" lon="1.45378">
        <ele>206.242</ele>
        <time>2020-05-24T11:42:21Z</time>
      </trkpt>
      <trkpt lat="43.5731" lon="1.45349">
        <ele>206.229</ele>
        <time>2020-05-24T11:42:27Z</time>
      </trkpt>
      <trkpt lat="43.57327" lon="1.45332">
        <ele>206.24</ele>
        <time>2020-05-24T11:42:32Z</time>
      </trkpt>
      <trkpt lat="43.57339" lon="1.45311">
        <ele>206.277</ele>
        <time>2020-05-24T11:42:37Z</time>
      </trkpt>
      <trkpt lat="43.5735" lon="1.4529">
        <ele>206.288</ele>
        <time>2020-05-24T11:42:42Z</time>
      </trkpt>
      <trkpt lat="43.57357" lon="1.45264">
        <ele>206.292</ele>
        <time>2020-05-24T11:42:48Z</time>
      </trkpt>
      <trkpt lat="43.57372" lon="1.45243">
        <ele>206.306</ele>
        <time>2020-05-24T11:42:53Z</time>
      </trkpt>
      <trkpt lat="43.57381" lon="1.45217">
        <ele>206.313</ele>
        <time>2020-05-24T11:42:58Z</time>
      </trkpt>
      <trkpt lat="43.57386" lon="1.45195">
        <ele>206.32</ele>
        <time>2020-05-24T11:43:04Z</time>
      </trkpt>
      <trkpt lat="43.57388" lon="1.45182">
        <ele>206.329</ele>
        <time>2020-05-24T11:43:09Z</time>
      </trkpt>
      <trkpt lat="43.57391" lon="1.4517">
        <ele>206.337</ele>
        <time>2020-05-24T11:43:14Z</time>
      </trkpt>
      <trkpt lat="43.57382" lon="1.45156">
        <ele>206.353</ele>
        <time>2020-05-24T11:43:20Z</time>
      </trkpt>
      <trkpt lat="43.57378" lon="1.45143">
        <ele>206.362</ele>
        <time>2020-05-24T11:43:25Z</time>
      </trkpt>
      <trkpt lat="43.57392" lon="1.45127">
        <ele>206.374</ele>
        <time>2020-05-24T11:43:31Z</time>
      </trkpt>
      <trkpt lat="43.57411" lon="1.45106">
        <ele>206.484</ele>
        <time>2020-05-24T11:43:37Z</time>
      </trkpt>
      <trkpt lat="43.5743" lon="1.45083">
        <ele>206.544</ele>
        <time>2020-05-24T11:43:43Z</time>
      </trkpt>
      <trkpt lat="43.57448" lon="1.45063">
        <ele>206.6</ele>
        <time>2020-05-24T11:43:48Z</time>
      </trkpt>
      <trkpt lat="43.57469" lon="1.4504">
        <ele>206.664</ele>
        <time>2020-05-24T11:43:54Z</time>
      </trkpt>
      <trkpt lat="43.57493" lon="1.45018">
        <ele>206.778</ele>
        <time>2020-05-24T11:44:00Z</time>
      </trkpt>
      <trkpt lat="43.5751" lon="1.44998">
        <ele>206.832</ele>
        <time>2020-05-24T11:44:05Z</time>
      </trkpt>
      <trkpt lat="43.57535" lon="1.44972">
        <ele>206.879</ele>
        <time>2020-05-24T11:44:11Z</time>
      </trkpt>
      <trkpt lat="43.57559" lon="1.4495">
        <ele>206.881</ele>
        <time>2020-05-24T11:44:17Z</time>
      </trkpt>
      <trkpt lat="43.57585" lon="1.44929">
        <ele>206.868</ele>
        <time>2020-05-24T11:44:23Z</time>
      </trkpt>
      <trkpt lat="43.57612" lon="1.44909">
        <ele>206.906</ele>
        <time>2020-05-24T11:44:29Z</time>
      </trkpt>
      <trkpt lat="43.57635" lon="1.44886">
        <ele>206.941</ele>
        <time>2020-05-24T11:44:35Z</time>
      </trkpt>
      <trkpt lat="43.5766" lon="1.44864">
        <ele>207</ele>
        <time>2020-05-24T11:44:41Z</time>
      </trkpt>
      <trkpt lat="43.57685" lon="1.44843">
        <ele>207.028</ele>
        <time>2020-05-24T11:44:47Z</time>
      </trkpt>
      <trkpt lat="43.57707" lon="1.44824">
        <ele>207.05</ele>
        <time>2020-05-24T11:44:52Z</time>
      </trkpt>
      <trkpt lat="43.57734" lon="1.44806">
        <ele>206.965</ele>
        <time>2020-05-24T11:44:58Z</time>
      </trkpt>
      <trkpt lat="43.57755" lon="1.44792">
        <ele>206.903</ele>
        <time>2020-05-24T11:45:03Z</time>
      </trkpt>
      <trkpt lat="43.57778" lon="1.44771">
        <ele>206.801</ele>
        <time>2020-05-24T11:45:09Z</time>
      </trkpt>
      <trkpt lat="43.57797" lon="1.44751">
        <ele>206.728</ele>
        <time>2020-05-24T11:45:14Z</time>
      </trkpt>
      <trkpt lat="43.57813" lon="1.44738">
        <ele>206.743</ele>
        <time>2020-05-24T11:45:19Z</time>
      </trkpt>
      <trkpt lat="43.57834" lon="1.44719">
        <ele>206.804</ele>
        <time>2020-05-24T11:45:24Z</time>
      </trkpt>
      <trkpt lat="43.57859" lon="1.44694">
        <ele>206.823</ele>
        <time>2020-05-24T11:45:30Z</time>
      </trkpt>
      <trkpt lat="43.5789" lon="1.44682">
        <ele>206.688</ele>
        <time>2020-05-24T11:45:36Z</time>
      </trkpt>
      <trkpt lat="43.57903" lon="1.44666">
        <ele>206.456</ele>
        <time>2020-05-24T11:45:41Z</time>
      </trkpt>
      <trkpt lat="43.57924" lon="1.44639">
        <ele>206.294</ele>
        <time>2020-05-24T11:45:47Z</time>
      </trkpt>
      <trkpt lat="43.57941" lon="1.44622">
        <ele>206.177</ele>
        <time>2020-05-24T11:45:53Z</time>
      </trkpt>
      <trkpt lat="43.57962" lon="1.44599">
        <ele>205.998</ele>
        <time>2020-05-24T11:45:59Z</time>
      </trkpt>
      <trkpt lat="43.5798" lon="1.44583">
        <ele>205.902</ele>
        <time>2020-05-24T11:46:04Z</time>
      </trkpt>
      <trkpt lat="43.58" lon="1.44564">
        <ele>205.796</ele>
        <time>2020-05-24T11:46:09Z</time>
      </trkpt>
      <trkpt lat="43.58022" lon="1.44543">
        <ele>205.67</ele>
        <time>2020-05-24T11:46:15Z</time>
      </trkpt>
      <trkpt lat="43.58039" lon="1.44524">
        <ele>205.551</ele>
        <time>2020-05-24T11:46:20Z</time>
      </trkpt>
      <trkpt lat="43.58059" lon="1.44501">
        <ele>205.31</ele>
        <time>2020-05-24T11:46:26Z</time>
      </trkpt>
      <trkpt lat="43.58078" lon="1.44481">
        <ele>205.158</ele>
        <time>2020-05-24T11:46:31Z</time>
      </trkpt>
      <trkpt lat="43.58102" lon="1.44459">
        <ele>205.035</ele>
        <time>2020-05-24T11:46:37Z</time>
      </trkpt>
      <trkpt lat="43.58117" lon="1.44446">
        <ele>205.01</ele>
        <time>2020-05-24T11:46:42Z</time>
      </trkpt>
      <trkpt lat="43.58129" lon="1.44455">
        <ele>204.98</ele>
        <time>2020-05-24T11:46:48Z</time>
      </trkpt>
      <trkpt lat="43.58132" lon="1.44475">
        <ele>204.94</ele>
        <time>2020-05-24T11:46:53Z</time>
      </trkpt>
      <trkpt lat="43.5814" lon="1.44506">
        <ele>204.873</ele>
        <time>2020-05-24T11:46:59Z</time>
      </trkpt>
      <trkpt lat="43.58147" lon="1.44531">
        <ele>204.703</ele>
        <time>2020-05-24T11:47:04Z</time>
      </trkpt>
      <trkpt lat="43.58153" lon="1.44564">
        <ele>204.313</ele>
        <time>2020-05-24T11:47:10Z</time>
      </trkpt>
      <trkpt lat="43.58156" lon="1.44602">
        <ele>204.104</ele>
        <time>2020-05-24T11:47:16Z</time>
      </trkpt>
      <trkpt lat="43.5816" lon="1.44637">
        <ele>203.927</ele>
        <time>2020-05-24T11:47:22Z</time>
      </trkpt>
      <trkpt lat="43.58159" lon="1.44668">
        <ele>203.835</ele>
        <time>2020-05-24T11:47:28Z</time>
      </trkpt>
      <trkpt lat="43.58159" lon="1.44677">
        <ele>203.816</ele>
        <time>2020-05-24T11:47:34Z</time>
      </trkpt>
      <trkpt lat="43.58162" lon="1.44677">
        <ele>203.805</ele>
        <time>2020-05-24T11:47:39Z</time>
      </trkpt>
      <trkpt lat="43.58163" lon="1.44674">
        <ele>203.793</ele>
        <time>2020-05-24T11:47:45Z</time>
      </trkpt>
      <trkpt lat="43.58164" lon="1.44675">
        <ele>203.781</ele>
        <time>2020-05-24T11:47:51Z</time>
      </trkpt>
      <trkpt lat="43.58164" lon="1.44676">
        <ele>203.768</ele>
        <time>2020-05-24T11:47:57Z</time>
      </trkpt>
      <trkpt lat="43.58164" lon="1.44676">
        <ele>203.76</ele>
        <time>2020-05-24T11:48:03Z</time>
      </trkpt>
      <trkpt lat="43.58163" lon="1.44677">
        <ele>203.759</ele>
        <time>2020-05-24T11:48:08Z</time>
      </trkpt>
      <trkpt lat="43.58163" lon="1.44677">
        <ele>203.758</ele>
        <time>2020-05-24T11:48:14Z</time>
      </trkpt>
      <trkpt lat="43.58162" lon="1.44676">
        <ele>203.757</ele>
        <time>2020-05-24T11:48:20Z</time>
      </trkpt>
      <trkpt lat="43.58162" lon="1.44675">
        <ele>203.756</ele>
        <time>2020-05-24T11:48:25Z</time>
      </trkpt>
      <trkpt lat="43.58163" lon="1.44676">
        <ele>203.748</ele>
        <time>2020-05-24T11:48:31Z</time>
      </trkpt>
      <trkpt lat="43.58163" lon="1.44675">
        <ele>203.744</ele>
        <time>2020-05-24T11:48:37Z</time>
      </trkpt>
      <trkpt lat="43.58163" lon="1.44674">
        <ele>203.741</ele>
        <time>2020-05-24T11:48:42Z</time>
      </trkpt>
      <trkpt lat="43.58164" lon="1.44673">
        <ele>203.733</ele>
        <time>2020-05-24T11:48:47Z</time>
      </trkpt>
      <trkpt lat="43.58164" lon="1.44672">
        <ele>203.73</ele>
        <time>2020-05-24T11:48:53Z</time>
      </trkpt>
      <trkpt lat="43.58165" lon="1.44671">
        <ele>203.728</ele>
        <time>2020-05-24T11:48:59Z</time>
      </trkpt>
      <trkpt lat="43.58165" lon="1.44671">
        <ele>203.716</ele>
        <time>2020-05-24T11:49:04Z</time>
      </trkpt>
      <trkpt lat="43.58165" lon="1.44671">
        <ele>203.697</ele>
        <time>2020-05-24T11:49:10Z</time>
      </trkpt>
      <trkpt lat="43.58165" lon="1.44671">
        <ele>203.688</ele>
        <time>2020-05-24T11:49:16Z</time>
      </trkpt>
      <trkpt lat="43.58165" lon="1.44673">
        <ele>203.649</ele>
        <time>2020-05-24T11:49:22Z</time>
      </trkpt>
      <trkpt lat="43.58165" lon="1.44672">
        <ele>203.604</ele>
        <time>2020-05-24T11:49:28Z</time>
      </trkpt>
      <trkpt lat="43.58163" lon="1.44674">
        <ele>203.547</ele>
        <time>2020-05-24T11:49:34Z</time>
      </trkpt>
      <trkpt lat="43.58161" lon="1.44673">
        <ele>203.496</ele>
        <time>2020-05-24T11:49:39Z</time>
      </trkpt>
      <trkpt lat="43.58161" lon="1.44672">
        <ele>203.443</ele>
        <time>2020-05-24T11:49:44Z</time>
      </trkpt>
      <trkpt lat="43.58162" lon="1.44673">
        <ele>203.386</ele>
        <time>2020-05-24T11:49:50Z</time>
      </trkpt>
      <trkpt lat="43.58166" lon="1.44669">
        <ele>203.328</ele>
        <time>2020-05-24T11:49:56Z</time>
      </trkpt>
      <trkpt lat="43.58166" lon="1.44669">
        <ele>203.273</ele>
        <time>2020-05-24T11:50:01Z</time>
      </trkpt>
      <trkpt lat="43.58165" lon="1.44671">
        <ele>203.238</ele>
        <time>2020-05-24T11:50:07Z</time>
      </trkpt>
      <trkpt lat="43.58168" lon="1.44673">
        <ele>203.205</ele>
        <time>2020-05-24T11:50:13Z</time>
      </trkpt>
      <trkpt lat="43.58168" lon="1.44673">
        <ele>203.181</ele>
        <time>2020-05-24T11:50:19Z</time>
      </trkpt>
      <trkpt lat="43.58169" lon="1.4467">
        <ele>203.157</ele>
        <time>2020-05-24T11:50:24Z</time>
      </trkpt>
      <trkpt lat="43.58169" lon="1.4467">
        <ele>203.151</ele>
        <time>2020-05-24T11:50:29Z</time>
      </trkpt>
      <trkpt lat="43.58169" lon="1.4467">
        <ele>203.144</ele>
        <time>2020-05-24T11:50:35Z</time>
      </trkpt>
      <trkpt lat="43.58169" lon="1.4467">
        <ele>203.138</ele>
        <time>2020-05-24T11:50:41Z</time>
      </trkpt>
      <trkpt lat="43.58169" lon="1.4467">
        <ele>203.131</ele>
        <time>2020-05-24T11:50:47Z</time>
      </trkpt>
      <trkpt lat="43.58169" lon="1.4467">
        <ele>203.126</ele>
        <time>2020-05-24T11:50:52Z</time>
      </trkpt>
      <trkpt lat="43.58169" lon="1.4467">
        <ele>203.12</ele>
        <time>2020-05-24T11:50:57Z</time>
      </trkpt>
      <trkpt lat="43.58169" lon="1.44669">
        <ele>203.116</ele>
        <time>2020-05-24T11:51:02Z</time>
      </trkpt>
      <trkpt lat="43.5817" lon="1.44671">
        <ele>203.079</ele>
        <time>2020-05-24T11:51:08Z</time>
      </trkpt>
      <trkpt lat="43.5817" lon="1.44672">
        <ele>203.052</ele>
        <time>2020-05-24T11:51:13Z</time>
      </trkpt>
      <trkpt lat="43.5817" lon="1.44672">
        <ele>203.046</ele>
        <time>2020-05-24T11:51:19Z</time>
      </trkpt>
      <trkpt lat="43.5817" lon="1.44672">
        <ele>203.042</ele>
        <time>2020-05-24T11:51:25Z</time>
      </trkpt>
      <trkpt lat="43.5817" lon="1.44671">
        <ele>203.03</ele>
        <time>2020-05-24T11:51:30Z</time>
      </trkpt>
      <trkpt lat="43.5817" lon="1.44669">
        <ele>203.001</ele>
        <time>2020-05-24T11:51:36Z</time>
      </trkpt>
      <trkpt lat="43.5817" lon="1.44668">
        <ele>202.972</ele>
        <time>2020-05-24T11:51:42Z</time>
      </trkpt>
      <trkpt lat="43.58171" lon="1.44668">
        <ele>202.953</ele>
        <time>2020-05-24T11:51:48Z</time>
      </trkpt>
      <trkpt lat="43.5817" lon="1.44668">
        <ele>202.919</ele>
        <time>2020-05-24T11:51:53Z</time>
      </trkpt>
      <trkpt lat="43.58168" lon="1.44663">
        <ele>202.877</ele>
        <time>2020-05-24T11:51:59Z</time>
      </trkpt>
      <trkpt lat="43.58166" lon="1.44665">
        <ele>202.841</ele>
        <time>2020-05-24T11:52:05Z</time>
      </trkpt>
      <trkpt lat="43.58166" lon="1.44663">
        <ele>202.813</ele>
        <time>2020-05-24T11:52:10Z</time>
      </trkpt>
      <trkpt lat="43.58166" lon="1.44663">
        <ele>202.774</ele>
        <time>2020-05-24T11:52:16Z</time>
      </trkpt>
      <trkpt lat="43.58168" lon="1.44663">
        <ele>202.742</ele>
        <time>2020-05-24T11:52:22Z</time>
      </trkpt>
      <trkpt lat="43.58168" lon="1.44662">
        <ele>202.719</ele>
        <time>2020-05-24T11:52:27Z</time>
      </trkpt>
      <trkpt lat="43.58166" lon="1.44663">
        <ele>202.676</ele>
        <time>2020-05-24T11:52:33Z</time>
      </trkpt>
      <trkpt lat="43.58167" lon="1.44665">
        <ele>202.615</ele>
        <time>2020-05-24T11:52:39Z</time>
      </trkpt>
      <trkpt lat="43.58161" lon="1.44661">
        <ele>202.579</ele>
        <time>2020-05-24T11:52:46Z</time>
      </trkpt>
      <trkpt lat="43.58162" lon="1.44662">
        <ele>202.535</ele>
        <time>2020-05-24T11:52:51Z</time>
      </trkpt>
      <trkpt lat="43.5817" lon="1.44664">
        <ele>202.472</ele>
        <time>2020-05-24T11:52:57Z</time>
      </trkpt>
      <trkpt lat="43.58172" lon="1.44667">
        <ele>202.412</ele>
        <time>2020-05-24T11:53:03Z</time>
      </trkpt>
      <trkpt lat="43.58171" lon="1.4467">
        <ele>202.362</ele>
        <time>2020-05-24T11:53:09Z</time>
      </trkpt>
      <trkpt lat="43.58171" lon="1.4467">
        <ele>202.33</ele>
        <time>2020-05-24T11:53:14Z</time>
      </trkpt>
      <trkpt lat="43.58171" lon="1.44669">
        <ele>202.282</ele>
        <time>2020-05-24T11:53:19Z</time>
      </trkpt>
      <trkpt lat="43.58171" lon="1.44668">
        <ele>202.259</ele>
        <time>2020-05-24T11:53:25Z</time>
      </trkpt>
      <trkpt lat="43.58171" lon="1.44668">
        <ele>202.254</ele>
        <time>2020-05-24T11:53:31Z</time>
      </trkpt>
      <trkpt lat="43.5817" lon="1.44665">
        <ele>202.204</ele>
        <time>2020-05-24T11:53:37Z</time>
      </trkpt>
      <trkpt lat="43.5817" lon="1.44665">
        <ele>202.171</ele>
        <time>2020-05-24T11:53:42Z</time>
      </trkpt>
      <trkpt lat="43.58171" lon="1.44666">
        <ele>202.153</ele>
        <time>2020-05-24T11:53:48Z</time>
      </trkpt>
      <trkpt lat="43.5817" lon="1.44666">
        <ele>202.149</ele>
        <time>2020-05-24T11:53:54Z</time>
      </trkpt>
      <trkpt lat="43.5817" lon="1.44666">
        <ele>202.145</ele>
        <time>2020-05-24T11:54:00Z</time>
      </trkpt>
      <trkpt lat="43.5817" lon="1.44666">
        <ele>202.113</ele>
        <time>2020-05-24T11:54:06Z</time>
      </trkpt>
      <trkpt lat="43.5817" lon="1.44666">
        <ele>202.087</ele>
        <time>2020-05-24T11:54:12Z</time>
      </trkpt>
      <trkpt lat="43.58169" lon="1.44667">
        <ele>202.057</ele>
        <time>2020-05-24T11:54:18Z</time>
      </trkpt>
      <trkpt lat="43.5817" lon="1.44667">
        <ele>202.038</ele>
        <time>2020-05-24T11:54:23Z</time>
      </trkpt>
      <trkpt lat="43.5817" lon="1.44666">
        <ele>202.019</ele>
        <time>2020-05-24T11:54:29Z</time>
      </trkpt>
      <trkpt lat="43.5817" lon="1.44666">
        <ele>202.01</ele>
        <time>2020-05-24T11:54:34Z</time>
      </trkpt>
      <trkpt lat="43.58169" lon="1.44665">
        <ele>201.985</ele>
        <time>2020-05-24T11:54:39Z</time>
      </trkpt>
      <trkpt lat="43.58169" lon="1.44665">
        <ele>201.981</ele>
        <time>2020-05-24T11:54:45Z</time>
      </trkpt>
      <trkpt lat="43.58168" lon="1.44665">
        <ele>201.965</ele>
        <time>2020-05-24T11:54:51Z</time>
      </trkpt>
      <trkpt lat="43.58167" lon="1.44664">
        <ele>201.927</ele>
        <time>2020-05-24T11:54:57Z</time>
      </trkpt>
      <trkpt lat="43.58166" lon="1.44665">
        <ele>201.893</ele>
        <time>2020-05-24T11:55:02Z</time>
      </trkpt>
      <trkpt lat="43.58165" lon="1.44669">
        <ele>201.865</ele>
        <time>2020-05-24T11:55:08Z</time>
      </trkpt>
      <trkpt lat="43.58165" lon="1.44669">
        <ele>201.84</ele>
        <time>2020-05-24T11:55:14Z</time>
      </trkpt>
      <trkpt lat="43.58165" lon="1.44669">
        <ele>201.837</ele>
        <time>2020-05-24T11:55:20Z</time>
      </trkpt>
      <trkpt lat="43.58165" lon="1.44669">
        <ele>201.831</ele>
        <time>2020-05-24T11:55:25Z</time>
      </trkpt>
      <trkpt lat="43.58166" lon="1.44667">
        <ele>201.809</ele>
        <time>2020-05-24T11:55:31Z</time>
      </trkpt>
      <trkpt lat="43.58166" lon="1.44669">
        <ele>201.787</ele>
        <time>2020-05-24T11:55:37Z</time>
      </trkpt>
      <trkpt lat="43.58167" lon="1.44667">
        <ele>201.784</ele>
        <time>2020-05-24T11:55:43Z</time>
      </trkpt>
      <trkpt lat="43.58166" lon="1.44669">
        <ele>201.774</ele>
        <time>2020-05-24T11:55:48Z</time>
      </trkpt>
      <trkpt lat="43.58167" lon="1.44671">
        <ele>201.759</ele>
        <time>2020-05-24T11:55:54Z</time>
      </trkpt>
      <trkpt lat="43.58166" lon="1.44671">
        <ele>201.756</ele>
        <time>2020-05-24T11:56:00Z</time>
      </trkpt>
      <trkpt lat="43.58166" lon="1.4467">
        <ele>201.731</ele>
        <time>2020-05-24T11:56:05Z</time>
      </trkpt>
      <trkpt lat="43.58168" lon="1.4467">
        <ele>201.713</ele>
        <time>2020-05-24T11:56:10Z</time>
      </trkpt>
      <trkpt lat="43.58169" lon="1.4467">
        <ele>201.704</ele>
        <time>2020-05-24T11:56:16Z</time>
      </trkpt>
      <trkpt lat="43.5817" lon="1.44669">
        <ele>201.691</ele>
        <time>2020-05-24T11:56:22Z</time>
      </trkpt>
      <trkpt lat="43.58168" lon="1.44669">
        <ele>201.687</ele>
        <time>2020-05-24T11:56:28Z</time>
      </trkpt>
      <trkpt lat="43.58169" lon="1.44669">
        <ele>201.683</ele>
        <time>2020-05-24T11:56:33Z</time>
      </trkpt>
      <trkpt lat="43.58169" lon="1.44668">
        <ele>201.676</ele>
        <time>2020-05-24T11:56:39Z</time>
      </trkpt>
      <trkpt lat="43.58169" lon="1.44668">
        <ele>201.674</ele>
        <time>2020-05-24T11:56:44Z</time>
      </trkpt>
      <trkpt lat="43.58168" lon="1.44667">
        <ele>201.665</ele>
        <time>2020-05-24T11:56:50Z</time>
      </trkpt>
      <trkpt lat="43.58168" lon="1.44667">
        <ele>201.663</ele>
        <time>2020-05-24T11:56:56Z</time>
      </trkpt>
      <trkpt lat="43.58168" lon="1.44667">
        <ele>201.661</ele>
        <time>2020-05-24T11:57:01Z</time>
      </trkpt>
      <trkpt lat="43.58168" lon="1.44667">
        <ele>201.659</ele>
        <time>2020-05-24T11:57:06Z</time>
      </trkpt>
      <trkpt lat="43.58168" lon="1.44667">
        <ele>201.658</ele>
        <time>2020-05-24T11:57:12Z</time>
      </trkpt>
      <trkpt lat="43.58168" lon="1.44666">
        <ele>201.656</ele>
        <time>2020-05-24T11:57:18Z</time>
      </trkpt>
      <trkpt lat="43.58169" lon="1.44667">
        <ele>201.652</ele>
        <time>2020-05-24T11:57:23Z</time>
      </trkpt>
      <trkpt lat="43.5817" lon="1.44668">
        <ele>201.637</ele>
        <time>2020-05-24T11:57:29Z</time>
      </trkpt>
      <trkpt lat="43.58169" lon="1.44668">
        <ele>201.627</ele>
        <time>2020-05-24T11:57:34Z</time>
      </trkpt>
      <trkpt lat="43.58172" lon="1.44668">
        <ele>201.612</ele>
        <time>2020-05-24T11:57:40Z</time>
      </trkpt>
      <trkpt lat="43.58173" lon="1.44669">
        <ele>201.602</ele>
        <time>2020-05-24T11:57:45Z</time>
      </trkpt>
      <trkpt lat="43.58172" lon="1.44668">
        <ele>201.587</ele>
        <time>2020-05-24T11:57:50Z</time>
      </trkpt>
      <trkpt lat="43.58171" lon="1.44667">
        <ele>201.579</ele>
        <time>2020-05-24T11:57:56Z</time>
      </trkpt>
      <trkpt lat="43.58171" lon="1.44666">
        <ele>201.578</ele>
        <time>2020-05-24T11:58:01Z</time>
      </trkpt>
      <trkpt lat="43.58171" lon="1.44666">
        <ele>201.576</ele>
        <time>2020-05-24T11:58:06Z</time>
      </trkpt>
      <trkpt lat="43.58171" lon="1.44666">
        <ele>201.575</ele>
        <time>2020-05-24T11:58:11Z</time>
      </trkpt>
      <trkpt lat="43.5817" lon="1.44666">
        <ele>201.567</ele>
        <time>2020-05-24T11:58:17Z</time>
      </trkpt>
      <trkpt lat="43.58166" lon="1.44662">
        <ele>201.552</ele>
        <time>2020-05-24T11:58:23Z</time>
      </trkpt>
      <trkpt lat="43.58165" lon="1.44658">
        <ele>201.534</ele>
        <time>2020-05-24T11:58:30Z</time>
      </trkpt>
      <trkpt lat="43.58166" lon="1.44654">
        <ele>201.52</ele>
        <time>2020-05-24T11:58:35Z</time>
      </trkpt>
      <trkpt lat="43.58168" lon="1.44653">
        <ele>201.506</ele>
        <time>2020-05-24T11:58:41Z</time>
      </trkpt>
      <trkpt lat="43.58168" lon="1.44653">
        <ele>201.502</ele>
        <time>2020-05-24T11:58:47Z</time>
      </trkpt>
      <trkpt lat="43.58168" lon="1.44653">
        <ele>201.479</ele>
        <time>2020-05-24T11:58:57Z</time>
      </trkpt>
      <trkpt lat="43.58167" lon="1.44653">
        <ele>201.473</ele>
        <time>2020-05-24T11:59:02Z</time>
      </trkpt>
      <trkpt lat="43.58167" lon="1.44652">
        <ele>201.465</ele>
        <time>2020-05-24T11:59:07Z</time>
      </trkpt>
      <trkpt lat="43.58167" lon="1.44653">
        <ele>201.462</ele>
        <time>2020-05-24T11:59:13Z</time>
      </trkpt>
      <trkpt lat="43.58167" lon="1.44653">
        <ele>201.458</ele>
        <time>2020-05-24T11:59:19Z</time>
      </trkpt>
      <trkpt lat="43.58167" lon="1.44654">
        <ele>201.454</ele>
        <time>2020-05-24T11:59:24Z</time>
      </trkpt>
      <trkpt lat="43.58167" lon="1.44654">
        <ele>201.45</ele>
        <time>2020-05-24T11:59:29Z</time>
      </trkpt>
      <trkpt lat="43.58167" lon="1.44654">
        <ele>201.444</ele>
        <time>2020-05-24T11:59:35Z</time>
      </trkpt>
      <trkpt lat="43.58167" lon="1.44654">
        <ele>201.433</ele>
        <time>2020-05-24T11:59:40Z</time>
      </trkpt>
      <trkpt lat="43.58167" lon="1.44654">
        <ele>201.428</ele>
        <time>2020-05-24T11:59:46Z</time>
      </trkpt>
      <trkpt lat="43.58168" lon="1.44655">
        <ele>201.408</ele>
        <time>2020-05-24T11:59:51Z</time>
      </trkpt>
      <trkpt lat="43.58168" lon="1.44656">
        <ele>201.388</ele>
        <time>2020-05-24T11:59:57Z</time>
      </trkpt>
      <trkpt lat="43.58166" lon="1.44656">
        <ele>201.335</ele>
        <time>2020-05-24T12:00:03Z</time>
      </trkpt>
      <trkpt lat="43.58166" lon="1.44657">
        <ele>201.283</ele>
        <time>2020-05-24T12:00:09Z</time>
      </trkpt>
      <trkpt lat="43.5816" lon="1.44659">
        <ele>201.232</ele>
        <time>2020-05-24T12:00:15Z</time>
      </trkpt>
      <trkpt lat="43.5816" lon="1.44659">
        <ele>201.221</ele>
        <time>2020-05-24T12:00:20Z</time>
      </trkpt>
      <trkpt lat="43.5816" lon="1.44659">
        <ele>201.215</ele>
        <time>2020-05-24T12:00:26Z</time>
      </trkpt>
      <trkpt lat="43.5816" lon="1.44659">
        <ele>201.211</ele>
        <time>2020-05-24T12:00:31Z</time>
      </trkpt>
      <trkpt lat="43.5816" lon="1.44659">
        <ele>201.206</ele>
        <time>2020-05-24T12:00:37Z</time>
      </trkpt>
      <trkpt lat="43.5816" lon="1.44659">
        <ele>201.202</ele>
        <time>2020-05-24T12:00:42Z</time>
      </trkpt>
      <trkpt lat="43.58161" lon="1.4466">
        <ele>201.199</ele>
        <time>2020-05-24T12:00:47Z</time>
      </trkpt>
      <trkpt lat="43.58162" lon="1.44661">
        <ele>201.196</ele>
        <time>2020-05-24T12:00:52Z</time>
      </trkpt>
      <trkpt lat="43.58162" lon="1.4466">
        <ele>201.182</ele>
        <time>2020-05-24T12:00:58Z</time>
      </trkpt>
      <trkpt lat="43.58162" lon="1.44661">
        <ele>201.169</ele>
        <time>2020-05-24T12:01:03Z</time>
      </trkpt>
      <trkpt lat="43.5816" lon="1.44661">
        <ele>201.137</ele>
        <time>2020-05-24T12:01:09Z</time>
      </trkpt>
      <trkpt lat="43.5816" lon="1.44662">
        <ele>201.107</ele>
        <time>2020-05-24T12:01:15Z</time>
      </trkpt>
      <trkpt lat="43.58164" lon="1.44661">
        <ele>201.1</ele>
        <time>2020-05-24T12:01:20Z</time>
      </trkpt>
      <trkpt lat="43.58165" lon="1.44663">
        <ele>201.086</ele>
        <time>2020-05-24T12:01:26Z</time>
      </trkpt>
      <trkpt lat="43.58165" lon="1.44663">
        <ele>201.083</ele>
        <time>2020-05-24T12:01:31Z</time>
      </trkpt>
      <trkpt lat="43.58165" lon="1.44663">
        <ele>201.079</ele>
        <time>2020-05-24T12:01:37Z</time>
      </trkpt>
      <trkpt lat="43.58165" lon="1.44663">
        <ele>201.075</ele>
        <time>2020-05-24T12:01:43Z</time>
      </trkpt>
      <trkpt lat="43.58165" lon="1.44663">
        <ele>201.071</ele>
        <time>2020-05-24T12:01:49Z</time>
      </trkpt>
      <trkpt lat="43.58165" lon="1.44663">
        <ele>201.066</ele>
        <time>2020-05-24T12:01:55Z</time>
      </trkpt>
      <trkpt lat="43.58165" lon="1.44663">
        <ele>201.062</ele>
        <time>2020-05-24T12:02:00Z</time>
      </trkpt>
      <trkpt lat="43.58165" lon="1.44663">
        <ele>201.057</ele>
        <time>2020-05-24T12:02:05Z</time>
      </trkpt>
      <trkpt lat="43.58165" lon="1.44664">
        <ele>201.035</ele>
        <time>2020-05-24T12:02:11Z</time>
      </trkpt>
      <trkpt lat="43.58166" lon="1.44664">
        <ele>201.03</ele>
        <time>2020-05-24T12:02:16Z</time>
      </trkpt>
      <trkpt lat="43.58166" lon="1.44664">
        <ele>201.024</ele>
        <time>2020-05-24T12:02:22Z</time>
      </trkpt>
      <trkpt lat="43.58166" lon="1.44664">
        <ele>201.018</ele>
        <time>2020-05-24T12:02:28Z</time>
      </trkpt>
      <trkpt lat="43.58166" lon="1.44664">
        <ele>201.012</ele>
        <time>2020-05-24T12:02:34Z</time>
      </trkpt>
      <trkpt lat="43.58166" lon="1.44664">
        <ele>201.006</ele>
        <time>2020-05-24T12:02:40Z</time>
      </trkpt>
      <trkpt lat="43.58166" lon="1.44664">
        <ele>201.001</ele>
        <time>2020-05-24T12:02:45Z</time>
      </trkpt>
      <trkpt lat="43.58166" lon="1.44664">
        <ele>200.995</ele>
        <time>2020-05-24T12:02:51Z</time>
      </trkpt>
      <trkpt lat="43.58166" lon="1.44663">
        <ele>200.99</ele>
        <time>2020-05-24T12:02:57Z</time>
      </trkpt>
      <trkpt lat="43.58167" lon="1.44663">
        <ele>200.986</ele>
        <time>2020-05-24T12:03:02Z</time>
      </trkpt>
      <trkpt lat="43.58167" lon="1.44663">
        <ele>200.982</ele>
        <time>2020-05-24T12:03:07Z</time>
      </trkpt>
      <trkpt lat="43.58167" lon="1.44663">
        <ele>200.978</ele>
        <time>2020-05-24T12:03:12Z</time>
      </trkpt>
      <trkpt lat="43.58167" lon="1.44663">
        <ele>200.973</ele>
        <time>2020-05-24T12:03:18Z</time>
      </trkpt>
      <trkpt lat="43.58167" lon="1.44663">
        <ele>200.969</ele>
        <time>2020-05-24T12:03:23Z</time>
      </trkpt>
      <trkpt lat="43.58167" lon="1.44663">
        <ele>200.964</ele>
        <time>2020-05-24T12:03:29Z</time>
      </trkpt>
      <trkpt lat="43.58167" lon="1.44663">
        <ele>200.961</ele>
        <time>2020-05-24T12:03:34Z</time>
      </trkpt>
      <trkpt lat="43.58167" lon="1.44663">
        <ele>200.958</ele>
        <time>2020-05-24T12:03:39Z</time>
      </trkpt>
      <trkpt lat="43.58167" lon="1.44663">
        <ele>200.955</ele>
        <time>2020-05-24T12:03:45Z</time>
      </trkpt>
      <trkpt lat="43.58167" lon="1.44664">
        <ele>200.953</ele>
        <time>2020-05-24T12:03:50Z</time>
      </trkpt>
      <trkpt lat="43.58167" lon="1.44664">
        <ele>200.951</ele>
        <time>2020-05-24T12:03:56Z</time>
      </trkpt>
      <trkpt lat="43.58167" lon="1.44664">
        <ele>200.949</ele>
        <time>2020-05-24T12:04:02Z</time>
      </trkpt>
      <trkpt lat="43.58167" lon="1.44664">
        <ele>200.947</ele>
        <time>2020-05-24T12:04:07Z</time>
      </trkpt>
      <trkpt lat="43.58167" lon="1.44663">
        <ele>200.941</ele>
        <time>2020-05-24T12:04:13Z</time>
      </trkpt>
      <trkpt lat="43.58167" lon="1.44664">
        <ele>200.938</ele>
        <time>2020-05-24T12:04:19Z</time>
      </trkpt>
      <trkpt lat="43.58168" lon="1.44663">
        <ele>200.936</ele>
        <time>2020-05-24T12:04:25Z</time>
      </trkpt>
      <trkpt lat="43.58168" lon="1.44663">
        <ele>200.933</ele>
        <time>2020-05-24T12:04:31Z</time>
      </trkpt>
      <trkpt lat="43.58168" lon="1.44663">
        <ele>200.931</ele>
        <time>2020-05-24T12:04:37Z</time>
      </trkpt>
      <trkpt lat="43.58168" lon="1.44663">
        <ele>200.929</ele>
        <time>2020-05-24T12:04:43Z</time>
      </trkpt>
      <trkpt lat="43.58169" lon="1.44664">
        <ele>200.925</ele>
        <time>2020-05-24T12:04:48Z</time>
      </trkpt>
      <trkpt lat="43.58169" lon="1.44664">
        <ele>200.924</ele>
        <time>2020-05-24T12:04:53Z</time>
      </trkpt>
      <trkpt lat="43.58169" lon="1.44663">
        <ele>200.914</ele>
        <time>2020-05-24T12:04:59Z</time>
      </trkpt>
      <trkpt lat="43.5817" lon="1.44663">
        <ele>200.908</ele>
        <time>2020-05-24T12:05:05Z</time>
      </trkpt>
      <trkpt lat="43.58171" lon="1.44663">
        <ele>200.906</ele>
        <time>2020-05-24T12:05:11Z</time>
      </trkpt>
      <trkpt lat="43.5817" lon="1.44663">
        <ele>200.903</ele>
        <time>2020-05-24T12:05:16Z</time>
      </trkpt>
      <trkpt lat="43.58171" lon="1.44663">
        <ele>200.9</ele>
        <time>2020-05-24T12:05:22Z</time>
      </trkpt>
      <trkpt lat="43.5817" lon="1.44664">
        <ele>200.893</ele>
        <time>2020-05-24T12:05:28Z</time>
      </trkpt>
      <trkpt lat="43.5817" lon="1.44664">
        <ele>200.892</ele>
        <time>2020-05-24T12:05:34Z</time>
      </trkpt>
      <trkpt lat="43.5817" lon="1.44664">
        <ele>200.887</ele>
        <time>2020-05-24T12:05:39Z</time>
      </trkpt>
      <trkpt lat="43.5817" lon="1.44664">
        <ele>200.883</ele>
        <time>2020-05-24T12:05:45Z</time>
      </trkpt>
      <trkpt lat="43.58169" lon="1.44663">
        <ele>200.881</ele>
        <time>2020-05-24T12:05:51Z</time>
      </trkpt>
      <trkpt lat="43.58168" lon="1.44662">
        <ele>200.88</ele>
        <time>2020-05-24T12:05:56Z</time>
      </trkpt>
      <trkpt lat="43.58168" lon="1.44663">
        <ele>200.88</ele>
        <time>2020-05-24T12:06:01Z</time>
      </trkpt>
      <trkpt lat="43.58168" lon="1.44663">
        <ele>200.88</ele>
        <time>2020-05-24T12:06:06Z</time>
      </trkpt>
      <trkpt lat="43.58168" lon="1.44663">
        <ele>200.879</ele>
        <time>2020-05-24T12:06:12Z</time>
      </trkpt>
      <trkpt lat="43.58168" lon="1.44663">
        <ele>200.879</ele>
        <time>2020-05-24T12:06:18Z</time>
      </trkpt>
      <trkpt lat="43.58168" lon="1.44663">
        <ele>200.879</ele>
        <time>2020-05-24T12:06:24Z</time>
      </trkpt>
      <trkpt lat="43.58168" lon="1.44663">
        <ele>200.879</ele>
        <time>2020-05-24T12:06:29Z</time>
      </trkpt>
      <trkpt lat="43.58168" lon="1.44663">
        <ele>200.879</ele>
        <time>2020-05-24T12:06:34Z</time>
      </trkpt>
      <trkpt lat="43.58168" lon="1.44663">
        <ele>200.879</ele>
        <time>2020-05-24T12:06:39Z</time>
      </trkpt>
      <trkpt lat="43.58168" lon="1.44663">
        <ele>200.879</ele>
        <time>2020-05-24T12:06:45Z</time>
      </trkpt>
      <trkpt lat="43.58168" lon="1.44663">
        <ele>200.879</ele>
        <time>2020-05-24T12:06:50Z</time>
      </trkpt>
      <trkpt lat="43.58167" lon="1.44663">
        <ele>200.877</ele>
        <time>2020-05-24T12:06:56Z</time>
      </trkpt>
      <trkpt lat="43.58166" lon="1.44663">
        <ele>200.876</ele>
        <time>2020-05-24T12:07:01Z</time>
      </trkpt>
      <trkpt lat="43.58166" lon="1.44663">
        <ele>200.875</ele>
        <time>2020-05-24T12:07:07Z</time>
      </trkpt>
      <trkpt lat="43.58166" lon="1.44664">
        <ele>200.875</ele>
        <time>2020-05-24T12:07:12Z</time>
      </trkpt>
      <trkpt lat="43.58165" lon="1.44664">
        <ele>200.876</ele>
        <time>2020-05-24T12:07:17Z</time>
      </trkpt>
      <trkpt lat="43.58165" lon="1.44664">
        <ele>200.877</ele>
        <time>2020-05-24T12:07:22Z</time>
      </trkpt>
      <trkpt lat="43.58165" lon="1.44664">
        <ele>200.877</ele>
        <time>2020-05-24T12:07:28Z</time>
      </trkpt>
      <trkpt lat="43.58165" lon="1.44664">
        <ele>200.878</ele>
        <time>2020-05-24T12:07:33Z</time>
      </trkpt>
      <trkpt lat="43.58166" lon="1.44664">
        <ele>200.881</ele>
        <time>2020-05-24T12:07:39Z</time>
      </trkpt>
      <trkpt lat="43.58167" lon="1.44665">
        <ele>200.889</ele>
        <time>2020-05-24T12:07:45Z</time>
      </trkpt>
      <trkpt lat="43.58167" lon="1.44664">
        <ele>200.895</ele>
        <time>2020-05-24T12:07:51Z</time>
      </trkpt>
      <trkpt lat="43.58166" lon="1.44664">
        <ele>200.902</ele>
        <time>2020-05-24T12:07:56Z</time>
      </trkpt>
      <trkpt lat="43.58167" lon="1.44662">
        <ele>200.91</ele>
        <time>2020-05-24T12:08:02Z</time>
      </trkpt>
      <trkpt lat="43.58169" lon="1.44659">
        <ele>200.915</ele>
        <time>2020-05-24T12:08:08Z</time>
      </trkpt>
      <trkpt lat="43.58168" lon="1.4466">
        <ele>200.917</ele>
        <time>2020-05-24T12:08:13Z</time>
      </trkpt>
      <trkpt lat="43.58168" lon="1.44662">
        <ele>200.917</ele>
        <time>2020-05-24T12:08:18Z</time>
      </trkpt>
      <trkpt lat="43.58167" lon="1.44662">
        <ele>200.915</ele>
        <time>2020-05-24T12:08:23Z</time>
      </trkpt>
      <trkpt lat="43.58169" lon="1.4466">
        <ele>200.913</ele>
        <time>2020-05-24T12:08:29Z</time>
      </trkpt>
      <trkpt lat="43.58171" lon="1.44658">
        <ele>200.908</ele>
        <time>2020-05-24T12:08:35Z</time>
      </trkpt>
      <trkpt lat="43.58172" lon="1.44658">
        <ele>200.902</ele>
        <time>2020-05-24T12:08:41Z</time>
      </trkpt>
      <trkpt lat="43.58172" lon="1.44657">
        <ele>200.898</ele>
        <time>2020-05-24T12:08:47Z</time>
      </trkpt>
      <trkpt lat="43.58171" lon="1.44658">
        <ele>200.893</ele>
        <time>2020-05-24T12:08:53Z</time>
      </trkpt>
      <trkpt lat="43.58171" lon="1.44658">
        <ele>200.891</ele>
        <time>2020-05-24T12:08:58Z</time>
      </trkpt>
      <trkpt lat="43.58169" lon="1.44661">
        <ele>200.886</ele>
        <time>2020-05-24T12:09:04Z</time>
      </trkpt>
      <trkpt lat="43.58169" lon="1.44661">
        <ele>200.884</ele>
        <time>2020-05-24T12:09:10Z</time>
      </trkpt>
      <trkpt lat="43.58168" lon="1.4466">
        <ele>200.875</ele>
        <time>2020-05-24T12:09:15Z</time>
      </trkpt>
      <trkpt lat="43.58168" lon="1.44661">
        <ele>200.867</ele>
        <time>2020-05-24T12:09:21Z</time>
      </trkpt>
      <trkpt lat="43.58167" lon="1.44659">
        <ele>200.854</ele>
        <time>2020-05-24T12:09:26Z</time>
      </trkpt>
      <trkpt lat="43.58167" lon="1.44658">
        <ele>200.843</ele>
        <time>2020-05-24T12:09:31Z</time>
      </trkpt>
      <trkpt lat="43.58164" lon="1.44676">
        <ele>194.7</ele>
        <time>2020-05-24T12:09:45Z</time>
      </trkpt>
      <trkpt lat="43.58167" lon="1.44665">
        <ele>200.782</ele>
        <time>2020-05-24T12:10:02Z</time>
      </trkpt>
      <trkpt lat="43.58161" lon="1.4467">
        <ele>200.778</ele>
        <time>2020-05-24T12:10:07Z</time>
      </trkpt>
      <trkpt lat="43.58163" lon="1.4467">
        <ele>200.772</ele>
        <time>2020-05-24T12:10:13Z</time>
      </trkpt>
      <trkpt lat="43.58164" lon="1.4467">
        <ele>200.787</ele>
        <time>2020-05-24T12:10:18Z</time>
      </trkpt>
      <trkpt lat="43.58161" lon="1.44677">
        <ele>200.811</ele>
        <time>2020-05-24T12:10:24Z</time>
      </trkpt>
      <trkpt lat="43.5816" lon="1.44671">
        <ele>200.83</ele>
        <time>2020-05-24T12:10:30Z</time>
      </trkpt>
      <trkpt lat="43.5816" lon="1.44672">
        <ele>200.938</ele>
        <time>2020-05-24T12:10:36Z</time>
      </trkpt>
      <trkpt lat="43.58162" lon="1.44673">
        <ele>201.019</ele>
        <time>2020-05-24T12:10:42Z</time>
      </trkpt>
      <trkpt lat="43.58163" lon="1.44675">
        <ele>201.051</ele>
        <time>2020-05-24T12:10:47Z</time>
      </trkpt>
      <trkpt lat="43.58163" lon="1.44675">
        <ele>201.077</ele>
        <time>2020-05-24T12:10:53Z</time>
      </trkpt>
      <trkpt lat="43.58164" lon="1.44673">
        <ele>201.047</ele>
        <time>2020-05-24T12:10:59Z</time>
      </trkpt>
      <trkpt lat="43.58165" lon="1.44672">
        <ele>201.022</ele>
        <time>2020-05-24T12:11:05Z</time>
      </trkpt>
      <trkpt lat="43.58164" lon="1.44672">
        <ele>201.01</ele>
        <time>2020-05-24T12:11:11Z</time>
      </trkpt>
      <trkpt lat="43.58163" lon="1.44674">
        <ele>200.991</ele>
        <time>2020-05-24T12:11:16Z</time>
      </trkpt>
      <trkpt lat="43.58163" lon="1.44675">
        <ele>200.977</ele>
        <time>2020-05-24T12:11:22Z</time>
      </trkpt>
      <trkpt lat="43.58163" lon="1.44675">
        <ele>200.971</ele>
        <time>2020-05-24T12:11:28Z</time>
      </trkpt>
      <trkpt lat="43.58164" lon="1.44677">
        <ele>200.96</ele>
        <time>2020-05-24T12:11:34Z</time>
      </trkpt>
      <trkpt lat="43.58165" lon="1.44675">
        <ele>200.935</ele>
        <time>2020-05-24T12:11:40Z</time>
      </trkpt>
      <trkpt lat="43.58165" lon="1.44676">
        <ele>200.93</ele>
        <time>2020-05-24T12:11:45Z</time>
      </trkpt>
      <trkpt lat="43.58166" lon="1.44675">
        <ele>200.919</ele>
        <time>2020-05-24T12:11:51Z</time>
      </trkpt>
      <trkpt lat="43.58165" lon="1.44674">
        <ele>200.912</ele>
        <time>2020-05-24T12:11:56Z</time>
      </trkpt>
      <trkpt lat="43.58165" lon="1.44674">
        <ele>200.903</ele>
        <time>2020-05-24T12:12:02Z</time>
      </trkpt>
      <trkpt lat="43.58166" lon="1.44674">
        <ele>200.904</ele>
        <time>2020-05-24T12:12:08Z</time>
      </trkpt>
      <trkpt lat="43.58166" lon="1.44673">
        <ele>200.905</ele>
        <time>2020-05-24T12:12:14Z</time>
      </trkpt>
      <trkpt lat="43.58165" lon="1.44673">
        <ele>200.908</ele>
        <time>2020-05-24T12:12:19Z</time>
      </trkpt>
      <trkpt lat="43.58165" lon="1.44673">
        <ele>200.913</ele>
        <time>2020-05-24T12:12:25Z</time>
      </trkpt>
      <trkpt lat="43.58165" lon="1.44673">
        <ele>200.933</ele>
        <time>2020-05-24T12:12:30Z</time>
      </trkpt>
      <trkpt lat="43.58165" lon="1.44672">
        <ele>200.937</ele>
        <time>2020-05-24T12:12:36Z</time>
      </trkpt>
      <trkpt lat="43.58165" lon="1.44672">
        <ele>200.942</ele>
        <time>2020-05-24T12:12:42Z</time>
      </trkpt>
      <trkpt lat="43.58165" lon="1.44673">
        <ele>200.958</ele>
        <time>2020-05-24T12:12:47Z</time>
      </trkpt>
      <trkpt lat="43.58165" lon="1.44673">
        <ele>200.968</ele>
        <time>2020-05-24T12:12:53Z</time>
      </trkpt>
      <trkpt lat="43.58165" lon="1.44673">
        <ele>200.982</ele>
        <time>2020-05-24T12:12:59Z</time>
      </trkpt>
      <trkpt lat="43.58165" lon="1.44673">
        <ele>201.023</ele>
        <time>2020-05-24T12:13:05Z</time>
      </trkpt>
      <trkpt lat="43.58165" lon="1.44673">
        <ele>201.04</ele>
        <time>2020-05-24T12:13:10Z</time>
      </trkpt>
      <trkpt lat="43.58165" lon="1.44673">
        <ele>201.062</ele>
        <time>2020-05-24T12:13:16Z</time>
      </trkpt>
      <trkpt lat="43.58164" lon="1.44673">
        <ele>201.088</ele>
        <time>2020-05-24T12:13:22Z</time>
      </trkpt>
      <trkpt lat="43.58164" lon="1.44673">
        <ele>201.111</ele>
        <time>2020-05-24T12:13:27Z</time>
      </trkpt>
      <trkpt lat="43.58164" lon="1.44673">
        <ele>201.185</ele>
        <time>2020-05-24T12:13:33Z</time>
      </trkpt>
      <trkpt lat="43.58162" lon="1.44673">
        <ele>201.264</ele>
        <time>2020-05-24T12:13:39Z</time>
      </trkpt>
      <trkpt lat="43.58163" lon="1.44672">
        <ele>201.389</ele>
        <time>2020-05-24T12:13:45Z</time>
      </trkpt>
      <trkpt lat="43.58162" lon="1.44672">
        <ele>201.418</ele>
        <time>2020-05-24T12:13:51Z</time>
      </trkpt>
      <trkpt lat="43.58162" lon="1.44672">
        <ele>201.448</ele>
        <time>2020-05-24T12:13:57Z</time>
      </trkpt>
      <trkpt lat="43.58165" lon="1.44673">
        <ele>201.678</ele>
        <time>2020-05-24T12:14:02Z</time>
      </trkpt>
      <trkpt lat="43.58166" lon="1.44673">
        <ele>201.815</ele>
        <time>2020-05-24T12:14:08Z</time>
      </trkpt>
      <trkpt lat="43.58165" lon="1.44673">
        <ele>201.836</ele>
        <time>2020-05-24T12:14:14Z</time>
      </trkpt>
      <trkpt lat="43.58166" lon="1.44673">
        <ele>201.942</ele>
        <time>2020-05-24T12:14:19Z</time>
      </trkpt>
      <trkpt lat="43.58167" lon="1.44667">
        <ele>202.116</ele>
        <time>2020-05-24T12:14:25Z</time>
      </trkpt>
      <trkpt lat="43.58167" lon="1.44658">
        <ele>202.239</ele>
        <time>2020-05-24T12:14:30Z</time>
      </trkpt>
      <trkpt lat="43.58161" lon="1.4463">
        <ele>202.356</ele>
        <time>2020-05-24T12:14:36Z</time>
      </trkpt>
      <trkpt lat="43.58158" lon="1.44606">
        <ele>202.452</ele>
        <time>2020-05-24T12:14:42Z</time>
      </trkpt>
      <trkpt lat="43.58152" lon="1.44576">
        <ele>202.644</ele>
        <time>2020-05-24T12:14:48Z</time>
      </trkpt>
      <trkpt lat="43.58147" lon="1.44557">
        <ele>202.694</ele>
        <time>2020-05-24T12:14:54Z</time>
      </trkpt>
      <trkpt lat="43.58145" lon="1.44553">
        <ele>202.705</ele>
        <time>2020-05-24T12:15:00Z</time>
      </trkpt>
      <trkpt lat="43.58145" lon="1.44553">
        <ele>202.71</ele>
        <time>2020-05-24T12:15:05Z</time>
      </trkpt>
      <trkpt lat="43.58145" lon="1.44553">
        <ele>202.711</ele>
        <time>2020-05-24T12:15:06Z</time>
      </trkpt>
      <trkpt lat="43.58145" lon="1.44553">
        <ele>202.725</ele>
        <time>2020-05-24T12:15:11Z</time>
      </trkpt>
      <trkpt lat="43.58143" lon="1.44548">
        <ele>202.774</ele>
        <time>2020-05-24T12:15:17Z</time>
      </trkpt>
      <trkpt lat="43.58139" lon="1.44533">
        <ele>202.805</ele>
        <time>2020-05-24T12:15:22Z</time>
      </trkpt>
      <trkpt lat="43.58133" lon="1.44512">
        <ele>202.83</ele>
        <time>2020-05-24T12:15:28Z</time>
      </trkpt>
      <trkpt lat="43.58129" lon="1.44496">
        <ele>202.834</ele>
        <time>2020-05-24T12:15:33Z</time>
      </trkpt>
      <trkpt lat="43.58126" lon="1.44474">
        <ele>202.834</ele>
        <time>2020-05-24T12:15:38Z</time>
      </trkpt>
      <trkpt lat="43.58126" lon="1.44452">
        <ele>202.824</ele>
        <time>2020-05-24T12:15:44Z</time>
      </trkpt>
      <trkpt lat="43.58128" lon="1.44435">
        <ele>202.803</ele>
        <time>2020-05-24T12:15:49Z</time>
      </trkpt>
      <trkpt lat="43.5815" lon="1.44421">
        <ele>202.773</ele>
        <time>2020-05-24T12:15:55Z</time>
      </trkpt>
      <trkpt lat="43.58176" lon="1.44413">
        <ele>202.674</ele>
        <time>2020-05-24T12:16:01Z</time>
      </trkpt>
      <trkpt lat="43.58202" lon="1.44406">
        <ele>202.602</ele>
        <time>2020-05-24T12:16:07Z</time>
      </trkpt>
      <trkpt lat="43.5822" lon="1.44398">
        <ele>202.593</ele>
        <time>2020-05-24T12:16:13Z</time>
      </trkpt>
      <trkpt lat="43.58244" lon="1.44403">
        <ele>202.571</ele>
        <time>2020-05-24T12:16:19Z</time>
      </trkpt>
      <trkpt lat="43.58271" lon="1.44405">
        <ele>202.549</ele>
        <time>2020-05-24T12:16:25Z</time>
      </trkpt>
      <trkpt lat="43.58295" lon="1.44405">
        <ele>202.513</ele>
        <time>2020-05-24T12:16:31Z</time>
      </trkpt>
      <trkpt lat="43.58317" lon="1.44407">
        <ele>202.501</ele>
        <time>2020-05-24T12:16:36Z</time>
      </trkpt>
      <trkpt lat="43.58344" lon="1.44411">
        <ele>202.378</ele>
        <time>2020-05-24T12:16:42Z</time>
      </trkpt>
      <trkpt lat="43.58372" lon="1.44413">
        <ele>202.358</ele>
        <time>2020-05-24T12:16:48Z</time>
      </trkpt>
      <trkpt lat="43.58394" lon="1.44408">
        <ele>202.383</ele>
        <time>2020-05-24T12:16:54Z</time>
      </trkpt>
      <trkpt lat="43.58397" lon="1.44378">
        <ele>202.513</ele>
        <time>2020-05-24T12:17:00Z</time>
      </trkpt>
      <trkpt lat="43.584" lon="1.44353">
        <ele>202.537</ele>
        <time>2020-05-24T12:17:06Z</time>
      </trkpt>
      <trkpt lat="43.58402" lon="1.44339">
        <ele>202.566</ele>
        <time>2020-05-24T12:17:12Z</time>
      </trkpt>
      <trkpt lat="43.58403" lon="1.44319">
        <ele>202.596</ele>
        <time>2020-05-24T12:17:18Z</time>
      </trkpt>
      <trkpt lat="43.58403" lon="1.44301">
        <ele>202.627</ele>
        <time>2020-05-24T12:17:23Z</time>
      </trkpt>
      <trkpt lat="43.58404" lon="1.44275">
        <ele>202.672</ele>
        <time>2020-05-24T12:17:29Z</time>
      </trkpt>
      <trkpt lat="43.58406" lon="1.44246">
        <ele>202.916</ele>
        <time>2020-05-24T12:17:34Z</time>
      </trkpt>
      <trkpt lat="43.58408" lon="1.44214">
        <ele>202.933</ele>
        <time>2020-05-24T12:17:39Z</time>
      </trkpt>
      <trkpt lat="43.5841" lon="1.44178">
        <ele>202.96</ele>
        <time>2020-05-24T12:17:45Z</time>
      </trkpt>
      <trkpt lat="43.58412" lon="1.44146">
        <ele>202.972</ele>
        <time>2020-05-24T12:17:50Z</time>
      </trkpt>
      <trkpt lat="43.58412" lon="1.44116">
        <ele>202.961</ele>
        <time>2020-05-24T12:17:55Z</time>
      </trkpt>
      <trkpt lat="43.58414" lon="1.44079">
        <ele>202.922</ele>
        <time>2020-05-24T12:18:01Z</time>
      </trkpt>
      <trkpt lat="43.58416" lon="1.44041">
        <ele>202.954</ele>
        <time>2020-05-24T12:18:07Z</time>
      </trkpt>
      <trkpt lat="43.58418" lon="1.44006">
        <ele>202.972</ele>
        <time>2020-05-24T12:18:13Z</time>
      </trkpt>
      <trkpt lat="43.58418" lon="1.43978">
        <ele>202.962</ele>
        <time>2020-05-24T12:18:18Z</time>
      </trkpt>
      <trkpt lat="43.58418" lon="1.43944">
        <ele>202.975</ele>
        <time>2020-05-24T12:18:24Z</time>
      </trkpt>
      <trkpt lat="43.58419" lon="1.43908">
        <ele>203.106</ele>
        <time>2020-05-24T12:18:30Z</time>
      </trkpt>
      <trkpt lat="43.5842" lon="1.43871">
        <ele>203.174</ele>
        <time>2020-05-24T12:18:36Z</time>
      </trkpt>
      <trkpt lat="43.58421" lon="1.43841">
        <ele>203.23</ele>
        <time>2020-05-24T12:18:41Z</time>
      </trkpt>
      <trkpt lat="43.58424" lon="1.43806">
        <ele>203.336</ele>
        <time>2020-05-24T12:18:47Z</time>
      </trkpt>
      <trkpt lat="43.58424" lon="1.43775">
        <ele>203.523</ele>
        <time>2020-05-24T12:18:52Z</time>
      </trkpt>
      <trkpt lat="43.58426" lon="1.43739">
        <ele>203.778</ele>
        <time>2020-05-24T12:18:58Z</time>
      </trkpt>
      <trkpt lat="43.58426" lon="1.43702">
        <ele>203.855</ele>
        <time>2020-05-24T12:19:04Z</time>
      </trkpt>
      <trkpt lat="43.58428" lon="1.43663">
        <ele>203.908</ele>
        <time>2020-05-24T12:19:10Z</time>
      </trkpt>
      <trkpt lat="43.5843" lon="1.43628">
        <ele>203.911</ele>
        <time>2020-05-24T12:19:15Z</time>
      </trkpt>
      <trkpt lat="43.58433" lon="1.43593">
        <ele>203.923</ele>
        <time>2020-05-24T12:19:20Z</time>
      </trkpt>
      <trkpt lat="43.58437" lon="1.43555">
        <ele>204.009</ele>
        <time>2020-05-24T12:19:26Z</time>
      </trkpt>
      <trkpt lat="43.58439" lon="1.43509">
        <ele>204.03</ele>
        <time>2020-05-24T12:19:32Z</time>
      </trkpt>
      <trkpt lat="43.5844" lon="1.43469">
        <ele>204.087</ele>
        <time>2020-05-24T12:19:37Z</time>
      </trkpt>
      <trkpt lat="43.58442" lon="1.43429">
        <ele>204.087</ele>
        <time>2020-05-24T12:19:43Z</time>
      </trkpt>
      <trkpt lat="43.58443" lon="1.43395">
        <ele>204.068</ele>
        <time>2020-05-24T12:19:48Z</time>
      </trkpt>
      <trkpt lat="43.58444" lon="1.43353">
        <ele>204.08</ele>
        <time>2020-05-24T12:19:54Z</time>
      </trkpt>
      <trkpt lat="43.58446" lon="1.4331">
        <ele>204.097</ele>
        <time>2020-05-24T12:20:00Z</time>
      </trkpt>
      <trkpt lat="43.58447" lon="1.43275">
        <ele>204.03</ele>
        <time>2020-05-24T12:20:05Z</time>
      </trkpt>
      <trkpt lat="43.58449" lon="1.43239">
        <ele>203.936</ele>
        <time>2020-05-24T12:20:10Z</time>
      </trkpt>
      <trkpt lat="43.58452" lon="1.43197">
        <ele>203.899</ele>
        <time>2020-05-24T12:20:16Z</time>
      </trkpt>
      <trkpt lat="43.58455" lon="1.43156">
        <ele>203.954</ele>
        <time>2020-05-24T12:20:22Z</time>
      </trkpt>
      <trkpt lat="43.58457" lon="1.43123">
        <ele>203.99</ele>
        <time>2020-05-24T12:20:27Z</time>
      </trkpt>
      <trkpt lat="43.58463" lon="1.43083">
        <ele>203.959</ele>
        <time>2020-05-24T12:20:33Z</time>
      </trkpt>
      <trkpt lat="43.58471" lon="1.43044">
        <ele>203.97</ele>
        <time>2020-05-24T12:20:39Z</time>
      </trkpt>
      <trkpt lat="43.58476" lon="1.43014">
        <ele>204.023</ele>
        <time>2020-05-24T12:20:44Z</time>
      </trkpt>
      <trkpt lat="43.58481" lon="1.42983">
        <ele>204.067</ele>
        <time>2020-05-24T12:20:49Z</time>
      </trkpt>
      <trkpt lat="43.58486" lon="1.42954">
        <ele>204.087</ele>
        <time>2020-05-24T12:20:55Z</time>
      </trkpt>
      <trkpt lat="43.58488" lon="1.42937">
        <ele>204.076</ele>
        <time>2020-05-24T12:21:00Z</time>
      </trkpt>
      <trkpt lat="43.5849" lon="1.42926">
        <ele>204.055</ele>
        <time>2020-05-24T12:21:06Z</time>
      </trkpt>
      <trkpt lat="43.58502" lon="1.42935">
        <ele>203.971</ele>
        <time>2020-05-24T12:21:12Z</time>
      </trkpt>
      <trkpt lat="43.58526" lon="1.42949">
        <ele>203.704</ele>
        <time>2020-05-24T12:21:17Z</time>
      </trkpt>
      <trkpt lat="43.5854" lon="1.42958">
        <ele>203.69</ele>
        <time>2020-05-24T12:21:23Z</time>
      </trkpt>
      <trkpt lat="43.58561" lon="1.42965">
        <ele>203.697</ele>
        <time>2020-05-24T12:21:29Z</time>
      </trkpt>
      <trkpt lat="43.58586" lon="1.42982">
        <ele>203.729</ele>
        <time>2020-05-24T12:21:35Z</time>
      </trkpt>
      <trkpt lat="43.58615" lon="1.42997">
        <ele>203.761</ele>
        <time>2020-05-24T12:21:41Z</time>
      </trkpt>
      <trkpt lat="43.58645" lon="1.43015">
        <ele>203.773</ele>
        <time>2020-05-24T12:21:47Z</time>
      </trkpt>
      <trkpt lat="43.58671" lon="1.43041">
        <ele>203.749</ele>
        <time>2020-05-24T12:21:53Z</time>
      </trkpt>
      <trkpt lat="43.58701" lon="1.43063">
        <ele>203.724</ele>
        <time>2020-05-24T12:21:59Z</time>
      </trkpt>
      <trkpt lat="43.58727" lon="1.43086">
        <ele>203.687</ele>
        <time>2020-05-24T12:22:05Z</time>
      </trkpt>
      <trkpt lat="43.58747" lon="1.43101">
        <ele>203.667</ele>
        <time>2020-05-24T12:22:10Z</time>
      </trkpt>
      <trkpt lat="43.58773" lon="1.4312">
        <ele>203.674</ele>
        <time>2020-05-24T12:22:16Z</time>
      </trkpt>
      <trkpt lat="43.58795" lon="1.43135">
        <ele>203.688</ele>
        <time>2020-05-24T12:22:21Z</time>
      </trkpt>
      <trkpt lat="43.58816" lon="1.43151">
        <ele>203.701</ele>
        <time>2020-05-24T12:22:26Z</time>
      </trkpt>
      <trkpt lat="43.58841" lon="1.43173">
        <ele>203.694</ele>
        <time>2020-05-24T12:22:32Z</time>
      </trkpt>
      <trkpt lat="43.58865" lon="1.43194">
        <ele>203.678</ele>
        <time>2020-05-24T12:22:38Z</time>
      </trkpt>
      <trkpt lat="43.58888" lon="1.43213">
        <ele>203.658</ele>
        <time>2020-05-24T12:22:44Z</time>
      </trkpt>
      <trkpt lat="43.58912" lon="1.43231">
        <ele>203.632</ele>
        <time>2020-05-24T12:22:50Z</time>
      </trkpt>
      <trkpt lat="43.58934" lon="1.43248">
        <ele>203.626</ele>
        <time>2020-05-24T12:22:56Z</time>
      </trkpt>
      <trkpt lat="43.58956" lon="1.43268">
        <ele>203.643</ele>
        <time>2020-05-24T12:23:02Z</time>
      </trkpt>
      <trkpt lat="43.58976" lon="1.43288">
        <ele>203.615</ele>
        <time>2020-05-24T12:23:08Z</time>
      </trkpt>
      <trkpt lat="43.58995" lon="1.43302">
        <ele>203.569</ele>
        <time>2020-05-24T12:23:13Z</time>
      </trkpt>
      <trkpt lat="43.59019" lon="1.4332">
        <ele>203.518</ele>
        <time>2020-05-24T12:23:19Z</time>
      </trkpt>
      <trkpt lat="43.59039" lon="1.43336">
        <ele>203.473</ele>
        <time>2020-05-24T12:23:24Z</time>
      </trkpt>
      <trkpt lat="43.59064" lon="1.43356">
        <ele>203.45</ele>
        <time>2020-05-24T12:23:30Z</time>
      </trkpt>
      <trkpt lat="43.59088" lon="1.43379">
        <ele>203.468</ele>
        <time>2020-05-24T12:23:36Z</time>
      </trkpt>
      <trkpt lat="43.59111" lon="1.43395">
        <ele>203.449</ele>
        <time>2020-05-24T12:23:42Z</time>
      </trkpt>
      <trkpt lat="43.5913" lon="1.43411">
        <ele>203.445</ele>
        <time>2020-05-24T12:23:47Z</time>
      </trkpt>
      <trkpt lat="43.5915" lon="1.43429">
        <ele>203.45</ele>
        <time>2020-05-24T12:23:52Z</time>
      </trkpt>
      <trkpt lat="43.59171" lon="1.43447">
        <ele>203.437</ele>
        <time>2020-05-24T12:23:57Z</time>
      </trkpt>
      <trkpt lat="43.59194" lon="1.43468">
        <ele>203.428</ele>
        <time>2020-05-24T12:24:03Z</time>
      </trkpt>
      <trkpt lat="43.59212" lon="1.43483">
        <ele>203.412</ele>
        <time>2020-05-24T12:24:08Z</time>
      </trkpt>
      <trkpt lat="43.59232" lon="1.43497">
        <ele>203.424</ele>
        <time>2020-05-24T12:24:14Z</time>
      </trkpt>
      <trkpt lat="43.5925" lon="1.43502">
        <ele>203.423</ele>
        <time>2020-05-24T12:24:20Z</time>
      </trkpt>
      <trkpt lat="43.59256" lon="1.43502">
        <ele>203.423</ele>
        <time>2020-05-24T12:24:26Z</time>
      </trkpt>
      <trkpt lat="43.59259" lon="1.43501">
        <ele>203.438</ele>
        <time>2020-05-24T12:24:32Z</time>
      </trkpt>
      <trkpt lat="43.59258" lon="1.43501">
        <ele>203.443</ele>
        <time>2020-05-24T12:24:38Z</time>
      </trkpt>
      <trkpt lat="43.59265" lon="1.43504">
        <ele>203.462</ele>
        <time>2020-05-24T12:24:44Z</time>
      </trkpt>
      <trkpt lat="43.59279" lon="1.43499">
        <ele>203.469</ele>
        <time>2020-05-24T12:24:50Z</time>
      </trkpt>
      <trkpt lat="43.59284" lon="1.43495">
        <ele>203.473</ele>
        <time>2020-05-24T12:24:55Z</time>
      </trkpt>
      <trkpt lat="43.59285" lon="1.43494">
        <ele>203.474</ele>
        <time>2020-05-24T12:25:01Z</time>
      </trkpt>
      <trkpt lat="43.59285" lon="1.43493">
        <ele>203.475</ele>
        <time>2020-05-24T12:25:06Z</time>
      </trkpt>
      <trkpt lat="43.59288" lon="1.43493">
        <ele>203.469</ele>
        <time>2020-05-24T12:25:12Z</time>
      </trkpt>
      <trkpt lat="43.59296" lon="1.43499">
        <ele>203.459</ele>
        <time>2020-05-24T12:25:17Z</time>
      </trkpt>
      <trkpt lat="43.59329" lon="1.43508">
        <ele>203.311</ele>
        <time>2020-05-24T12:25:23Z</time>
      </trkpt>
      <trkpt lat="43.59359" lon="1.43525">
        <ele>203.154</ele>
        <time>2020-05-24T12:25:29Z</time>
      </trkpt>
      <trkpt lat="43.59388" lon="1.43529">
        <ele>203.081</ele>
        <time>2020-05-24T12:25:35Z</time>
      </trkpt>
      <trkpt lat="43.59415" lon="1.43535">
        <ele>203.003</ele>
        <time>2020-05-24T12:25:41Z</time>
      </trkpt>
      <trkpt lat="43.59441" lon="1.43548">
        <ele>202.933</ele>
        <time>2020-05-24T12:25:47Z</time>
      </trkpt>
      <trkpt lat="43.59462" lon="1.43557">
        <ele>202.873</ele>
        <time>2020-05-24T12:25:52Z</time>
      </trkpt>
      <trkpt lat="43.59491" lon="1.43568">
        <ele>202.775</ele>
        <time>2020-05-24T12:25:58Z</time>
      </trkpt>
      <trkpt lat="43.59521" lon="1.4358">
        <ele>202.7</ele>
        <time>2020-05-24T12:26:04Z</time>
      </trkpt>
      <trkpt lat="43.59545" lon="1.43595">
        <ele>202.658</ele>
        <time>2020-05-24T12:26:10Z</time>
      </trkpt>
      <trkpt lat="43.59568" lon="1.43609">
        <ele>202.611</ele>
        <time>2020-05-24T12:26:16Z</time>
      </trkpt>
      <trkpt lat="43.59593" lon="1.43614">
        <ele>202.595</ele>
        <time>2020-05-24T12:26:22Z</time>
      </trkpt>
      <trkpt lat="43.59616" lon="1.43618">
        <ele>202.575</ele>
        <time>2020-05-24T12:26:28Z</time>
      </trkpt>
      <trkpt lat="43.59636" lon="1.43626">
        <ele>202.561</ele>
        <time>2020-05-24T12:26:34Z</time>
      </trkpt>
      <trkpt lat="43.59656" lon="1.43634">
        <ele>202.544</ele>
        <time>2020-05-24T12:26:39Z</time>
      </trkpt>
      <trkpt lat="43.59673" lon="1.43642">
        <ele>202.519</ele>
        <time>2020-05-24T12:26:44Z</time>
      </trkpt>
      <trkpt lat="43.59697" lon="1.43657">
        <ele>202.484</ele>
        <time>2020-05-24T12:26:50Z</time>
      </trkpt>
      <trkpt lat="43.59716" lon="1.43669">
        <ele>202.448</ele>
        <time>2020-05-24T12:26:56Z</time>
      </trkpt>
      <trkpt lat="43.59736" lon="1.43682">
        <ele>202.408</ele>
        <time>2020-05-24T12:27:02Z</time>
      </trkpt>
      <trkpt lat="43.59753" lon="1.43686">
        <ele>202.378</ele>
        <time>2020-05-24T12:27:07Z</time>
      </trkpt>
      <trkpt lat="43.59772" lon="1.43694">
        <ele>202.341</ele>
        <time>2020-05-24T12:27:13Z</time>
      </trkpt>
      <trkpt lat="43.59791" lon="1.43702">
        <ele>202.306</ele>
        <time>2020-05-24T12:27:19Z</time>
      </trkpt>
      <trkpt lat="43.59804" lon="1.43705">
        <ele>202.276</ele>
        <time>2020-05-24T12:27:24Z</time>
      </trkpt>
      <trkpt lat="43.59819" lon="1.43712">
        <ele>202.238</ele>
        <time>2020-05-24T12:27:30Z</time>
      </trkpt>
      <trkpt lat="43.59832" lon="1.43717">
        <ele>202.2</ele>
        <time>2020-05-24T12:27:35Z</time>
      </trkpt>
      <trkpt lat="43.59846" lon="1.43725">
        <ele>202.158</ele>
        <time>2020-05-24T12:27:40Z</time>
      </trkpt>
      <trkpt lat="43.59861" lon="1.43733">
        <ele>202.119</ele>
        <time>2020-05-24T12:27:45Z</time>
      </trkpt>
      <trkpt lat="43.59875" lon="1.4374">
        <ele>202.079</ele>
        <time>2020-05-24T12:27:51Z</time>
      </trkpt>
      <trkpt lat="43.59888" lon="1.43738">
        <ele>202.042</ele>
        <time>2020-05-24T12:27:57Z</time>
      </trkpt>
      <trkpt lat="43.59887" lon="1.43715">
        <ele>202.002</ele>
        <time>2020-05-24T12:28:03Z</time>
      </trkpt>
      <trkpt lat="43.59883" lon="1.43691">
        <ele>201.969</ele>
        <time>2020-05-24T12:28:08Z</time>
      </trkpt>
      <trkpt lat="43.59883" lon="1.43677">
        <ele>201.936</ele>
        <time>2020-05-24T12:28:14Z</time>
      </trkpt>
      <trkpt lat="43.59887" lon="1.43665">
        <ele>201.911</ele>
        <time>2020-05-24T12:28:19Z</time>
      </trkpt>
      <trkpt lat="43.59884" lon="1.43645">
        <ele>201.888</ele>
        <time>2020-05-24T12:28:25Z</time>
      </trkpt>
      <trkpt lat="43.59879" lon="1.43616">
        <ele>201.778</ele>
        <time>2020-05-24T12:28:31Z</time>
      </trkpt>
      <trkpt lat="43.59876" lon="1.43585">
        <ele>201.749</ele>
        <time>2020-05-24T12:28:37Z</time>
      </trkpt>
      <trkpt lat="43.59871" lon="1.43556">
        <ele>201.74</ele>
        <time>2020-05-24T12:28:43Z</time>
      </trkpt>
      <trkpt lat="43.59867" lon="1.43528">
        <ele>201.72</ele>
        <time>2020-05-24T12:28:49Z</time>
      </trkpt>
      <trkpt lat="43.59863" lon="1.43502">
        <ele>201.697</ele>
        <time>2020-05-24T12:28:54Z</time>
      </trkpt>
      <trkpt lat="43.59857" lon="1.43466">
        <ele>201.573</ele>
        <time>2020-05-24T12:29:00Z</time>
      </trkpt>
      <trkpt lat="43.59855" lon="1.43428">
        <ele>201.501</ele>
        <time>2020-05-24T12:29:05Z</time>
      </trkpt>
      <trkpt lat="43.59854" lon="1.43416">
        <ele>201.497</ele>
        <time>2020-05-24T12:29:11Z</time>
      </trkpt>
      <trkpt lat="43.59851" lon="1.43394">
        <ele>201.495</ele>
        <time>2020-05-24T12:29:16Z</time>
      </trkpt>
      <trkpt lat="43.59848" lon="1.43357">
        <ele>201.488</ele>
        <time>2020-05-24T12:29:22Z</time>
      </trkpt>
      <trkpt lat="43.59843" lon="1.43321">
        <ele>201.456</ele>
        <time>2020-05-24T12:29:27Z</time>
      </trkpt>
      <trkpt lat="43.59834" lon="1.43278">
        <ele>201.424</ele>
        <time>2020-05-24T12:29:33Z</time>
      </trkpt>
      <trkpt lat="43.59829" lon="1.43242">
        <ele>201.397</ele>
        <time>2020-05-24T12:29:38Z</time>
      </trkpt>
      <trkpt lat="43.59822" lon="1.43202">
        <ele>201.337</ele>
        <time>2020-05-24T12:29:44Z</time>
      </trkpt>
      <trkpt lat="43.59819" lon="1.43171">
        <ele>201.304</ele>
        <time>2020-05-24T12:29:49Z</time>
      </trkpt>
      <trkpt lat="43.59812" lon="1.43144">
        <ele>201.296</ele>
        <time>2020-05-24T12:29:54Z</time>
      </trkpt>
      <trkpt lat="43.59805" lon="1.43116">
        <ele>201.298</ele>
        <time>2020-05-24T12:30:00Z</time>
      </trkpt>
      <trkpt lat="43.59804" lon="1.43094">
        <ele>201.301</ele>
        <time>2020-05-24T12:30:05Z</time>
      </trkpt>
      <trkpt lat="43.59812" lon="1.43075">
        <ele>201.3</ele>
        <time>2020-05-24T12:30:11Z</time>
      </trkpt>
      <trkpt lat="43.59831" lon="1.43062">
        <ele>201.286</ele>
        <time>2020-05-24T12:30:17Z</time>
      </trkpt>
      <trkpt lat="43.59849" lon="1.43055">
        <ele>201.273</ele>
        <time>2020-05-24T12:30:23Z</time>
      </trkpt>
      <trkpt lat="43.59871" lon="1.43043">
        <ele>201.21</ele>
        <time>2020-05-24T12:30:29Z</time>
      </trkpt>
      <trkpt lat="43.59885" lon="1.4303">
        <ele>201.202</ele>
        <time>2020-05-24T12:30:34Z</time>
      </trkpt>
      <trkpt lat="43.59898" lon="1.4302">
        <ele>201.188</ele>
        <time>2020-05-24T12:30:40Z</time>
      </trkpt>
      <trkpt lat="43.59909" lon="1.43012">
        <ele>201.175</ele>
        <time>2020-05-24T12:30:45Z</time>
      </trkpt>
      <trkpt lat="43.59928" lon="1.42995">
        <ele>201.106</ele>
        <time>2020-05-24T12:30:51Z</time>
      </trkpt>
      <trkpt lat="43.5995" lon="1.4298">
        <ele>201.058</ele>
        <time>2020-05-24T12:30:57Z</time>
      </trkpt>
      <trkpt lat="43.59972" lon="1.42964">
        <ele>200.995</ele>
        <time>2020-05-24T12:31:03Z</time>
      </trkpt>
      <trkpt lat="43.59995" lon="1.42947">
        <ele>200.988</ele>
        <time>2020-05-24T12:31:09Z</time>
      </trkpt>
      <trkpt lat="43.60017" lon="1.42929">
        <ele>200.97</ele>
        <time>2020-05-24T12:31:15Z</time>
      </trkpt>
      <trkpt lat="43.60039" lon="1.42912">
        <ele>200.928</ele>
        <time>2020-05-24T12:31:21Z</time>
      </trkpt>
      <trkpt lat="43.6006" lon="1.42894">
        <ele>200.84</ele>
        <time>2020-05-24T12:31:27Z</time>
      </trkpt>
      <trkpt lat="43.60078" lon="1.42883">
        <ele>200.802</ele>
        <time>2020-05-24T12:31:33Z</time>
      </trkpt>
      <trkpt lat="43.60089" lon="1.42875">
        <ele>200.761</ele>
        <time>2020-05-24T12:31:39Z</time>
      </trkpt>
      <trkpt lat="43.6009" lon="1.42874">
        <ele>200.743</ele>
        <time>2020-05-24T12:31:44Z</time>
      </trkpt>
      <trkpt lat="43.6009" lon="1.42874">
        <ele>200.738</ele>
        <time>2020-05-24T12:31:50Z</time>
      </trkpt>
      <trkpt lat="43.6009" lon="1.42874">
        <ele>200.735</ele>
        <time>2020-05-24T12:31:56Z</time>
      </trkpt>
      <trkpt lat="43.60091" lon="1.42874">
        <ele>200.733</ele>
        <time>2020-05-24T12:32:01Z</time>
      </trkpt>
      <trkpt lat="43.60091" lon="1.42874">
        <ele>200.735</ele>
        <time>2020-05-24T12:32:07Z</time>
      </trkpt>
      <trkpt lat="43.60091" lon="1.42874">
        <ele>200.737</ele>
        <time>2020-05-24T12:32:13Z</time>
      </trkpt>
      <trkpt lat="43.60092" lon="1.42874">
        <ele>200.737</ele>
        <time>2020-05-24T12:32:18Z</time>
      </trkpt>
      <trkpt lat="43.60092" lon="1.42874">
        <ele>200.736</ele>
        <time>2020-05-24T12:32:23Z</time>
      </trkpt>
      <trkpt lat="43.60092" lon="1.42874">
        <ele>200.733</ele>
        <time>2020-05-24T12:32:29Z</time>
      </trkpt>
      <trkpt lat="43.60093" lon="1.42873">
        <ele>200.732</ele>
        <time>2020-05-24T12:32:35Z</time>
      </trkpt>
      <trkpt lat="43.60093" lon="1.42873">
        <ele>200.731</ele>
        <time>2020-05-24T12:32:41Z</time>
      </trkpt>
      <trkpt lat="43.60093" lon="1.42873">
        <ele>200.732</ele>
        <time>2020-05-24T12:32:47Z</time>
      </trkpt>
      <trkpt lat="43.60093" lon="1.42873">
        <ele>200.733</ele>
        <time>2020-05-24T12:32:52Z</time>
      </trkpt>
      <trkpt lat="43.60093" lon="1.42873">
        <ele>200.733</ele>
        <time>2020-05-24T12:32:58Z</time>
      </trkpt>
      <trkpt lat="43.60093" lon="1.42873">
        <ele>200.73</ele>
        <time>2020-05-24T12:33:03Z</time>
      </trkpt>
      <trkpt lat="43.60094" lon="1.42873">
        <ele>200.725</ele>
        <time>2020-05-24T12:33:09Z</time>
      </trkpt>
      <trkpt lat="43.60095" lon="1.42872">
        <ele>200.711</ele>
        <time>2020-05-24T12:33:14Z</time>
      </trkpt>
      <trkpt lat="43.60101" lon="1.42876">
        <ele>200.661</ele>
        <time>2020-05-24T12:33:19Z</time>
      </trkpt>
      <trkpt lat="43.60111" lon="1.42876">
        <ele>200.591</ele>
        <time>2020-05-24T12:33:25Z</time>
      </trkpt>
      <trkpt lat="43.6012" lon="1.42876">
        <ele>200.534</ele>
        <time>2020-05-24T12:33:30Z</time>
      </trkpt>
      <trkpt lat="43.60134" lon="1.4287">
        <ele>200.506</ele>
        <time>2020-05-24T12:33:35Z</time>
      </trkpt>
      <trkpt lat="43.60149" lon="1.42858">
        <ele>200.487</ele>
        <time>2020-05-24T12:33:41Z</time>
      </trkpt>
      <trkpt lat="43.6016" lon="1.42846">
        <ele>200.476</ele>
        <time>2020-05-24T12:33:46Z</time>
      </trkpt>
      <trkpt lat="43.60172" lon="1.42837">
        <ele>200.477</ele>
        <time>2020-05-24T12:33:51Z</time>
      </trkpt>
      <trkpt lat="43.60177" lon="1.42817">
        <ele>200.492</ele>
        <time>2020-05-24T12:33:57Z</time>
      </trkpt>
      <trkpt lat="43.60195" lon="1.42753">
        <ele>200.572</ele>
        <time>2020-05-24T12:34:16Z</time>
      </trkpt>
      <trkpt lat="43.60198" lon="1.42766">
        <ele>200.571</ele>
        <time>2020-05-24T12:34:21Z</time>
      </trkpt>
      <trkpt lat="43.60207" lon="1.42764">
        <ele>200.575</ele>
        <time>2020-05-24T12:34:26Z</time>
      </trkpt>
      <trkpt lat="43.60209" lon="1.42748">
        <ele>200.608</ele>
        <time>2020-05-24T12:34:32Z</time>
      </trkpt>
      <trkpt lat="43.60211" lon="1.42739">
        <ele>200.644</ele>
        <time>2020-05-24T12:34:37Z</time>
      </trkpt>
      <trkpt lat="43.60211" lon="1.42718">
        <ele>200.619</ele>
        <time>2020-05-24T12:34:43Z</time>
      </trkpt>
      <trkpt lat="43.60209" lon="1.42681">
        <ele>200.004</ele>
        <time>2020-05-24T12:34:49Z</time>
      </trkpt>
      <trkpt lat="43.60241" lon="1.42651">
        <ele>199.512</ele>
        <time>2020-05-24T12:34:54Z</time>
      </trkpt>
      <trkpt lat="43.60255" lon="1.42626">
        <ele>199.039</ele>
        <time>2020-05-24T12:34:59Z</time>
      </trkpt>
      <trkpt lat="43.60266" lon="1.42595">
        <ele>198.349</ele>
        <time>2020-05-24T12:35:05Z</time>
      </trkpt>
      <trkpt lat="43.60272" lon="1.42569">
        <ele>197.875</ele>
        <time>2020-05-24T12:35:10Z</time>
      </trkpt>
      <trkpt lat="43.60281" lon="1.42541">
        <ele>196.993</ele>
        <time>2020-05-24T12:35:15Z</time>
      </trkpt>
      <trkpt lat="43.60289" lon="1.42517">
        <ele>195.703</ele>
        <time>2020-05-24T12:35:20Z</time>
      </trkpt>
      <trkpt lat="43.60296" lon="1.42488">
        <ele>195.128</ele>
        <time>2020-05-24T12:35:26Z</time>
      </trkpt>
      <trkpt lat="43.60306" lon="1.42454">
        <ele>194.991</ele>
        <time>2020-05-24T12:35:32Z</time>
      </trkpt>
      <trkpt lat="43.60314" lon="1.42422">
        <ele>195.705</ele>
        <time>2020-05-24T12:35:38Z</time>
      </trkpt>
      <trkpt lat="43.60321" lon="1.42389">
        <ele>196.027</ele>
        <time>2020-05-24T12:35:44Z</time>
      </trkpt>
      <trkpt lat="43.6033" lon="1.42354">
        <ele>196.135</ele>
        <time>2020-05-24T12:35:50Z</time>
      </trkpt>
      <trkpt lat="43.60339" lon="1.42318">
        <ele>196.221</ele>
        <time>2020-05-24T12:35:56Z</time>
      </trkpt>
      <trkpt lat="43.60347" lon="1.42289">
        <ele>196.336</ele>
        <time>2020-05-24T12:36:01Z</time>
      </trkpt>
      <trkpt lat="43.60351" lon="1.42257">
        <ele>196.428</ele>
        <time>2020-05-24T12:36:06Z</time>
      </trkpt>
      <trkpt lat="43.60358" lon="1.4222">
        <ele>196.495</ele>
        <time>2020-05-24T12:36:12Z</time>
      </trkpt>
      <trkpt lat="43.60364" lon="1.42189">
        <ele>196.493</ele>
        <time>2020-05-24T12:36:17Z</time>
      </trkpt>
      <trkpt lat="43.60371" lon="1.42154">
        <ele>196.503</ele>
        <time>2020-05-24T12:36:23Z</time>
      </trkpt>
      <trkpt lat="43.6038" lon="1.42115">
        <ele>196.474</ele>
        <time>2020-05-24T12:36:29Z</time>
      </trkpt>
      <trkpt lat="43.60389" lon="1.42076">
        <ele>196.418</ele>
        <time>2020-05-24T12:36:35Z</time>
      </trkpt>
      <trkpt lat="43.60398" lon="1.42043">
        <ele>196.405</ele>
        <time>2020-05-24T12:36:40Z</time>
      </trkpt>
      <trkpt lat="43.60405" lon="1.4201">
        <ele>196.479</ele>
        <time>2020-05-24T12:36:46Z</time>
      </trkpt>
      <trkpt lat="43.60412" lon="1.41982">
        <ele>196.557</ele>
        <time>2020-05-24T12:36:51Z</time>
      </trkpt>
      <trkpt lat="43.60422" lon="1.41951">
        <ele>196.55</ele>
        <time>2020-05-24T12:36:56Z</time>
      </trkpt>
      <trkpt lat="43.60434" lon="1.41915">
        <ele>196.503</ele>
        <time>2020-05-24T12:37:02Z</time>
      </trkpt>
      <trkpt lat="43.60443" lon="1.41881">
        <ele>196.451</ele>
        <time>2020-05-24T12:37:08Z</time>
      </trkpt>
      <trkpt lat="43.6045" lon="1.41853">
        <ele>196.43</ele>
        <time>2020-05-24T12:37:13Z</time>
      </trkpt>
      <trkpt lat="43.6046" lon="1.41823">
        <ele>196.366</ele>
        <time>2020-05-24T12:37:18Z</time>
      </trkpt>
      <trkpt lat="43.60473" lon="1.4179">
        <ele>196.296</ele>
        <time>2020-05-24T12:37:24Z</time>
      </trkpt>
      <trkpt lat="43.60483" lon="1.41763">
        <ele>196.195</ele>
        <time>2020-05-24T12:37:29Z</time>
      </trkpt>
      <trkpt lat="43.60496" lon="1.41732">
        <ele>196.236</ele>
        <time>2020-05-24T12:37:35Z</time>
      </trkpt>
      <trkpt lat="43.6051" lon="1.41699">
        <ele>196.382</ele>
        <time>2020-05-24T12:37:41Z</time>
      </trkpt>
      <trkpt lat="43.60526" lon="1.41667">
        <ele>196.551</ele>
        <time>2020-05-24T12:37:47Z</time>
      </trkpt>
      <trkpt lat="43.60541" lon="1.41636">
        <ele>196.654</ele>
        <time>2020-05-24T12:37:53Z</time>
      </trkpt>
      <trkpt lat="43.60557" lon="1.41606">
        <ele>196.788</ele>
        <time>2020-05-24T12:37:59Z</time>
      </trkpt>
      <trkpt lat="43.60573" lon="1.41578">
        <ele>196.861</ele>
        <time>2020-05-24T12:38:05Z</time>
      </trkpt>
      <trkpt lat="43.60586" lon="1.41554">
        <ele>196.905</ele>
        <time>2020-05-24T12:38:10Z</time>
      </trkpt>
      <trkpt lat="43.60602" lon="1.41527">
        <ele>197.116</ele>
        <time>2020-05-24T12:38:16Z</time>
      </trkpt>
      <trkpt lat="43.60614" lon="1.41506">
        <ele>197.213</ele>
        <time>2020-05-24T12:38:21Z</time>
      </trkpt>
      <trkpt lat="43.60629" lon="1.41481">
        <ele>197.294</ele>
        <time>2020-05-24T12:38:27Z</time>
      </trkpt>
      <trkpt lat="43.60646" lon="1.41455">
        <ele>197.317</ele>
        <time>2020-05-24T12:38:33Z</time>
      </trkpt>
      <trkpt lat="43.6066" lon="1.41433">
        <ele>197.306</ele>
        <time>2020-05-24T12:38:38Z</time>
      </trkpt>
      <trkpt lat="43.60676" lon="1.41407">
        <ele>197.28</ele>
        <time>2020-05-24T12:38:44Z</time>
      </trkpt>
      <trkpt lat="43.60689" lon="1.41383">
        <ele>197.267</ele>
        <time>2020-05-24T12:38:49Z</time>
      </trkpt>
      <trkpt lat="43.60706" lon="1.41351">
        <ele>197.192</ele>
        <time>2020-05-24T12:38:55Z</time>
      </trkpt>
      <trkpt lat="43.60728" lon="1.41316">
        <ele>197.191</ele>
        <time>2020-05-24T12:39:01Z</time>
      </trkpt>
      <trkpt lat="43.60748" lon="1.41282">
        <ele>197.154</ele>
        <time>2020-05-24T12:39:07Z</time>
      </trkpt>
      <trkpt lat="43.60767" lon="1.41253">
        <ele>197.124</ele>
        <time>2020-05-24T12:39:12Z</time>
      </trkpt>
      <trkpt lat="43.60785" lon="1.41223">
        <ele>197.074</ele>
        <time>2020-05-24T12:39:18Z</time>
      </trkpt>
      <trkpt lat="43.60792" lon="1.41202">
        <ele>197.042</ele>
        <time>2020-05-24T12:39:24Z</time>
      </trkpt>
      <trkpt lat="43.60796" lon="1.41192">
        <ele>197.004</ele>
        <time>2020-05-24T12:39:30Z</time>
      </trkpt>
      <trkpt lat="43.60797" lon="1.41192">
        <ele>196.999</ele>
        <time>2020-05-24T12:39:36Z</time>
      </trkpt>
      <trkpt lat="43.60797" lon="1.41193">
        <ele>196.994</ele>
        <time>2020-05-24T12:39:41Z</time>
      </trkpt>
      <trkpt lat="43.60796" lon="1.41193">
        <ele>196.939</ele>
        <time>2020-05-24T12:39:47Z</time>
      </trkpt>
      <trkpt lat="43.60795" lon="1.41192">
        <ele>196.934</ele>
        <time>2020-05-24T12:39:52Z</time>
      </trkpt>
      <trkpt lat="43.60799" lon="1.41191">
        <ele>196.897</ele>
        <time>2020-05-24T12:39:58Z</time>
      </trkpt>
      <trkpt lat="43.608" lon="1.41192">
        <ele>196.857</ele>
        <time>2020-05-24T12:40:04Z</time>
      </trkpt>
      <trkpt lat="43.608" lon="1.41194">
        <ele>196.833</ele>
        <time>2020-05-24T12:40:09Z</time>
      </trkpt>
      <trkpt lat="43.608" lon="1.41194">
        <ele>196.82</ele>
        <time>2020-05-24T12:40:15Z</time>
      </trkpt>
      <trkpt lat="43.608" lon="1.41194">
        <ele>196.805</ele>
        <time>2020-05-24T12:40:20Z</time>
      </trkpt>
      <trkpt lat="43.608" lon="1.41196">
        <ele>196.691</ele>
        <time>2020-05-24T12:40:26Z</time>
      </trkpt>
      <trkpt lat="43.608" lon="1.41195">
        <ele>196.669</ele>
        <time>2020-05-24T12:40:32Z</time>
      </trkpt>
      <trkpt lat="43.608" lon="1.41195">
        <ele>196.646</ele>
        <time>2020-05-24T12:40:38Z</time>
      </trkpt>
      <trkpt lat="43.608" lon="1.41195">
        <ele>196.627</ele>
        <time>2020-05-24T12:40:43Z</time>
      </trkpt>
      <trkpt lat="43.608" lon="1.41195">
        <ele>196.573</ele>
        <time>2020-05-24T12:40:49Z</time>
      </trkpt>
      <trkpt lat="43.608" lon="1.41195">
        <ele>196.555</ele>
        <time>2020-05-24T12:40:54Z</time>
      </trkpt>
      <trkpt lat="43.608" lon="1.41195">
        <ele>196.531</ele>
        <time>2020-05-24T12:41:00Z</time>
      </trkpt>
      <trkpt lat="43.608" lon="1.41195">
        <ele>196.51</ele>
        <time>2020-05-24T12:41:05Z</time>
      </trkpt>
      <trkpt lat="43.608" lon="1.41195">
        <ele>196.486</ele>
        <time>2020-05-24T12:41:11Z</time>
      </trkpt>
      <trkpt lat="43.60799" lon="1.41195">
        <ele>196.288</ele>
        <time>2020-05-24T12:41:16Z</time>
      </trkpt>
      <trkpt lat="43.60809" lon="1.4117">
        <ele>195.172</ele>
        <time>2020-05-24T12:41:21Z</time>
      </trkpt>
      <trkpt lat="43.60808" lon="1.41143">
        <ele>195.086</ele>
        <time>2020-05-24T12:41:27Z</time>
      </trkpt>
      <trkpt lat="43.60803" lon="1.41119">
        <ele>195.007</ele>
        <time>2020-05-24T12:41:33Z</time>
      </trkpt>
      <trkpt lat="43.60796" lon="1.41102">
        <ele>194.95</ele>
        <time>2020-05-24T12:41:38Z</time>
      </trkpt>
      <trkpt lat="43.60788" lon="1.41081">
        <ele>194.893</ele>
        <time>2020-05-24T12:41:44Z</time>
      </trkpt>
      <trkpt lat="43.60782" lon="1.41063">
        <ele>194.853</ele>
        <time>2020-05-24T12:41:49Z</time>
      </trkpt>
      <trkpt lat="43.60776" lon="1.41038">
        <ele>194.808</ele>
        <time>2020-05-24T12:41:55Z</time>
      </trkpt>
      <trkpt lat="43.60768" lon="1.41012">
        <ele>194.769</ele>
        <time>2020-05-24T12:42:01Z</time>
      </trkpt>
      <trkpt lat="43.60762" lon="1.40996">
        <ele>194.742</ele>
        <time>2020-05-24T12:42:06Z</time>
      </trkpt>
      <trkpt lat="43.60755" lon="1.40977">
        <ele>194.718</ele>
        <time>2020-05-24T12:42:11Z</time>
      </trkpt>
      <trkpt lat="43.60751" lon="1.40957">
        <ele>194.702</ele>
        <time>2020-05-24T12:42:17Z</time>
      </trkpt>
      <trkpt lat="43.60752" lon="1.4095">
        <ele>194.7</ele>
        <time>2020-05-24T12:42:22Z</time>
      </trkpt>
      <trkpt lat="43.60752" lon="1.4095">
        <ele>194.702</ele>
        <time>2020-05-24T12:42:27Z</time>
      </trkpt>
      <trkpt lat="43.60752" lon="1.4095">
        <ele>194.705</ele>
        <time>2020-05-24T12:42:33Z</time>
      </trkpt>
      <trkpt lat="43.60752" lon="1.4095">
        <ele>194.709</ele>
        <time>2020-05-24T12:42:39Z</time>
      </trkpt>
      <trkpt lat="43.60752" lon="1.4095">
        <ele>194.716</ele>
        <time>2020-05-24T12:42:44Z</time>
      </trkpt>
      <trkpt lat="43.60752" lon="1.4095">
        <ele>194.724</ele>
        <time>2020-05-24T12:42:50Z</time>
      </trkpt>
      <trkpt lat="43.60752" lon="1.40949">
        <ele>194.737</ele>
        <time>2020-05-24T12:42:56Z</time>
      </trkpt>
      <trkpt lat="43.60752" lon="1.4095">
        <ele>194.741</ele>
        <time>2020-05-24T12:43:02Z</time>
      </trkpt>
      <trkpt lat="43.60752" lon="1.4095">
        <ele>194.746</ele>
        <time>2020-05-24T12:43:08Z</time>
      </trkpt>
      <trkpt lat="43.60753" lon="1.40952">
        <ele>194.753</ele>
        <time>2020-05-24T12:43:14Z</time>
      </trkpt>
      <trkpt lat="43.60752" lon="1.40952">
        <ele>194.76</ele>
        <time>2020-05-24T12:43:19Z</time>
      </trkpt>
      <trkpt lat="43.60752" lon="1.40952">
        <ele>194.782</ele>
        <time>2020-05-24T12:43:24Z</time>
      </trkpt>
      <trkpt lat="43.60752" lon="1.4095">
        <ele>194.849</ele>
        <time>2020-05-24T12:43:30Z</time>
      </trkpt>
      <trkpt lat="43.60754" lon="1.40946">
        <ele>194.91</ele>
        <time>2020-05-24T12:43:35Z</time>
      </trkpt>
      <trkpt lat="43.60754" lon="1.40945">
        <ele>194.996</ele>
        <time>2020-05-24T12:43:41Z</time>
      </trkpt>
      <trkpt lat="43.60754" lon="1.40945">
        <ele>195.027</ele>
        <time>2020-05-24T12:43:46Z</time>
      </trkpt>
      <trkpt lat="43.60754" lon="1.40945">
        <ele>195.034</ele>
        <time>2020-05-24T12:43:51Z</time>
      </trkpt>
      <trkpt lat="43.60753" lon="1.40946">
        <ele>195.043</ele>
        <time>2020-05-24T12:43:57Z</time>
      </trkpt>
      <trkpt lat="43.60753" lon="1.40946">
        <ele>195.051</ele>
        <time>2020-05-24T12:44:02Z</time>
      </trkpt>
      <trkpt lat="43.60753" lon="1.40946">
        <ele>195.06</ele>
        <time>2020-05-24T12:44:08Z</time>
      </trkpt>
      <trkpt lat="43.60752" lon="1.40946">
        <ele>195.068</ele>
        <time>2020-05-24T12:44:13Z</time>
      </trkpt>
      <trkpt lat="43.60752" lon="1.40946">
        <ele>195.076</ele>
        <time>2020-05-24T12:44:19Z</time>
      </trkpt>
      <trkpt lat="43.60752" lon="1.40946">
        <ele>195.083</ele>
        <time>2020-05-24T12:44:24Z</time>
      </trkpt>
      <trkpt lat="43.60752" lon="1.40946">
        <ele>195.091</ele>
        <time>2020-05-24T12:44:30Z</time>
      </trkpt>
      <trkpt lat="43.60753" lon="1.40946">
        <ele>195.097</ele>
        <time>2020-05-24T12:44:36Z</time>
      </trkpt>
      <trkpt lat="43.60752" lon="1.40946">
        <ele>195.107</ele>
        <time>2020-05-24T12:44:41Z</time>
      </trkpt>
      <trkpt lat="43.6075" lon="1.40947">
        <ele>195.14</ele>
        <time>2020-05-24T12:44:46Z</time>
      </trkpt>
      <trkpt lat="43.60751" lon="1.40947">
        <ele>195.16</ele>
        <time>2020-05-24T12:44:52Z</time>
      </trkpt>
      <trkpt lat="43.60752" lon="1.40928">
        <ele>195.202</ele>
        <time>2020-05-24T12:44:58Z</time>
      </trkpt>
      <trkpt lat="43.60755" lon="1.40907">
        <ele>195.341</ele>
        <time>2020-05-24T12:45:04Z</time>
      </trkpt>
      <trkpt lat="43.6077" lon="1.40869">
        <ele>195.448</ele>
        <time>2020-05-24T12:45:10Z</time>
      </trkpt>
      <trkpt lat="43.6079" lon="1.40856">
        <ele>195.459</ele>
        <time>2020-05-24T12:45:16Z</time>
      </trkpt>
      <trkpt lat="43.6079" lon="1.40848">
        <ele>195.468</ele>
        <time>2020-05-24T12:45:21Z</time>
      </trkpt>
      <trkpt lat="43.60787" lon="1.40858">
        <ele>195.478</ele>
        <time>2020-05-24T12:45:27Z</time>
      </trkpt>
      <trkpt lat="43.60786" lon="1.40869">
        <ele>195.49</ele>
        <time>2020-05-24T12:45:33Z</time>
      </trkpt>
      <trkpt lat="43.60788" lon="1.40879">
        <ele>195.502</ele>
        <time>2020-05-24T12:45:39Z</time>
      </trkpt>
      <trkpt lat="43.60795" lon="1.40885">
        <ele>195.515</ele>
        <time>2020-05-24T12:45:45Z</time>
      </trkpt>
      <trkpt lat="43.60801" lon="1.40883">
        <ele>195.527</ele>
        <time>2020-05-24T12:45:51Z</time>
      </trkpt>
      <trkpt lat="43.60804" lon="1.40895">
        <ele>195.537</ele>
        <time>2020-05-24T12:45:56Z</time>
      </trkpt>
      <trkpt lat="43.60817" lon="1.40923">
        <ele>195.608</ele>
        <time>2020-05-24T12:46:02Z</time>
      </trkpt>
      <trkpt lat="43.6083" lon="1.40949">
        <ele>195.627</ele>
        <time>2020-05-24T12:46:08Z</time>
      </trkpt>
      <trkpt lat="43.60845" lon="1.40979">
        <ele>195.617</ele>
        <time>2020-05-24T12:46:14Z</time>
      </trkpt>
      <trkpt lat="43.60857" lon="1.41007">
        <ele>195.62</ele>
        <time>2020-05-24T12:46:20Z</time>
      </trkpt>
      <trkpt lat="43.60867" lon="1.41021">
        <ele>195.621</ele>
        <time>2020-05-24T12:46:25Z</time>
      </trkpt>
      <trkpt lat="43.60871" lon="1.41024">
        <ele>195.618</ele>
        <time>2020-05-24T12:46:31Z</time>
      </trkpt>
      <trkpt lat="43.60871" lon="1.41024">
        <ele>195.617</ele>
        <time>2020-05-24T12:46:36Z</time>
      </trkpt>
      <trkpt lat="43.60871" lon="1.41024">
        <ele>195.616</ele>
        <time>2020-05-24T12:46:41Z</time>
      </trkpt>
      <trkpt lat="43.60871" lon="1.41024">
        <ele>195.614</ele>
        <time>2020-05-24T12:46:47Z</time>
      </trkpt>
      <trkpt lat="43.60871" lon="1.41024">
        <ele>195.613</ele>
        <time>2020-05-24T12:46:52Z</time>
      </trkpt>
      <trkpt lat="43.60871" lon="1.41024">
        <ele>195.612</ele>
        <time>2020-05-24T12:46:57Z</time>
      </trkpt>
      <trkpt lat="43.60871" lon="1.41024">
        <ele>195.611</ele>
        <time>2020-05-24T12:47:03Z</time>
      </trkpt>
      <trkpt lat="43.60871" lon="1.41025">
        <ele>195.611</ele>
        <time>2020-05-24T12:47:08Z</time>
      </trkpt>
      <trkpt lat="43.60871" lon="1.41025">
        <ele>195.611</ele>
        <time>2020-05-24T12:47:14Z</time>
      </trkpt>
      <trkpt lat="43.60871" lon="1.41025">
        <ele>195.611</ele>
        <time>2020-05-24T12:47:20Z</time>
      </trkpt>
      <trkpt lat="43.60871" lon="1.41025">
        <ele>195.612</ele>
        <time>2020-05-24T12:47:25Z</time>
      </trkpt>
      <trkpt lat="43.6087" lon="1.41025">
        <ele>195.614</ele>
        <time>2020-05-24T12:47:31Z</time>
      </trkpt>
      <trkpt lat="43.6087" lon="1.41027">
        <ele>195.613</ele>
        <time>2020-05-24T12:47:36Z</time>
      </trkpt>
      <trkpt lat="43.6087" lon="1.41027">
        <ele>195.609</ele>
        <time>2020-05-24T12:47:42Z</time>
      </trkpt>
      <trkpt lat="43.6087" lon="1.41026">
        <ele>195.607</ele>
        <time>2020-05-24T12:47:47Z</time>
      </trkpt>
      <trkpt lat="43.6087" lon="1.41027">
        <ele>195.589</ele>
        <time>2020-05-24T12:47:52Z</time>
      </trkpt>
      <trkpt lat="43.60871" lon="1.4104">
        <ele>195.562</ele>
        <time>2020-05-24T12:47:58Z</time>
      </trkpt>
      <trkpt lat="43.60866" lon="1.41057">
        <ele>195.541</ele>
        <time>2020-05-24T12:48:03Z</time>
      </trkpt>
      <trkpt lat="43.60853" lon="1.4109">
        <ele>195.478</ele>
        <time>2020-05-24T12:48:09Z</time>
      </trkpt>
      <trkpt lat="43.60845" lon="1.41126">
        <ele>195.456</ele>
        <time>2020-05-24T12:48:15Z</time>
      </trkpt>
      <trkpt lat="43.60844" lon="1.41132">
        <ele>195.439</ele>
        <time>2020-05-24T12:48:21Z</time>
      </trkpt>
      <trkpt lat="43.60838" lon="1.41132">
        <ele>195.419</ele>
        <time>2020-05-24T12:48:27Z</time>
      </trkpt>
      <trkpt lat="43.60837" lon="1.41127">
        <ele>195.405</ele>
        <time>2020-05-24T12:48:33Z</time>
      </trkpt>
      <trkpt lat="43.60831" lon="1.41105">
        <ele>195.392</ele>
        <time>2020-05-24T12:48:39Z</time>
      </trkpt>
      <trkpt lat="43.60825" lon="1.41095">
        <ele>195.381</ele>
        <time>2020-05-24T12:48:44Z</time>
      </trkpt>
      <trkpt lat="43.60821" lon="1.4109">
        <ele>195.375</ele>
        <time>2020-05-24T12:48:50Z</time>
      </trkpt>
      <trkpt lat="43.60821" lon="1.41088">
        <ele>195.367</ele>
        <time>2020-05-24T12:48:56Z</time>
      </trkpt>
      <trkpt lat="43.60821" lon="1.41088">
        <ele>195.361</ele>
        <time>2020-05-24T12:49:02Z</time>
      </trkpt>
      <trkpt lat="43.60823" lon="1.41086">
        <ele>195.355</ele>
        <time>2020-05-24T12:49:08Z</time>
      </trkpt>
      <trkpt lat="43.60825" lon="1.41082">
        <ele>195.357</ele>
        <time>2020-05-24T12:49:13Z</time>
      </trkpt>
      <trkpt lat="43.6083" lon="1.41085">
        <ele>195.368</ele>
        <time>2020-05-24T12:49:19Z</time>
      </trkpt>
      <trkpt lat="43.60832" lon="1.41087">
        <ele>195.378</ele>
        <time>2020-05-24T12:49:25Z</time>
      </trkpt>
      <trkpt lat="43.60832" lon="1.41086">
        <ele>195.397</ele>
        <time>2020-05-24T12:49:31Z</time>
      </trkpt>
      <trkpt lat="43.60831" lon="1.41086">
        <ele>195.41</ele>
        <time>2020-05-24T12:49:36Z</time>
      </trkpt>
      <trkpt lat="43.60831" lon="1.41086">
        <ele>195.419</ele>
        <time>2020-05-24T12:49:42Z</time>
      </trkpt>
      <trkpt lat="43.60831" lon="1.41085">
        <ele>195.459</ele>
        <time>2020-05-24T12:49:48Z</time>
      </trkpt>
      <trkpt lat="43.60834" lon="1.41083">
        <ele>195.496</ele>
        <time>2020-05-24T12:49:54Z</time>
      </trkpt>
      <trkpt lat="43.60835" lon="1.41083">
        <ele>195.513</ele>
        <time>2020-05-24T12:50:00Z</time>
      </trkpt>
      <trkpt lat="43.60835" lon="1.41082">
        <ele>195.518</ele>
        <time>2020-05-24T12:50:06Z</time>
      </trkpt>
      <trkpt lat="43.60835" lon="1.41082">
        <ele>195.522</ele>
        <time>2020-05-24T12:50:11Z</time>
      </trkpt>
      <trkpt lat="43.60841" lon="1.41094">
        <ele>195.567</ele>
        <time>2020-05-24T12:50:17Z</time>
      </trkpt>
      <trkpt lat="43.60852" lon="1.41116">
        <ele>195.61</ele>
        <time>2020-05-24T12:50:22Z</time>
      </trkpt>
      <trkpt lat="43.60863" lon="1.41137">
        <ele>195.67</ele>
        <time>2020-05-24T12:50:28Z</time>
      </trkpt>
      <trkpt lat="43.60876" lon="1.41163">
        <ele>195.73</ele>
        <time>2020-05-24T12:50:34Z</time>
      </trkpt>
      <trkpt lat="43.60886" lon="1.41187">
        <ele>195.783</ele>
        <time>2020-05-24T12:50:39Z</time>
      </trkpt>
      <trkpt lat="43.60898" lon="1.41213">
        <ele>196.072</ele>
        <time>2020-05-24T12:50:45Z</time>
      </trkpt>
      <trkpt lat="43.60913" lon="1.41241">
        <ele>196.283</ele>
        <time>2020-05-24T12:50:51Z</time>
      </trkpt>
      <trkpt lat="43.60923" lon="1.41264">
        <ele>196.311</ele>
        <time>2020-05-24T12:50:56Z</time>
      </trkpt>
      <trkpt lat="43.60932" lon="1.41285">
        <ele>196.316</ele>
        <time>2020-05-24T12:51:01Z</time>
      </trkpt>
      <trkpt lat="43.60937" lon="1.41298">
        <ele>196.327</ele>
        <time>2020-05-24T12:51:07Z</time>
      </trkpt>
      <trkpt lat="43.60938" lon="1.41302">
        <ele>196.34</ele>
        <time>2020-05-24T12:51:12Z</time>
      </trkpt>
      <trkpt lat="43.60937" lon="1.41305">
        <ele>196.358</ele>
        <time>2020-05-24T12:51:17Z</time>
      </trkpt>
      <trkpt lat="43.60935" lon="1.41307">
        <ele>196.375</ele>
        <time>2020-05-24T12:51:23Z</time>
      </trkpt>
      <trkpt lat="43.60933" lon="1.41309">
        <ele>196.387</ele>
        <time>2020-05-24T12:51:28Z</time>
      </trkpt>
      <trkpt lat="43.60927" lon="1.41316">
        <ele>196.397</ele>
        <time>2020-05-24T12:51:34Z</time>
      </trkpt>
      <trkpt lat="43.60925" lon="1.41318">
        <ele>196.402</ele>
        <time>2020-05-24T12:51:40Z</time>
      </trkpt>
      <trkpt lat="43.60925" lon="1.41318">
        <ele>196.403</ele>
        <time>2020-05-24T12:51:46Z</time>
      </trkpt>
      <trkpt lat="43.60925" lon="1.41318">
        <ele>196.402</ele>
        <time>2020-05-24T12:51:51Z</time>
      </trkpt>
      <trkpt lat="43.60923" lon="1.4132">
        <ele>196.401</ele>
        <time>2020-05-24T12:51:56Z</time>
      </trkpt>
      <trkpt lat="43.60922" lon="1.41323">
        <ele>196.403</ele>
        <time>2020-05-24T12:52:02Z</time>
      </trkpt>
      <trkpt lat="43.60917" lon="1.41334">
        <ele>196.408</ele>
        <time>2020-05-24T12:52:08Z</time>
      </trkpt>
      <trkpt lat="43.60909" lon="1.41348">
        <ele>196.414</ele>
        <time>2020-05-24T12:52:13Z</time>
      </trkpt>
      <trkpt lat="43.60901" lon="1.41363">
        <ele>196.424</ele>
        <time>2020-05-24T12:52:19Z</time>
      </trkpt>
      <trkpt lat="43.60905" lon="1.4136">
        <ele>196.433</ele>
        <time>2020-05-24T12:52:24Z</time>
      </trkpt>
      <trkpt lat="43.60917" lon="1.41348">
        <ele>196.44</ele>
        <time>2020-05-24T12:52:30Z</time>
      </trkpt>
      <trkpt lat="43.60927" lon="1.41355">
        <ele>196.449</ele>
        <time>2020-05-24T12:52:36Z</time>
      </trkpt>
      <trkpt lat="43.60935" lon="1.41377">
        <ele>196.459</ele>
        <time>2020-05-24T12:52:42Z</time>
      </trkpt>
      <trkpt lat="43.60943" lon="1.41392">
        <ele>196.463</ele>
        <time>2020-05-24T12:52:47Z</time>
      </trkpt>
      <trkpt lat="43.60958" lon="1.41415">
        <ele>196.469</ele>
        <time>2020-05-24T12:52:53Z</time>
      </trkpt>
      <trkpt lat="43.60967" lon="1.41432">
        <ele>196.475</ele>
        <time>2020-05-24T12:52:58Z</time>
      </trkpt>
      <trkpt lat="43.60974" lon="1.41449">
        <ele>196.478</ele>
        <time>2020-05-24T12:53:04Z</time>
      </trkpt>
      <trkpt lat="43.60978" lon="1.41472">
        <ele>196.481</ele>
        <time>2020-05-24T12:53:09Z</time>
      </trkpt>
      <trkpt lat="43.60983" lon="1.4149">
        <ele>196.486</ele>
        <time>2020-05-24T12:53:15Z</time>
      </trkpt>
      <trkpt lat="43.60985" lon="1.41493">
        <ele>196.485</ele>
        <time>2020-05-24T12:53:21Z</time>
      </trkpt>
      <trkpt lat="43.60986" lon="1.41495">
        <ele>196.485</ele>
        <time>2020-05-24T12:53:26Z</time>
      </trkpt>
      <trkpt lat="43.60994" lon="1.41498">
        <ele>196.485</ele>
        <time>2020-05-24T12:53:34Z</time>
      </trkpt>
      <trkpt lat="43.61007" lon="1.41491">
        <ele>196.483</ele>
        <time>2020-05-24T12:53:39Z</time>
      </trkpt>
      <trkpt lat="43.61029" lon="1.41484">
        <ele>196.48</ele>
        <time>2020-05-24T12:53:45Z</time>
      </trkpt>
      <trkpt lat="43.61042" lon="1.41462">
        <ele>196.486</ele>
        <time>2020-05-24T12:53:52Z</time>
      </trkpt>
      <trkpt lat="43.61057" lon="1.41457">
        <ele>196.487</ele>
        <time>2020-05-24T12:53:58Z</time>
      </trkpt>
      <trkpt lat="43.61067" lon="1.41434">
        <ele>196.488</ele>
        <time>2020-05-24T12:54:03Z</time>
      </trkpt>
      <trkpt lat="43.6109" lon="1.4143">
        <ele>196.487</ele>
        <time>2020-05-24T12:54:09Z</time>
      </trkpt>
      <trkpt lat="43.61111" lon="1.41437">
        <ele>196.492</ele>
        <time>2020-05-24T12:54:14Z</time>
      </trkpt>
      <trkpt lat="43.61128" lon="1.41459">
        <ele>196.546</ele>
        <time>2020-05-24T12:54:20Z</time>
      </trkpt>
      <trkpt lat="43.61134" lon="1.41474">
        <ele>196.554</ele>
        <time>2020-05-24T12:54:25Z</time>
      </trkpt>
      <trkpt lat="43.61137" lon="1.41479">
        <ele>196.562</ele>
        <time>2020-05-24T12:54:31Z</time>
      </trkpt>
      <trkpt lat="43.61137" lon="1.41479">
        <ele>196.562</ele>
        <time>2020-05-24T12:54:37Z</time>
      </trkpt>
      <trkpt lat="43.61137" lon="1.41479">
        <ele>196.562</ele>
        <time>2020-05-24T12:54:42Z</time>
      </trkpt>
      <trkpt lat="43.61137" lon="1.41478">
        <ele>196.558</ele>
        <time>2020-05-24T12:54:48Z</time>
      </trkpt>
      <trkpt lat="43.61139" lon="1.4148">
        <ele>196.553</ele>
        <time>2020-05-24T12:54:53Z</time>
      </trkpt>
      <trkpt lat="43.61139" lon="1.4148">
        <ele>196.551</ele>
        <time>2020-05-24T12:54:58Z</time>
      </trkpt>
      <trkpt lat="43.61139" lon="1.4148">
        <ele>196.55</ele>
        <time>2020-05-24T12:55:04Z</time>
      </trkpt>
      <trkpt lat="43.61139" lon="1.41481">
        <ele>196.548</ele>
        <time>2020-05-24T12:55:10Z</time>
      </trkpt>
      <trkpt lat="43.61139" lon="1.41481">
        <ele>196.547</ele>
        <time>2020-05-24T12:55:16Z</time>
      </trkpt>
      <trkpt lat="43.61139" lon="1.41481">
        <ele>196.545</ele>
        <time>2020-05-24T12:55:21Z</time>
      </trkpt>
      <trkpt lat="43.61139" lon="1.41481">
        <ele>196.542</ele>
        <time>2020-05-24T12:55:27Z</time>
      </trkpt>
      <trkpt lat="43.6114" lon="1.41481">
        <ele>196.538</ele>
        <time>2020-05-24T12:55:33Z</time>
      </trkpt>
      <trkpt lat="43.6114" lon="1.41482">
        <ele>196.531</ele>
        <time>2020-05-24T12:55:39Z</time>
      </trkpt>
      <trkpt lat="43.61141" lon="1.41482">
        <ele>196.529</ele>
        <time>2020-05-24T12:55:44Z</time>
      </trkpt>
      <trkpt lat="43.61141" lon="1.4148">
        <ele>196.513</ele>
        <time>2020-05-24T12:55:49Z</time>
      </trkpt>
      <trkpt lat="43.61141" lon="1.4148">
        <ele>196.503</ele>
        <time>2020-05-24T12:55:54Z</time>
      </trkpt>
      <trkpt lat="43.61141" lon="1.41481">
        <ele>196.493</ele>
        <time>2020-05-24T12:56:00Z</time>
      </trkpt>
      <trkpt lat="43.61141" lon="1.41481">
        <ele>196.48</ele>
        <time>2020-05-24T12:56:05Z</time>
      </trkpt>
      <trkpt lat="43.6114" lon="1.41482">
        <ele>196.462</ele>
        <time>2020-05-24T12:56:11Z</time>
      </trkpt>
      <trkpt lat="43.6114" lon="1.41481">
        <ele>196.438</ele>
        <time>2020-05-24T12:56:16Z</time>
      </trkpt>
      <trkpt lat="43.61141" lon="1.4148">
        <ele>196.435</ele>
        <time>2020-05-24T12:56:22Z</time>
      </trkpt>
      <trkpt lat="43.61141" lon="1.4148">
        <ele>196.432</ele>
        <time>2020-05-24T12:56:28Z</time>
      </trkpt>
      <trkpt lat="43.6114" lon="1.4148">
        <ele>196.423</ele>
        <time>2020-05-24T12:56:34Z</time>
      </trkpt>
      <trkpt lat="43.6114" lon="1.4148">
        <ele>196.419</ele>
        <time>2020-05-24T12:56:40Z</time>
      </trkpt>
      <trkpt lat="43.6114" lon="1.4148">
        <ele>196.415</ele>
        <time>2020-05-24T12:56:45Z</time>
      </trkpt>
      <trkpt lat="43.6114" lon="1.41479">
        <ele>196.405</ele>
        <time>2020-05-24T12:56:50Z</time>
      </trkpt>
      <trkpt lat="43.61141" lon="1.41479">
        <ele>196.401</ele>
        <time>2020-05-24T12:56:56Z</time>
      </trkpt>
      <trkpt lat="43.61141" lon="1.41479">
        <ele>196.398</ele>
        <time>2020-05-24T12:57:01Z</time>
      </trkpt>
      <trkpt lat="43.61139" lon="1.41481">
        <ele>196.38</ele>
        <time>2020-05-24T12:57:07Z</time>
      </trkpt>
      <trkpt lat="43.61129" lon="1.41477">
        <ele>196.356</ele>
        <time>2020-05-24T12:57:12Z</time>
      </trkpt>
      <trkpt lat="43.61122" lon="1.41486">
        <ele>196.26</ele>
        <time>2020-05-24T12:57:17Z</time>
      </trkpt>
      <trkpt lat="43.611" lon="1.41499">
        <ele>196.244</ele>
        <time>2020-05-24T12:57:23Z</time>
      </trkpt>
      <trkpt lat="43.61091" lon="1.41494">
        <ele>196.231</ele>
        <time>2020-05-24T12:57:28Z</time>
      </trkpt>
      <trkpt lat="43.61077" lon="1.41484">
        <ele>196.213</ele>
        <time>2020-05-24T12:57:33Z</time>
      </trkpt>
      <trkpt lat="43.6106" lon="1.41484">
        <ele>196.188</ele>
        <time>2020-05-24T12:57:39Z</time>
      </trkpt>
      <trkpt lat="43.61045" lon="1.41497">
        <ele>196.083</ele>
        <time>2020-05-24T12:57:45Z</time>
      </trkpt>
      <trkpt lat="43.61036" lon="1.41513">
        <ele>196.073</ele>
        <time>2020-05-24T12:57:50Z</time>
      </trkpt>
      <trkpt lat="43.61049" lon="1.41533">
        <ele>196.057</ele>
        <time>2020-05-24T12:57:56Z</time>
      </trkpt>
      <trkpt lat="43.61062" lon="1.41558">
        <ele>196.04</ele>
        <time>2020-05-24T12:58:02Z</time>
      </trkpt>
      <trkpt lat="43.61072" lon="1.41585">
        <ele>195.962</ele>
        <time>2020-05-24T12:58:08Z</time>
      </trkpt>
      <trkpt lat="43.61077" lon="1.4161">
        <ele>195.803</ele>
        <time>2020-05-24T12:58:13Z</time>
      </trkpt>
      <trkpt lat="43.61086" lon="1.41639">
        <ele>195.772</ele>
        <time>2020-05-24T12:58:19Z</time>
      </trkpt>
      <trkpt lat="43.61094" lon="1.41666">
        <ele>195.69</ele>
        <time>2020-05-24T12:58:25Z</time>
      </trkpt>
      <trkpt lat="43.61103" lon="1.41691">
        <ele>195.559</ele>
        <time>2020-05-24T12:58:31Z</time>
      </trkpt>
      <trkpt lat="43.61109" lon="1.41714">
        <ele>195.433</ele>
        <time>2020-05-24T12:58:37Z</time>
      </trkpt>
      <trkpt lat="43.61115" lon="1.41733">
        <ele>195.323</ele>
        <time>2020-05-24T12:58:43Z</time>
      </trkpt>
      <trkpt lat="43.61123" lon="1.41735">
        <ele>195.242</ele>
        <time>2020-05-24T12:58:48Z</time>
      </trkpt>
      <trkpt lat="43.61136" lon="1.41733">
        <ele>195.166</ele>
        <time>2020-05-24T12:58:53Z</time>
      </trkpt>
      <trkpt lat="43.61157" lon="1.4173">
        <ele>195.078</ele>
        <time>2020-05-24T12:58:59Z</time>
      </trkpt>
      <trkpt lat="43.61175" lon="1.41736">
        <ele>195.013</ele>
        <time>2020-05-24T12:59:04Z</time>
      </trkpt>
      <trkpt lat="43.61192" lon="1.41747">
        <ele>194.949</ele>
        <time>2020-05-24T12:59:10Z</time>
      </trkpt>
      <trkpt lat="43.61196" lon="1.41766">
        <ele>194.893</ele>
        <time>2020-05-24T12:59:16Z</time>
      </trkpt>
      <trkpt lat="43.61194" lon="1.41783">
        <ele>194.851</ele>
        <time>2020-05-24T12:59:21Z</time>
      </trkpt>
      <trkpt lat="43.61195" lon="1.41795">
        <ele>194.813</ele>
        <time>2020-05-24T12:59:27Z</time>
      </trkpt>
      <trkpt lat="43.61197" lon="1.41802">
        <ele>194.777</ele>
        <time>2020-05-24T12:59:32Z</time>
      </trkpt>
      <trkpt lat="43.61203" lon="1.41807">
        <ele>194.728</ele>
        <time>2020-05-24T12:59:38Z</time>
      </trkpt>
      <trkpt lat="43.61213" lon="1.41813">
        <ele>194.681</ele>
        <time>2020-05-24T12:59:44Z</time>
      </trkpt>
      <trkpt lat="43.61231" lon="1.41818">
        <ele>194.639</ele>
        <time>2020-05-24T12:59:50Z</time>
      </trkpt>
      <trkpt lat="43.61253" lon="1.4182">
        <ele>194.596</ele>
        <time>2020-05-24T12:59:56Z</time>
      </trkpt>
      <trkpt lat="43.61271" lon="1.41825">
        <ele>194.553</ele>
        <time>2020-05-24T13:00:02Z</time>
      </trkpt>
      <trkpt lat="43.61293" lon="1.41827">
        <ele>194.437</ele>
        <time>2020-05-24T13:00:08Z</time>
      </trkpt>
      <trkpt lat="43.61317" lon="1.4183">
        <ele>194.227</ele>
        <time>2020-05-24T13:00:14Z</time>
      </trkpt>
      <trkpt lat="43.61335" lon="1.41832">
        <ele>194.088</ele>
        <time>2020-05-24T13:00:19Z</time>
      </trkpt>
      <trkpt lat="43.61355" lon="1.41834">
        <ele>194.061</ele>
        <time>2020-05-24T13:00:24Z</time>
      </trkpt>
      <trkpt lat="43.61376" lon="1.41839">
        <ele>194.025</ele>
        <time>2020-05-24T13:00:29Z</time>
      </trkpt>
      <trkpt lat="43.614" lon="1.41847">
        <ele>193.99</ele>
        <time>2020-05-24T13:00:35Z</time>
      </trkpt>
      <trkpt lat="43.61425" lon="1.41853">
        <ele>193.946</ele>
        <time>2020-05-24T13:00:41Z</time>
      </trkpt>
      <trkpt lat="43.61449" lon="1.41854">
        <ele>193.889</ele>
        <time>2020-05-24T13:00:47Z</time>
      </trkpt>
      <trkpt lat="43.61473" lon="1.41857">
        <ele>193.777</ele>
        <time>2020-05-24T13:00:53Z</time>
      </trkpt>
      <trkpt lat="43.61491" lon="1.4186">
        <ele>193.728</ele>
        <time>2020-05-24T13:00:58Z</time>
      </trkpt>
      <trkpt lat="43.6151" lon="1.41863">
        <ele>193.691</ele>
        <time>2020-05-24T13:01:03Z</time>
      </trkpt>
      <trkpt lat="43.61536" lon="1.41866">
        <ele>193.55</ele>
        <time>2020-05-24T13:01:09Z</time>
      </trkpt>
      <trkpt lat="43.61562" lon="1.41869">
        <ele>193.426</ele>
        <time>2020-05-24T13:01:15Z</time>
      </trkpt>
      <trkpt lat="43.61585" lon="1.41873">
        <ele>193.369</ele>
        <time>2020-05-24T13:01:20Z</time>
      </trkpt>
      <trkpt lat="43.6161" lon="1.41878">
        <ele>193.316</ele>
        <time>2020-05-24T13:01:25Z</time>
      </trkpt>
      <trkpt lat="43.61639" lon="1.41883">
        <ele>193.275</ele>
        <time>2020-05-24T13:01:31Z</time>
      </trkpt>
      <trkpt lat="43.61661" lon="1.41888">
        <ele>193.295</ele>
        <time>2020-05-24T13:01:36Z</time>
      </trkpt>
      <trkpt lat="43.61688" lon="1.41893">
        <ele>193.29</ele>
        <time>2020-05-24T13:01:42Z</time>
      </trkpt>
      <trkpt lat="43.61717" lon="1.41897">
        <ele>193.284</ele>
        <time>2020-05-24T13:01:48Z</time>
      </trkpt>
      <trkpt lat="43.61743" lon="1.41899">
        <ele>193.22</ele>
        <time>2020-05-24T13:01:54Z</time>
      </trkpt>
      <trkpt lat="43.61764" lon="1.41902">
        <ele>193.179</ele>
        <time>2020-05-24T13:01:59Z</time>
      </trkpt>
      <trkpt lat="43.61787" lon="1.41904">
        <ele>193.107</ele>
        <time>2020-05-24T13:02:05Z</time>
      </trkpt>
      <trkpt lat="43.61809" lon="1.41907">
        <ele>193.08</ele>
        <time>2020-05-24T13:02:11Z</time>
      </trkpt>
      <trkpt lat="43.61829" lon="1.41912">
        <ele>193.071</ele>
        <time>2020-05-24T13:02:16Z</time>
      </trkpt>
      <trkpt lat="43.61853" lon="1.41913">
        <ele>193.05</ele>
        <time>2020-05-24T13:02:22Z</time>
      </trkpt>
      <trkpt lat="43.61872" lon="1.41913">
        <ele>193.028</ele>
        <time>2020-05-24T13:02:27Z</time>
      </trkpt>
      <trkpt lat="43.61893" lon="1.41916">
        <ele>192.992</ele>
        <time>2020-05-24T13:02:32Z</time>
      </trkpt>
      <trkpt lat="43.61922" lon="1.41921">
        <ele>192.914</ele>
        <time>2020-05-24T13:02:38Z</time>
      </trkpt>
      <trkpt lat="43.61951" lon="1.41924">
        <ele>192.873</ele>
        <time>2020-05-24T13:02:44Z</time>
      </trkpt>
      <trkpt lat="43.6198" lon="1.41929">
        <ele>192.851</ele>
        <time>2020-05-24T13:02:50Z</time>
      </trkpt>
      <trkpt lat="43.62002" lon="1.41931">
        <ele>192.836</ele>
        <time>2020-05-24T13:02:56Z</time>
      </trkpt>
      <trkpt lat="43.6203" lon="1.41934">
        <ele>192.759</ele>
        <time>2020-05-24T13:03:02Z</time>
      </trkpt>
      <trkpt lat="43.62055" lon="1.41938">
        <ele>192.681</ele>
        <time>2020-05-24T13:03:07Z</time>
      </trkpt>
      <trkpt lat="43.62078" lon="1.41941">
        <ele>192.653</ele>
        <time>2020-05-24T13:03:12Z</time>
      </trkpt>
      <trkpt lat="43.62098" lon="1.41946">
        <ele>192.634</ele>
        <time>2020-05-24T13:03:17Z</time>
      </trkpt>
      <trkpt lat="43.62123" lon="1.41948">
        <ele>192.63</ele>
        <time>2020-05-24T13:03:23Z</time>
      </trkpt>
      <trkpt lat="43.62149" lon="1.41953">
        <ele>192.611</ele>
        <time>2020-05-24T13:03:29Z</time>
      </trkpt>
      <trkpt lat="43.62169" lon="1.41958">
        <ele>192.584</ele>
        <time>2020-05-24T13:03:34Z</time>
      </trkpt>
      <trkpt lat="43.62195" lon="1.41958">
        <ele>192.545</ele>
        <time>2020-05-24T13:03:40Z</time>
      </trkpt>
      <trkpt lat="43.62221" lon="1.41962">
        <ele>192.482</ele>
        <time>2020-05-24T13:03:46Z</time>
      </trkpt>
      <trkpt lat="43.62248" lon="1.41962">
        <ele>192.428</ele>
        <time>2020-05-24T13:03:52Z</time>
      </trkpt>
      <trkpt lat="43.62275" lon="1.41965">
        <ele>192.389</ele>
        <time>2020-05-24T13:03:58Z</time>
      </trkpt>
      <trkpt lat="43.62296" lon="1.41967">
        <ele>192.356</ele>
        <time>2020-05-24T13:04:03Z</time>
      </trkpt>
      <trkpt lat="43.62319" lon="1.41971">
        <ele>192.293</ele>
        <time>2020-05-24T13:04:09Z</time>
      </trkpt>
      <trkpt lat="43.62343" lon="1.41971">
        <ele>192.193</ele>
        <time>2020-05-24T13:04:15Z</time>
      </trkpt>
      <trkpt lat="43.62364" lon="1.4197">
        <ele>192.159</ele>
        <time>2020-05-24T13:04:21Z</time>
      </trkpt>
      <trkpt lat="43.6238" lon="1.41973">
        <ele>192.142</ele>
        <time>2020-05-24T13:04:26Z</time>
      </trkpt>
      <trkpt lat="43.62405" lon="1.41976">
        <ele>192.117</ele>
        <time>2020-05-24T13:04:32Z</time>
      </trkpt>
      <trkpt lat="43.62427" lon="1.4198">
        <ele>192.01</ele>
        <time>2020-05-24T13:04:38Z</time>
      </trkpt>
      <trkpt lat="43.62448" lon="1.41984">
        <ele>191.937</ele>
        <time>2020-05-24T13:04:43Z</time>
      </trkpt>
      <trkpt lat="43.6247" lon="1.41989">
        <ele>191.891</ele>
        <time>2020-05-24T13:04:49Z</time>
      </trkpt>
      <trkpt lat="43.6249" lon="1.41992">
        <ele>191.831</ele>
        <time>2020-05-24T13:04:54Z</time>
      </trkpt>
      <trkpt lat="43.62504" lon="1.41995">
        <ele>191.813</ele>
        <time>2020-05-24T13:04:59Z</time>
      </trkpt>
      <trkpt lat="43.62525" lon="1.42003">
        <ele>191.755</ele>
        <time>2020-05-24T13:05:05Z</time>
      </trkpt>
      <trkpt lat="43.62541" lon="1.42008">
        <ele>191.738</ele>
        <time>2020-05-24T13:05:10Z</time>
      </trkpt>
      <trkpt lat="43.62565" lon="1.42013">
        <ele>191.672</ele>
        <time>2020-05-24T13:05:16Z</time>
      </trkpt>
      <trkpt lat="43.62585" lon="1.42014">
        <ele>191.666</ele>
        <time>2020-05-24T13:05:22Z</time>
      </trkpt>
      <trkpt lat="43.62606" lon="1.42015">
        <ele>191.649</ele>
        <time>2020-05-24T13:05:28Z</time>
      </trkpt>
      <trkpt lat="43.6263" lon="1.42017">
        <ele>191.636</ele>
        <time>2020-05-24T13:05:34Z</time>
      </trkpt>
      <trkpt lat="43.62647" lon="1.42018">
        <ele>191.627</ele>
        <time>2020-05-24T13:05:39Z</time>
      </trkpt>
      <trkpt lat="43.62668" lon="1.42022">
        <ele>191.614</ele>
        <time>2020-05-24T13:05:44Z</time>
      </trkpt>
      <trkpt lat="43.62692" lon="1.42028">
        <ele>191.542</ele>
        <time>2020-05-24T13:05:50Z</time>
      </trkpt>
      <trkpt lat="43.62716" lon="1.42033">
        <ele>191.496</ele>
        <time>2020-05-24T13:05:56Z</time>
      </trkpt>
      <trkpt lat="43.62735" lon="1.42036">
        <ele>191.492</ele>
        <time>2020-05-24T13:06:01Z</time>
      </trkpt>
      <trkpt lat="43.62761" lon="1.42041">
        <ele>191.467</ele>
        <time>2020-05-24T13:06:07Z</time>
      </trkpt>
      <trkpt lat="43.62787" lon="1.42047">
        <ele>191.479</ele>
        <time>2020-05-24T13:06:13Z</time>
      </trkpt>
      <trkpt lat="43.62815" lon="1.4205">
        <ele>191.443</ele>
        <time>2020-05-24T13:06:19Z</time>
      </trkpt>
      <trkpt lat="43.62835" lon="1.42053">
        <ele>191.41</ele>
        <time>2020-05-24T13:06:24Z</time>
      </trkpt>
      <trkpt lat="43.62861" lon="1.42057">
        <ele>191.418</ele>
        <time>2020-05-24T13:06:30Z</time>
      </trkpt>
      <trkpt lat="43.62887" lon="1.42061">
        <ele>191.389</ele>
        <time>2020-05-24T13:06:36Z</time>
      </trkpt>
      <trkpt lat="43.62909" lon="1.42063">
        <ele>191.372</ele>
        <time>2020-05-24T13:06:41Z</time>
      </trkpt>
      <trkpt lat="43.62933" lon="1.42065">
        <ele>191.334</ele>
        <time>2020-05-24T13:06:47Z</time>
      </trkpt>
      <trkpt lat="43.62953" lon="1.42066">
        <ele>191.32</ele>
        <time>2020-05-24T13:06:52Z</time>
      </trkpt>
      <trkpt lat="43.62974" lon="1.4207">
        <ele>191.317</ele>
        <time>2020-05-24T13:06:57Z</time>
      </trkpt>
      <trkpt lat="43.63001" lon="1.42071">
        <ele>191.325</ele>
        <time>2020-05-24T13:07:03Z</time>
      </trkpt>
      <trkpt lat="43.63022" lon="1.42075">
        <ele>191.331</ele>
        <time>2020-05-24T13:07:08Z</time>
      </trkpt>
      <trkpt lat="43.63043" lon="1.42078">
        <ele>191.334</ele>
        <time>2020-05-24T13:07:13Z</time>
      </trkpt>
      <trkpt lat="43.63072" lon="1.4208">
        <ele>191.327</ele>
        <time>2020-05-24T13:07:19Z</time>
      </trkpt>
      <trkpt lat="43.63093" lon="1.42084">
        <ele>191.335</ele>
        <time>2020-05-24T13:07:24Z</time>
      </trkpt>
      <trkpt lat="43.63119" lon="1.42088">
        <ele>191.303</ele>
        <time>2020-05-24T13:07:30Z</time>
      </trkpt>
      <trkpt lat="43.63141" lon="1.42091">
        <ele>191.263</ele>
        <time>2020-05-24T13:07:35Z</time>
      </trkpt>
      <trkpt lat="43.63166" lon="1.42095">
        <ele>191.193</ele>
        <time>2020-05-24T13:07:41Z</time>
      </trkpt>
      <trkpt lat="43.6319" lon="1.42096">
        <ele>191.139</ele>
        <time>2020-05-24T13:07:47Z</time>
      </trkpt>
      <trkpt lat="43.63215" lon="1.42101">
        <ele>191.01</ele>
        <time>2020-05-24T13:07:53Z</time>
      </trkpt>
      <trkpt lat="43.63239" lon="1.42104">
        <ele>190.913</ele>
        <time>2020-05-24T13:07:59Z</time>
      </trkpt>
      <trkpt lat="43.63264" lon="1.4211">
        <ele>190.857</ele>
        <time>2020-05-24T13:08:05Z</time>
      </trkpt>
      <trkpt lat="43.63289" lon="1.42112">
        <ele>190.848</ele>
        <time>2020-05-24T13:08:11Z</time>
      </trkpt>
      <trkpt lat="43.63309" lon="1.42113">
        <ele>190.853</ele>
        <time>2020-05-24T13:08:16Z</time>
      </trkpt>
      <trkpt lat="43.63335" lon="1.42114">
        <ele>190.843</ele>
        <time>2020-05-24T13:08:22Z</time>
      </trkpt>
      <trkpt lat="43.63355" lon="1.42116">
        <ele>190.8</ele>
        <time>2020-05-24T13:08:27Z</time>
      </trkpt>
      <trkpt lat="43.63379" lon="1.42118">
        <ele>190.729</ele>
        <time>2020-05-24T13:08:33Z</time>
      </trkpt>
      <trkpt lat="43.63404" lon="1.42123">
        <ele>190.68</ele>
        <time>2020-05-24T13:08:39Z</time>
      </trkpt>
      <trkpt lat="43.63434" lon="1.42119">
        <ele>190.666</ele>
        <time>2020-05-24T13:08:45Z</time>
      </trkpt>
      <trkpt lat="43.63456" lon="1.42123">
        <ele>190.706</ele>
        <time>2020-05-24T13:08:50Z</time>
      </trkpt>
      <trkpt lat="43.63472" lon="1.42126">
        <ele>190.71</ele>
        <time>2020-05-24T13:08:55Z</time>
      </trkpt>
      <trkpt lat="43.63486" lon="1.42123">
        <ele>190.705</ele>
        <time>2020-05-24T13:09:01Z</time>
      </trkpt>
      <trkpt lat="43.63493" lon="1.42129">
        <ele>190.703</ele>
        <time>2020-05-24T13:09:06Z</time>
      </trkpt>
      <trkpt lat="43.63492" lon="1.4214">
        <ele>190.693</ele>
        <time>2020-05-24T13:09:11Z</time>
      </trkpt>
      <trkpt lat="43.63491" lon="1.42154">
        <ele>190.678</ele>
        <time>2020-05-24T13:09:17Z</time>
      </trkpt>
      <trkpt lat="43.63489" lon="1.42166">
        <ele>190.669</ele>
        <time>2020-05-24T13:09:22Z</time>
      </trkpt>
      <trkpt lat="43.63503" lon="1.42175">
        <ele>190.656</ele>
        <time>2020-05-24T13:09:28Z</time>
      </trkpt>
      <trkpt lat="43.6352" lon="1.4218">
        <ele>190.655</ele>
        <time>2020-05-24T13:09:34Z</time>
      </trkpt>
      <trkpt lat="43.63526" lon="1.42181">
        <ele>190.657</ele>
        <time>2020-05-24T13:09:39Z</time>
      </trkpt>
      <trkpt lat="43.63527" lon="1.42182">
        <ele>190.658</ele>
        <time>2020-05-24T13:09:45Z</time>
      </trkpt>
      <trkpt lat="43.63528" lon="1.42182">
        <ele>190.656</ele>
        <time>2020-05-24T13:09:50Z</time>
      </trkpt>
      <trkpt lat="43.63528" lon="1.42182">
        <ele>190.654</ele>
        <time>2020-05-24T13:09:55Z</time>
      </trkpt>
      <trkpt lat="43.63529" lon="1.42181">
        <ele>190.622</ele>
        <time>2020-05-24T13:10:01Z</time>
      </trkpt>
      <trkpt lat="43.63529" lon="1.4218">
        <ele>190.614</ele>
        <time>2020-05-24T13:10:06Z</time>
      </trkpt>
      <trkpt lat="43.63529" lon="1.42179">
        <ele>190.567</ele>
        <time>2020-05-24T13:10:12Z</time>
      </trkpt>
      <trkpt lat="43.63528" lon="1.42178">
        <ele>190.555</ele>
        <time>2020-05-24T13:10:18Z</time>
      </trkpt>
      <trkpt lat="43.63528" lon="1.42177">
        <ele>190.544</ele>
        <time>2020-05-24T13:10:24Z</time>
      </trkpt>
      <trkpt lat="43.63528" lon="1.42177">
        <ele>190.533</ele>
        <time>2020-05-24T13:10:30Z</time>
      </trkpt>
      <trkpt lat="43.63527" lon="1.42177">
        <ele>190.524</ele>
        <time>2020-05-24T13:10:35Z</time>
      </trkpt>
      <trkpt lat="43.63526" lon="1.42175">
        <ele>190.513</ele>
        <time>2020-05-24T13:10:41Z</time>
      </trkpt>
      <trkpt lat="43.63526" lon="1.42175">
        <ele>190.504</ele>
        <time>2020-05-24T13:10:46Z</time>
      </trkpt>
      <trkpt lat="43.63526" lon="1.42175">
        <ele>190.493</ele>
        <time>2020-05-24T13:10:52Z</time>
      </trkpt>
      <trkpt lat="43.63526" lon="1.42175">
        <ele>190.484</ele>
        <time>2020-05-24T13:10:57Z</time>
      </trkpt>
      <trkpt lat="43.63526" lon="1.42175">
        <ele>190.475</ele>
        <time>2020-05-24T13:11:03Z</time>
      </trkpt>
      <trkpt lat="43.63525" lon="1.42177">
        <ele>190.422</ele>
        <time>2020-05-24T13:11:09Z</time>
      </trkpt>
      <trkpt lat="43.63525" lon="1.42177">
        <ele>190.412</ele>
        <time>2020-05-24T13:11:15Z</time>
      </trkpt>
      <trkpt lat="43.63525" lon="1.42177">
        <ele>190.406</ele>
        <time>2020-05-24T13:11:20Z</time>
      </trkpt>
      <trkpt lat="43.63525" lon="1.42178">
        <ele>190.39</ele>
        <time>2020-05-24T13:11:26Z</time>
      </trkpt>
      <trkpt lat="43.63525" lon="1.42178">
        <ele>190.385</ele>
        <time>2020-05-24T13:11:31Z</time>
      </trkpt>
      <trkpt lat="43.63524" lon="1.42178">
        <ele>190.381</ele>
        <time>2020-05-24T13:11:37Z</time>
      </trkpt>
      <trkpt lat="43.63524" lon="1.42178">
        <ele>190.378</ele>
        <time>2020-05-24T13:11:42Z</time>
      </trkpt>
      <trkpt lat="43.63523" lon="1.42178">
        <ele>190.376</ele>
        <time>2020-05-24T13:11:47Z</time>
      </trkpt>
      <trkpt lat="43.63523" lon="1.42178">
        <ele>190.375</ele>
        <time>2020-05-24T13:11:53Z</time>
      </trkpt>
      <trkpt lat="43.63523" lon="1.42178">
        <ele>190.369</ele>
        <time>2020-05-24T13:11:58Z</time>
      </trkpt>
      <trkpt lat="43.63524" lon="1.42177">
        <ele>190.367</ele>
        <time>2020-05-24T13:12:03Z</time>
      </trkpt>
      <trkpt lat="43.63524" lon="1.42177">
        <ele>190.362</ele>
        <time>2020-05-24T13:12:09Z</time>
      </trkpt>
      <trkpt lat="43.63524" lon="1.42177">
        <ele>190.356</ele>
        <time>2020-05-24T13:12:14Z</time>
      </trkpt>
      <trkpt lat="43.63524" lon="1.42177">
        <ele>190.347</ele>
        <time>2020-05-24T13:12:20Z</time>
      </trkpt>
      <trkpt lat="43.63524" lon="1.42176">
        <ele>190.337</ele>
        <time>2020-05-24T13:12:26Z</time>
      </trkpt>
      <trkpt lat="43.63525" lon="1.42175">
        <ele>190.291</ele>
        <time>2020-05-24T13:12:31Z</time>
      </trkpt>
      <trkpt lat="43.63525" lon="1.42174">
        <ele>190.281</ele>
        <time>2020-05-24T13:12:36Z</time>
      </trkpt>
      <trkpt lat="43.63525" lon="1.42174">
        <ele>190.267</ele>
        <time>2020-05-24T13:12:42Z</time>
      </trkpt>
      <trkpt lat="43.63524" lon="1.42176">
        <ele>190.197</ele>
        <time>2020-05-24T13:12:48Z</time>
      </trkpt>
      <trkpt lat="43.63525" lon="1.42174">
        <ele>190.169</ele>
        <time>2020-05-24T13:12:54Z</time>
      </trkpt>
      <trkpt lat="43.63524" lon="1.42173">
        <ele>190.161</ele>
        <time>2020-05-24T13:12:59Z</time>
      </trkpt>
      <trkpt lat="43.63524" lon="1.42173">
        <ele>190.153</ele>
        <time>2020-05-24T13:13:04Z</time>
      </trkpt>
      <trkpt lat="43.63524" lon="1.42172">
        <ele>190.144</ele>
        <time>2020-05-24T13:13:10Z</time>
      </trkpt>
      <trkpt lat="43.63526" lon="1.42172">
        <ele>190.135</ele>
        <time>2020-05-24T13:13:16Z</time>
      </trkpt>
      <trkpt lat="43.63528" lon="1.42169">
        <ele>190.074</ele>
        <time>2020-05-24T13:13:21Z</time>
      </trkpt>
      <trkpt lat="43.63538" lon="1.42167">
        <ele>190.003</ele>
        <time>2020-05-24T13:13:26Z</time>
      </trkpt>
      <trkpt lat="43.63555" lon="1.42168">
        <ele>189.939</ele>
        <time>2020-05-24T13:13:31Z</time>
      </trkpt>
      <trkpt lat="43.63575" lon="1.42173">
        <ele>189.872</ele>
        <time>2020-05-24T13:13:37Z</time>
      </trkpt>
      <trkpt lat="43.63597" lon="1.42177">
        <ele>189.826</ele>
        <time>2020-05-24T13:13:42Z</time>
      </trkpt>
      <trkpt lat="43.63621" lon="1.42182">
        <ele>189.58</ele>
        <time>2020-05-24T13:13:47Z</time>
      </trkpt>
      <trkpt lat="43.63646" lon="1.42186">
        <ele>189.53</ele>
        <time>2020-05-24T13:13:53Z</time>
      </trkpt>
      <trkpt lat="43.63672" lon="1.42191">
        <ele>189.515</ele>
        <time>2020-05-24T13:13:59Z</time>
      </trkpt>
      <trkpt lat="43.63697" lon="1.42194">
        <ele>189.553</ele>
        <time>2020-05-24T13:14:05Z</time>
      </trkpt>
      <trkpt lat="43.63723" lon="1.42198">
        <ele>189.581</ele>
        <time>2020-05-24T13:14:10Z</time>
      </trkpt>
      <trkpt lat="43.63754" lon="1.42203">
        <ele>189.618</ele>
        <time>2020-05-24T13:14:16Z</time>
      </trkpt>
      <trkpt lat="43.63781" lon="1.42206">
        <ele>189.657</ele>
        <time>2020-05-24T13:14:22Z</time>
      </trkpt>
      <trkpt lat="43.63807" lon="1.42211">
        <ele>189.705</ele>
        <time>2020-05-24T13:14:28Z</time>
      </trkpt>
      <trkpt lat="43.63831" lon="1.42214">
        <ele>189.741</ele>
        <time>2020-05-24T13:14:33Z</time>
      </trkpt>
      <trkpt lat="43.63859" lon="1.42217">
        <ele>189.775</ele>
        <time>2020-05-24T13:14:39Z</time>
      </trkpt>
      <trkpt lat="43.63887" lon="1.4222">
        <ele>189.808</ele>
        <time>2020-05-24T13:14:45Z</time>
      </trkpt>
      <trkpt lat="43.63919" lon="1.42226">
        <ele>189.853</ele>
        <time>2020-05-24T13:14:51Z</time>
      </trkpt>
      <trkpt lat="43.63944" lon="1.42231">
        <ele>189.876</ele>
        <time>2020-05-24T13:14:56Z</time>
      </trkpt>
      <trkpt lat="43.63965" lon="1.42235">
        <ele>189.887</ele>
        <time>2020-05-24T13:15:01Z</time>
      </trkpt>
      <trkpt lat="43.63986" lon="1.42235">
        <ele>189.896</ele>
        <time>2020-05-24T13:15:06Z</time>
      </trkpt>
      <trkpt lat="43.64009" lon="1.42237">
        <ele>189.923</ele>
        <time>2020-05-24T13:15:11Z</time>
      </trkpt>
      <trkpt lat="43.64038" lon="1.4224">
        <ele>189.967</ele>
        <time>2020-05-24T13:15:17Z</time>
      </trkpt>
      <trkpt lat="43.6407" lon="1.42246">
        <ele>190.004</ele>
        <time>2020-05-24T13:15:23Z</time>
      </trkpt>
      <trkpt lat="43.64098" lon="1.42248">
        <ele>190.011</ele>
        <time>2020-05-24T13:15:29Z</time>
      </trkpt>
      <trkpt lat="43.64122" lon="1.42253">
        <ele>189.997</ele>
        <time>2020-05-24T13:15:34Z</time>
      </trkpt>
      <trkpt lat="43.64151" lon="1.42258">
        <ele>189.973</ele>
        <time>2020-05-24T13:15:40Z</time>
      </trkpt>
      <trkpt lat="43.64175" lon="1.42262">
        <ele>189.961</ele>
        <time>2020-05-24T13:15:45Z</time>
      </trkpt>
      <trkpt lat="43.64207" lon="1.42266">
        <ele>189.959</ele>
        <time>2020-05-24T13:15:51Z</time>
      </trkpt>
      <trkpt lat="43.64237" lon="1.42272">
        <ele>189.961</ele>
        <time>2020-05-24T13:15:57Z</time>
      </trkpt>
      <trkpt lat="43.64261" lon="1.42276">
        <ele>189.959</ele>
        <time>2020-05-24T13:16:02Z</time>
      </trkpt>
      <trkpt lat="43.64283" lon="1.42277">
        <ele>189.952</ele>
        <time>2020-05-24T13:16:07Z</time>
      </trkpt>
      <trkpt lat="43.64314" lon="1.42284">
        <ele>189.964</ele>
        <time>2020-05-24T13:16:13Z</time>
      </trkpt>
      <trkpt lat="43.6434" lon="1.42285">
        <ele>189.979</ele>
        <time>2020-05-24T13:16:19Z</time>
      </trkpt>
      <trkpt lat="43.64364" lon="1.4229">
        <ele>190.002</ele>
        <time>2020-05-24T13:16:24Z</time>
      </trkpt>
      <trkpt lat="43.64392" lon="1.42293">
        <ele>190.015</ele>
        <time>2020-05-24T13:16:30Z</time>
      </trkpt>
      <trkpt lat="43.64418" lon="1.42297">
        <ele>190.035</ele>
        <time>2020-05-24T13:16:35Z</time>
      </trkpt>
      <trkpt lat="43.64445" lon="1.423">
        <ele>190.07</ele>
        <time>2020-05-24T13:16:41Z</time>
      </trkpt>
      <trkpt lat="43.64465" lon="1.42306">
        <ele>190.074</ele>
        <time>2020-05-24T13:16:46Z</time>
      </trkpt>
      <trkpt lat="43.64492" lon="1.4231">
        <ele>190.112</ele>
        <time>2020-05-24T13:16:52Z</time>
      </trkpt>
      <trkpt lat="43.64515" lon="1.42309">
        <ele>190.141</ele>
        <time>2020-05-24T13:16:58Z</time>
      </trkpt>
      <trkpt lat="43.64536" lon="1.42313">
        <ele>190.189</ele>
        <time>2020-05-24T13:17:03Z</time>
      </trkpt>
      <trkpt lat="43.64563" lon="1.42314">
        <ele>190.199</ele>
        <time>2020-05-24T13:17:09Z</time>
      </trkpt>
      <trkpt lat="43.6458" lon="1.42324">
        <ele>190.19</ele>
        <time>2020-05-24T13:17:15Z</time>
      </trkpt>
      <trkpt lat="43.64603" lon="1.42334">
        <ele>190.175</ele>
        <time>2020-05-24T13:17:20Z</time>
      </trkpt>
      <trkpt lat="43.64629" lon="1.42343">
        <ele>190.198</ele>
        <time>2020-05-24T13:17:26Z</time>
      </trkpt>
      <trkpt lat="43.64648" lon="1.42346">
        <ele>190.21</ele>
        <time>2020-05-24T13:17:31Z</time>
      </trkpt>
      <trkpt lat="43.64667" lon="1.42348">
        <ele>190.215</ele>
        <time>2020-05-24T13:17:37Z</time>
      </trkpt>
      <trkpt lat="43.64674" lon="1.42341">
        <ele>190.225</ele>
        <time>2020-05-24T13:17:42Z</time>
      </trkpt>
      <trkpt lat="43.64675" lon="1.42326">
        <ele>190.235</ele>
        <time>2020-05-24T13:17:47Z</time>
      </trkpt>
      <trkpt lat="43.64674" lon="1.42318">
        <ele>190.254</ele>
        <time>2020-05-24T13:17:53Z</time>
      </trkpt>
      <trkpt lat="43.64676" lon="1.42302">
        <ele>190.273</ele>
        <time>2020-05-24T13:17:58Z</time>
      </trkpt>
      <trkpt lat="43.64677" lon="1.42286">
        <ele>190.289</ele>
        <time>2020-05-24T13:18:04Z</time>
      </trkpt>
      <trkpt lat="43.64679" lon="1.42261">
        <ele>190.296</ele>
        <time>2020-05-24T13:18:10Z</time>
      </trkpt>
      <trkpt lat="43.64681" lon="1.42237">
        <ele>190.305</ele>
        <time>2020-05-24T13:18:16Z</time>
      </trkpt>
      <trkpt lat="43.64682" lon="1.42212">
        <ele>190.329</ele>
        <time>2020-05-24T13:18:21Z</time>
      </trkpt>
      <trkpt lat="43.64683" lon="1.42194">
        <ele>190.333</ele>
        <time>2020-05-24T13:18:27Z</time>
      </trkpt>
      <trkpt lat="43.64683" lon="1.42193">
        <ele>190.333</ele>
        <time>2020-05-24T13:18:32Z</time>
      </trkpt>
      <trkpt lat="43.64682" lon="1.42192">
        <ele>190.334</ele>
        <time>2020-05-24T13:18:38Z</time>
      </trkpt>
      <trkpt lat="43.64682" lon="1.42193">
        <ele>190.335</ele>
        <time>2020-05-24T13:18:44Z</time>
      </trkpt>
      <trkpt lat="43.64682" lon="1.42192">
        <ele>190.337</ele>
        <time>2020-05-24T13:18:50Z</time>
      </trkpt>
      <trkpt lat="43.64683" lon="1.42192">
        <ele>190.341</ele>
        <time>2020-05-24T13:18:56Z</time>
      </trkpt>
      <trkpt lat="43.64684" lon="1.42192">
        <ele>190.344</ele>
        <time>2020-05-24T13:19:01Z</time>
      </trkpt>
      <trkpt lat="43.64685" lon="1.42192">
        <ele>190.374</ele>
        <time>2020-05-24T13:19:07Z</time>
      </trkpt>
      <trkpt lat="43.64691" lon="1.42193">
        <ele>190.408</ele>
        <time>2020-05-24T13:19:12Z</time>
      </trkpt>
      <trkpt lat="43.64704" lon="1.42201">
        <ele>190.438</ele>
        <time>2020-05-24T13:19:17Z</time>
      </trkpt>
      <trkpt lat="43.64723" lon="1.4221">
        <ele>190.47</ele>
        <time>2020-05-24T13:19:23Z</time>
      </trkpt>
      <trkpt lat="43.64747" lon="1.42226">
        <ele>190.597</ele>
        <time>2020-05-24T13:19:29Z</time>
      </trkpt>
      <trkpt lat="43.64768" lon="1.42242">
        <ele>190.651</ele>
        <time>2020-05-24T13:19:34Z</time>
      </trkpt>
      <trkpt lat="43.6478" lon="1.42272">
        <ele>190.679</ele>
        <time>2020-05-24T13:19:39Z</time>
      </trkpt>
      <trkpt lat="43.6478" lon="1.42295">
        <ele>190.681</ele>
        <time>2020-05-24T13:19:45Z</time>
      </trkpt>
      <trkpt lat="43.64793" lon="1.42302">
        <ele>190.68</ele>
        <time>2020-05-24T13:19:50Z</time>
      </trkpt>
      <trkpt lat="43.64816" lon="1.42306">
        <ele>190.664</ele>
        <time>2020-05-24T13:19:56Z</time>
      </trkpt>
      <trkpt lat="43.64832" lon="1.42309">
        <ele>190.662</ele>
        <time>2020-05-24T13:20:01Z</time>
      </trkpt>
      <trkpt lat="43.64853" lon="1.4231">
        <ele>190.637</ele>
        <time>2020-05-24T13:20:07Z</time>
      </trkpt>
      <trkpt lat="43.6488" lon="1.4232">
        <ele>190.581</ele>
        <time>2020-05-24T13:20:13Z</time>
      </trkpt>
      <trkpt lat="43.64908" lon="1.42329">
        <ele>190.537</ele>
        <time>2020-05-24T13:20:19Z</time>
      </trkpt>
      <trkpt lat="43.64933" lon="1.42334">
        <ele>190.516</ele>
        <time>2020-05-24T13:20:25Z</time>
      </trkpt>
      <trkpt lat="43.64958" lon="1.4234">
        <ele>190.507</ele>
        <time>2020-05-24T13:20:31Z</time>
      </trkpt>
      <trkpt lat="43.64986" lon="1.42345">
        <ele>190.504</ele>
        <time>2020-05-24T13:20:37Z</time>
      </trkpt>
      <trkpt lat="43.65008" lon="1.42348">
        <ele>190.511</ele>
        <time>2020-05-24T13:20:42Z</time>
      </trkpt>
      <trkpt lat="43.65034" lon="1.42352">
        <ele>190.526</ele>
        <time>2020-05-24T13:20:47Z</time>
      </trkpt>
      <trkpt lat="43.65063" lon="1.42355">
        <ele>190.506</ele>
        <time>2020-05-24T13:20:53Z</time>
      </trkpt>
      <trkpt lat="43.65091" lon="1.42354">
        <ele>190.468</ele>
        <time>2020-05-24T13:20:59Z</time>
      </trkpt>
      <trkpt lat="43.65115" lon="1.42354">
        <ele>190.461</ele>
        <time>2020-05-24T13:21:04Z</time>
      </trkpt>
      <trkpt lat="43.65142" lon="1.42353">
        <ele>190.442</ele>
        <time>2020-05-24T13:21:10Z</time>
      </trkpt>
      <trkpt lat="43.65166" lon="1.42353">
        <ele>190.418</ele>
        <time>2020-05-24T13:21:16Z</time>
      </trkpt>
      <trkpt lat="43.65189" lon="1.42359">
        <ele>190.393</ele>
        <time>2020-05-24T13:21:21Z</time>
      </trkpt>
      <trkpt lat="43.65206" lon="1.42354">
        <ele>190.391</ele>
        <time>2020-05-24T13:21:26Z</time>
      </trkpt>
      <trkpt lat="43.6521" lon="1.42335">
        <ele>190.388</ele>
        <time>2020-05-24T13:21:32Z</time>
      </trkpt>
      <trkpt lat="43.65208" lon="1.42335">
        <ele>190.385</ele>
        <time>2020-05-24T13:21:37Z</time>
      </trkpt>
      <trkpt lat="43.65208" lon="1.42339">
        <ele>190.386</ele>
        <time>2020-05-24T13:21:43Z</time>
      </trkpt>
      <trkpt lat="43.6521" lon="1.42339">
        <ele>190.385</ele>
        <time>2020-05-24T13:21:48Z</time>
      </trkpt>
      <trkpt lat="43.65212" lon="1.4234">
        <ele>190.378</ele>
        <time>2020-05-24T13:21:54Z</time>
      </trkpt>
      <trkpt lat="43.65206" lon="1.42328">
        <ele>190.367</ele>
        <time>2020-05-24T13:21:59Z</time>
      </trkpt>
      <trkpt lat="43.65205" lon="1.42326">
        <ele>190.348</ele>
        <time>2020-05-24T13:22:05Z</time>
      </trkpt>
      <trkpt lat="43.65204" lon="1.42323">
        <ele>190.333</ele>
        <time>2020-05-24T13:22:11Z</time>
      </trkpt>
      <trkpt lat="43.65201" lon="1.42309">
        <ele>190.313</ele>
        <time>2020-05-24T13:22:17Z</time>
      </trkpt>
      <trkpt lat="43.65211" lon="1.42288">
        <ele>190.256</ele>
        <time>2020-05-24T13:22:22Z</time>
      </trkpt>
      <trkpt lat="43.65227" lon="1.42252">
        <ele>190.065</ele>
        <time>2020-05-24T13:22:28Z</time>
      </trkpt>
      <trkpt lat="43.65246" lon="1.42226">
        <ele>190.023</ele>
        <time>2020-05-24T13:22:34Z</time>
      </trkpt>
      <trkpt lat="43.65247" lon="1.42204">
        <ele>190.013</ele>
        <time>2020-05-24T13:22:40Z</time>
      </trkpt>
      <trkpt lat="43.6525" lon="1.42193">
        <ele>190.009</ele>
        <time>2020-05-24T13:22:46Z</time>
      </trkpt>
      <trkpt lat="43.65264" lon="1.42175">
        <ele>190.006</ele>
        <time>2020-05-24T13:22:51Z</time>
      </trkpt>
      <trkpt lat="43.65283" lon="1.42158">
        <ele>190.004</ele>
        <time>2020-05-24T13:22:57Z</time>
      </trkpt>
      <trkpt lat="43.65296" lon="1.42141">
        <ele>190</ele>
        <time>2020-05-24T13:23:03Z</time>
      </trkpt>
      <trkpt lat="43.65305" lon="1.42128">
        <ele>189.994</ele>
        <time>2020-05-24T13:23:08Z</time>
      </trkpt>
      <trkpt lat="43.6532" lon="1.42111">
        <ele>189.987</ele>
        <time>2020-05-24T13:23:14Z</time>
      </trkpt>
      <trkpt lat="43.65333" lon="1.42095">
        <ele>189.984</ele>
        <time>2020-05-24T13:23:20Z</time>
      </trkpt>
      <trkpt lat="43.6535" lon="1.42076">
        <ele>189.98</ele>
        <time>2020-05-24T13:23:26Z</time>
      </trkpt>
      <trkpt lat="43.65359" lon="1.42062">
        <ele>189.976</ele>
        <time>2020-05-24T13:23:32Z</time>
      </trkpt>
      <trkpt lat="43.65367" lon="1.42047">
        <ele>189.974</ele>
        <time>2020-05-24T13:23:38Z</time>
      </trkpt>
      <trkpt lat="43.65382" lon="1.42025">
        <ele>189.973</ele>
        <time>2020-05-24T13:23:44Z</time>
      </trkpt>
      <trkpt lat="43.65402" lon="1.42">
        <ele>189.981</ele>
        <time>2020-05-24T13:23:50Z</time>
      </trkpt>
      <trkpt lat="43.65412" lon="1.41983">
        <ele>189.996</ele>
        <time>2020-05-24T13:23:56Z</time>
      </trkpt>
      <trkpt lat="43.65423" lon="1.41962">
        <ele>190.007</ele>
        <time>2020-05-24T13:24:02Z</time>
      </trkpt>
      <trkpt lat="43.65426" lon="1.41951">
        <ele>190.018</ele>
        <time>2020-05-24T13:24:07Z</time>
      </trkpt>
      <trkpt lat="43.65428" lon="1.41939">
        <ele>190.03</ele>
        <time>2020-05-24T13:24:13Z</time>
      </trkpt>
      <trkpt lat="43.65428" lon="1.41932">
        <ele>190.037</ele>
        <time>2020-05-24T13:24:18Z</time>
      </trkpt>
      <trkpt lat="43.65422" lon="1.41919">
        <ele>190.047</ele>
        <time>2020-05-24T13:24:24Z</time>
      </trkpt>
      <trkpt lat="43.6541" lon="1.41913">
        <ele>190.05</ele>
        <time>2020-05-24T13:24:29Z</time>
      </trkpt>
      <trkpt lat="43.65399" lon="1.41907">
        <ele>190.052</ele>
        <time>2020-05-24T13:24:34Z</time>
      </trkpt>
      <trkpt lat="43.6539" lon="1.41898">
        <ele>190.051</ele>
        <time>2020-05-24T13:24:40Z</time>
      </trkpt>
      <trkpt lat="43.65394" lon="1.41891">
        <ele>190.045</ele>
        <time>2020-05-24T13:24:45Z</time>
      </trkpt>
      <trkpt lat="43.65395" lon="1.41881">
        <ele>190.037</ele>
        <time>2020-05-24T13:24:51Z</time>
      </trkpt>
      <trkpt lat="43.65395" lon="1.41879">
        <ele>190.038</ele>
        <time>2020-05-24T13:24:56Z</time>
      </trkpt>
      <trkpt lat="43.65404" lon="1.41869">
        <ele>190.049</ele>
        <time>2020-05-24T13:25:02Z</time>
      </trkpt>
      <trkpt lat="43.65418" lon="1.41855">
        <ele>190.063</ele>
        <time>2020-05-24T13:25:07Z</time>
      </trkpt>
      <trkpt lat="43.65419" lon="1.41837">
        <ele>190.077</ele>
        <time>2020-05-24T13:25:13Z</time>
      </trkpt>
      <trkpt lat="43.65416" lon="1.41816">
        <ele>190.086</ele>
        <time>2020-05-24T13:25:19Z</time>
      </trkpt>
      <trkpt lat="43.65413" lon="1.41799">
        <ele>190.09</ele>
        <time>2020-05-24T13:25:24Z</time>
      </trkpt>
      <trkpt lat="43.65409" lon="1.41778">
        <ele>190.094</ele>
        <time>2020-05-24T13:25:30Z</time>
      </trkpt>
      <trkpt lat="43.65406" lon="1.41756">
        <ele>190.096</ele>
        <time>2020-05-24T13:25:36Z</time>
      </trkpt>
      <trkpt lat="43.654" lon="1.41732">
        <ele>190.101</ele>
        <time>2020-05-24T13:25:42Z</time>
      </trkpt>
      <trkpt lat="43.65396" lon="1.41714">
        <ele>190.105</ele>
        <time>2020-05-24T13:25:47Z</time>
      </trkpt>
      <trkpt lat="43.65392" lon="1.41697">
        <ele>190.11</ele>
        <time>2020-05-24T13:25:52Z</time>
      </trkpt>
      <trkpt lat="43.65386" lon="1.41676">
        <ele>190.109</ele>
        <time>2020-05-24T13:25:58Z</time>
      </trkpt>
      <trkpt lat="43.65379" lon="1.41649">
        <ele>190.099</ele>
        <time>2020-05-24T13:26:04Z</time>
      </trkpt>
      <trkpt lat="43.65376" lon="1.41628">
        <ele>190.081</ele>
        <time>2020-05-24T13:26:09Z</time>
      </trkpt>
      <trkpt lat="43.65372" lon="1.41603">
        <ele>190.054</ele>
        <time>2020-05-24T13:26:15Z</time>
      </trkpt>
      <trkpt lat="43.65368" lon="1.41579">
        <ele>190.022</ele>
        <time>2020-05-24T13:26:21Z</time>
      </trkpt>
      <trkpt lat="43.65362" lon="1.41561">
        <ele>189.992</ele>
        <time>2020-05-24T13:26:26Z</time>
      </trkpt>
      <trkpt lat="43.65356" lon="1.41552">
        <ele>189.954</ele>
        <time>2020-05-24T13:26:32Z</time>
      </trkpt>
      <trkpt lat="43.65354" lon="1.41547">
        <ele>189.927</ele>
        <time>2020-05-24T13:26:37Z</time>
      </trkpt>
      <trkpt lat="43.65352" lon="1.41542">
        <ele>189.89</ele>
        <time>2020-05-24T13:26:42Z</time>
      </trkpt>
      <trkpt lat="43.65352" lon="1.4154">
        <ele>189.881</ele>
        <time>2020-05-24T13:26:47Z</time>
      </trkpt>
      <trkpt lat="43.65351" lon="1.41539">
        <ele>189.878</ele>
        <time>2020-05-24T13:26:53Z</time>
      </trkpt>
      <trkpt lat="43.65351" lon="1.41537">
        <ele>189.876</ele>
        <time>2020-05-24T13:26:58Z</time>
      </trkpt>
      <trkpt lat="43.65352" lon="1.41537">
        <ele>189.878</ele>
        <time>2020-05-24T13:27:03Z</time>
      </trkpt>
      <trkpt lat="43.6535" lon="1.41536">
        <ele>189.893</ele>
        <time>2020-05-24T13:27:09Z</time>
      </trkpt>
      <trkpt lat="43.6535" lon="1.41536">
        <ele>189.897</ele>
        <time>2020-05-24T13:27:15Z</time>
      </trkpt>
      <trkpt lat="43.6535" lon="1.41535">
        <ele>189.902</ele>
        <time>2020-05-24T13:27:20Z</time>
      </trkpt>
      <trkpt lat="43.6535" lon="1.41536">
        <ele>189.908</ele>
        <time>2020-05-24T13:27:26Z</time>
      </trkpt>
      <trkpt lat="43.65351" lon="1.41536">
        <ele>189.912</ele>
        <time>2020-05-24T13:27:32Z</time>
      </trkpt>
      <trkpt lat="43.65351" lon="1.41536">
        <ele>189.914</ele>
        <time>2020-05-24T13:27:38Z</time>
      </trkpt>
      <trkpt lat="43.65351" lon="1.41536">
        <ele>189.913</ele>
        <time>2020-05-24T13:27:43Z</time>
      </trkpt>
      <trkpt lat="43.65351" lon="1.41536">
        <ele>189.912</ele>
        <time>2020-05-24T13:27:48Z</time>
      </trkpt>
      <trkpt lat="43.65351" lon="1.41537">
        <ele>189.91</ele>
        <time>2020-05-24T13:27:54Z</time>
      </trkpt>
      <trkpt lat="43.65351" lon="1.41537">
        <ele>189.91</ele>
        <time>2020-05-24T13:28:00Z</time>
      </trkpt>
      <trkpt lat="43.65352" lon="1.41537">
        <ele>189.91</ele>
        <time>2020-05-24T13:28:05Z</time>
      </trkpt>
      <trkpt lat="43.65352" lon="1.41537">
        <ele>189.907</ele>
        <time>2020-05-24T13:28:10Z</time>
      </trkpt>
      <trkpt lat="43.65352" lon="1.41538">
        <ele>189.903</ele>
        <time>2020-05-24T13:28:15Z</time>
      </trkpt>
      <trkpt lat="43.65354" lon="1.41539">
        <ele>189.881</ele>
        <time>2020-05-24T13:28:20Z</time>
      </trkpt>
      <trkpt lat="43.65352" lon="1.4154">
        <ele>189.835</ele>
        <time>2020-05-24T13:28:26Z</time>
      </trkpt>
      <trkpt lat="43.65353" lon="1.4154">
        <ele>189.832</ele>
        <time>2020-05-24T13:28:32Z</time>
      </trkpt>
      <trkpt lat="43.65353" lon="1.4154">
        <ele>189.831</ele>
        <time>2020-05-24T13:28:38Z</time>
      </trkpt>
      <trkpt lat="43.65353" lon="1.4154">
        <ele>189.829</ele>
        <time>2020-05-24T13:28:44Z</time>
      </trkpt>
      <trkpt lat="43.65354" lon="1.4154">
        <ele>189.828</ele>
        <time>2020-05-24T13:28:49Z</time>
      </trkpt>
      <trkpt lat="43.65354" lon="1.4154">
        <ele>189.825</ele>
        <time>2020-05-24T13:28:55Z</time>
      </trkpt>
      <trkpt lat="43.65354" lon="1.41541">
        <ele>189.82</ele>
        <time>2020-05-24T13:29:00Z</time>
      </trkpt>
      <trkpt lat="43.65354" lon="1.41541">
        <ele>189.813</ele>
        <time>2020-05-24T13:29:06Z</time>
      </trkpt>
      <trkpt lat="43.65355" lon="1.4154">
        <ele>189.805</ele>
        <time>2020-05-24T13:29:12Z</time>
      </trkpt>
      <trkpt lat="43.65355" lon="1.4154">
        <ele>189.796</ele>
        <time>2020-05-24T13:29:18Z</time>
      </trkpt>
      <trkpt lat="43.65355" lon="1.4154">
        <ele>189.788</ele>
        <time>2020-05-24T13:29:23Z</time>
      </trkpt>
      <trkpt lat="43.65355" lon="1.41541">
        <ele>189.782</ele>
        <time>2020-05-24T13:29:28Z</time>
      </trkpt>
      <trkpt lat="43.65355" lon="1.41541">
        <ele>189.777</ele>
        <time>2020-05-24T13:29:34Z</time>
      </trkpt>
      <trkpt lat="43.65355" lon="1.41544">
        <ele>189.753</ele>
        <time>2020-05-24T13:29:40Z</time>
      </trkpt>
      <trkpt lat="43.65355" lon="1.41546">
        <ele>189.729</ele>
        <time>2020-05-24T13:29:45Z</time>
      </trkpt>
      <trkpt lat="43.65355" lon="1.41546">
        <ele>189.726</ele>
        <time>2020-05-24T13:29:51Z</time>
      </trkpt>
      <trkpt lat="43.65355" lon="1.41546">
        <ele>189.723</ele>
        <time>2020-05-24T13:29:57Z</time>
      </trkpt>
      <trkpt lat="43.65354" lon="1.41546">
        <ele>189.721</ele>
        <time>2020-05-24T13:30:02Z</time>
      </trkpt>
      <trkpt lat="43.65354" lon="1.41547">
        <ele>189.71</ele>
        <time>2020-05-24T13:30:08Z</time>
      </trkpt>
      <trkpt lat="43.65353" lon="1.41547">
        <ele>189.703</ele>
        <time>2020-05-24T13:30:13Z</time>
      </trkpt>
      <trkpt lat="43.65353" lon="1.41546">
        <ele>189.693</ele>
        <time>2020-05-24T13:30:18Z</time>
      </trkpt>
      <trkpt lat="43.65353" lon="1.41545">
        <ele>189.683</ele>
        <time>2020-05-24T13:30:23Z</time>
      </trkpt>
      <trkpt lat="43.65353" lon="1.41545">
        <ele>189.681</ele>
        <time>2020-05-24T13:30:29Z</time>
      </trkpt>
      <trkpt lat="43.65354" lon="1.41544">
        <ele>189.682</ele>
        <time>2020-05-24T13:30:35Z</time>
      </trkpt>
      <trkpt lat="43.65354" lon="1.41544">
        <ele>189.684</ele>
        <time>2020-05-24T13:30:41Z</time>
      </trkpt>
      <trkpt lat="43.65354" lon="1.41544">
        <ele>189.687</ele>
        <time>2020-05-24T13:30:47Z</time>
      </trkpt>
      <trkpt lat="43.65354" lon="1.41544">
        <ele>189.697</ele>
        <time>2020-05-24T13:30:52Z</time>
      </trkpt>
      <trkpt lat="43.65352" lon="1.41543">
        <ele>189.71</ele>
        <time>2020-05-24T13:30:58Z</time>
      </trkpt>
      <trkpt lat="43.65354" lon="1.41545">
        <ele>189.748</ele>
        <time>2020-05-24T13:31:04Z</time>
      </trkpt>
      <trkpt lat="43.65355" lon="1.41546">
        <ele>189.771</ele>
        <time>2020-05-24T13:31:09Z</time>
      </trkpt>
      <trkpt lat="43.65354" lon="1.41546">
        <ele>189.789</ele>
        <time>2020-05-24T13:31:14Z</time>
      </trkpt>
      <trkpt lat="43.65352" lon="1.41545">
        <ele>189.796</ele>
        <time>2020-05-24T13:31:20Z</time>
      </trkpt>
      <trkpt lat="43.65352" lon="1.41544">
        <ele>189.799</ele>
        <time>2020-05-24T13:31:26Z</time>
      </trkpt>
      <trkpt lat="43.65352" lon="1.41544">
        <ele>189.801</ele>
        <time>2020-05-24T13:31:32Z</time>
      </trkpt>
      <trkpt lat="43.65352" lon="1.41544">
        <ele>189.802</ele>
        <time>2020-05-24T13:31:37Z</time>
      </trkpt>
      <trkpt lat="43.65352" lon="1.41543">
        <ele>189.802</ele>
        <time>2020-05-24T13:31:42Z</time>
      </trkpt>
      <trkpt lat="43.65352" lon="1.41543">
        <ele>189.8</ele>
        <time>2020-05-24T13:31:48Z</time>
      </trkpt>
      <trkpt lat="43.65352" lon="1.41543">
        <ele>189.797</ele>
        <time>2020-05-24T13:31:54Z</time>
      </trkpt>
      <trkpt lat="43.65353" lon="1.41542">
        <ele>189.767</ele>
        <time>2020-05-24T13:31:59Z</time>
      </trkpt>
      <trkpt lat="43.65353" lon="1.41543">
        <ele>189.743</ele>
        <time>2020-05-24T13:32:05Z</time>
      </trkpt>
      <trkpt lat="43.65345" lon="1.41548">
        <ele>189.709</ele>
        <time>2020-05-24T13:32:11Z</time>
      </trkpt>
      <trkpt lat="43.65329" lon="1.41564">
        <ele>189.679</ele>
        <time>2020-05-24T13:32:17Z</time>
      </trkpt>
      <trkpt lat="43.65317" lon="1.41576">
        <ele>189.659</ele>
        <time>2020-05-24T13:32:22Z</time>
      </trkpt>
      <trkpt lat="43.65304" lon="1.4159">
        <ele>189.636</ele>
        <time>2020-05-24T13:32:28Z</time>
      </trkpt>
      <trkpt lat="43.65293" lon="1.416">
        <ele>189.615</ele>
        <time>2020-05-24T13:32:34Z</time>
      </trkpt>
      <trkpt lat="43.65284" lon="1.41608">
        <ele>189.596</ele>
        <time>2020-05-24T13:32:39Z</time>
      </trkpt>
      <trkpt lat="43.65274" lon="1.41617">
        <ele>189.58</ele>
        <time>2020-05-24T13:32:45Z</time>
      </trkpt>
      <trkpt lat="43.65268" lon="1.41622">
        <ele>189.575</ele>
        <time>2020-05-24T13:32:50Z</time>
      </trkpt>
      <trkpt lat="43.65259" lon="1.41632">
        <ele>189.582</ele>
        <time>2020-05-24T13:32:55Z</time>
      </trkpt>
      <trkpt lat="43.65243" lon="1.41646">
        <ele>189.597</ele>
        <time>2020-05-24T13:33:01Z</time>
      </trkpt>
      <trkpt lat="43.65231" lon="1.41656">
        <ele>189.614</ele>
        <time>2020-05-24T13:33:06Z</time>
      </trkpt>
      <trkpt lat="43.65217" lon="1.41667">
        <ele>189.634</ele>
        <time>2020-05-24T13:33:12Z</time>
      </trkpt>
      <trkpt lat="43.65202" lon="1.4168">
        <ele>189.658</ele>
        <time>2020-05-24T13:33:18Z</time>
      </trkpt>
      <trkpt lat="43.6519" lon="1.41693">
        <ele>189.689</ele>
        <time>2020-05-24T13:33:24Z</time>
      </trkpt>
      <trkpt lat="43.65179" lon="1.41707">
        <ele>189.716</ele>
        <time>2020-05-24T13:33:29Z</time>
      </trkpt>
      <trkpt lat="43.65165" lon="1.41721">
        <ele>189.751</ele>
        <time>2020-05-24T13:33:35Z</time>
      </trkpt>
      <trkpt lat="43.6515" lon="1.41734">
        <ele>189.786</ele>
        <time>2020-05-24T13:33:41Z</time>
      </trkpt>
      <trkpt lat="43.65136" lon="1.41745">
        <ele>189.815</ele>
        <time>2020-05-24T13:33:46Z</time>
      </trkpt>
      <trkpt lat="43.65125" lon="1.41756">
        <ele>189.847</ele>
        <time>2020-05-24T13:33:51Z</time>
      </trkpt>
      <trkpt lat="43.65117" lon="1.41774">
        <ele>189.883</ele>
        <time>2020-05-24T13:33:57Z</time>
      </trkpt>
      <trkpt lat="43.65116" lon="1.41781">
        <ele>189.903</ele>
        <time>2020-05-24T13:34:02Z</time>
      </trkpt>
      <trkpt lat="43.65109" lon="1.41791">
        <ele>189.921</ele>
        <time>2020-05-24T13:34:08Z</time>
      </trkpt>
      <trkpt lat="43.65103" lon="1.41802">
        <ele>189.94</ele>
        <time>2020-05-24T13:34:14Z</time>
      </trkpt>
      <trkpt lat="43.65096" lon="1.41812">
        <ele>189.961</ele>
        <time>2020-05-24T13:34:20Z</time>
      </trkpt>
      <trkpt lat="43.65089" lon="1.41814">
        <ele>189.977</ele>
        <time>2020-05-24T13:34:26Z</time>
      </trkpt>
      <trkpt lat="43.65086" lon="1.41811">
        <ele>189.988</ele>
        <time>2020-05-24T13:34:31Z</time>
      </trkpt>
      <trkpt lat="43.65083" lon="1.41813">
        <ele>189.994</ele>
        <time>2020-05-24T13:34:36Z</time>
      </trkpt>
      <trkpt lat="43.65082" lon="1.41814">
        <ele>189.992</ele>
        <time>2020-05-24T13:34:42Z</time>
      </trkpt>
      <trkpt lat="43.65082" lon="1.41814">
        <ele>189.99</ele>
        <time>2020-05-24T13:34:48Z</time>
      </trkpt>
      <trkpt lat="43.65082" lon="1.41812">
        <ele>189.973</ele>
        <time>2020-05-24T13:34:53Z</time>
      </trkpt>
      <trkpt lat="43.65082" lon="1.41808">
        <ele>189.963</ele>
        <time>2020-05-24T13:34:59Z</time>
      </trkpt>
      <trkpt lat="43.65083" lon="1.41807">
        <ele>189.937</ele>
        <time>2020-05-24T13:35:04Z</time>
      </trkpt>
      <trkpt lat="43.65084" lon="1.41807">
        <ele>189.907</ele>
        <time>2020-05-24T13:35:10Z</time>
      </trkpt>
      <trkpt lat="43.65087" lon="1.41808">
        <ele>189.865</ele>
        <time>2020-05-24T13:35:16Z</time>
      </trkpt>
      <trkpt lat="43.65088" lon="1.41809">
        <ele>189.856</ele>
        <time>2020-05-24T13:35:21Z</time>
      </trkpt>
      <trkpt lat="43.65088" lon="1.41809">
        <ele>189.845</ele>
        <time>2020-05-24T13:35:26Z</time>
      </trkpt>
      <trkpt lat="43.65088" lon="1.41809">
        <ele>189.821</ele>
        <time>2020-05-24T13:35:32Z</time>
      </trkpt>
      <trkpt lat="43.65088" lon="1.4181">
        <ele>189.814</ele>
        <time>2020-05-24T13:35:38Z</time>
      </trkpt>
      <trkpt lat="43.65088" lon="1.4181">
        <ele>189.809</ele>
        <time>2020-05-24T13:35:43Z</time>
      </trkpt>
      <trkpt lat="43.65088" lon="1.4181">
        <ele>189.801</ele>
        <time>2020-05-24T13:35:49Z</time>
      </trkpt>
      <trkpt lat="43.65086" lon="1.4181">
        <ele>189.724</ele>
        <time>2020-05-24T13:35:55Z</time>
      </trkpt>
      <trkpt lat="43.65083" lon="1.41814">
        <ele>189.649</ele>
        <time>2020-05-24T13:36:00Z</time>
      </trkpt>
      <trkpt lat="43.65081" lon="1.41814">
        <ele>189.615</ele>
        <time>2020-05-24T13:36:06Z</time>
      </trkpt>
      <trkpt lat="43.65081" lon="1.41815">
        <ele>189.599</ele>
        <time>2020-05-24T13:36:12Z</time>
      </trkpt>
      <trkpt lat="43.65081" lon="1.41816">
        <ele>189.582</ele>
        <time>2020-05-24T13:36:18Z</time>
      </trkpt>
      <trkpt lat="43.65084" lon="1.41814">
        <ele>189.467</ele>
        <time>2020-05-24T13:36:23Z</time>
      </trkpt>
      <trkpt lat="43.65084" lon="1.41818">
        <ele>189.345</ele>
        <time>2020-05-24T13:36:29Z</time>
      </trkpt>
      <trkpt lat="43.65084" lon="1.41818">
        <ele>189.328</ele>
        <time>2020-05-24T13:36:35Z</time>
      </trkpt>
      <trkpt lat="43.65084" lon="1.41814">
        <ele>189.186</ele>
        <time>2020-05-24T13:36:41Z</time>
      </trkpt>
      <trkpt lat="43.65085" lon="1.41812">
        <ele>189.104</ele>
        <time>2020-05-24T13:36:47Z</time>
      </trkpt>
      <trkpt lat="43.65085" lon="1.41813">
        <ele>189.092</ele>
        <time>2020-05-24T13:36:52Z</time>
      </trkpt>
      <trkpt lat="43.65085" lon="1.41812">
        <ele>189.016</ele>
        <time>2020-05-24T13:36:58Z</time>
      </trkpt>
      <trkpt lat="43.65085" lon="1.41811">
        <ele>188.956</ele>
        <time>2020-05-24T13:37:04Z</time>
      </trkpt>
      <trkpt lat="43.65085" lon="1.4181">
        <ele>188.944</ele>
        <time>2020-05-24T13:37:09Z</time>
      </trkpt>
      <trkpt lat="43.65085" lon="1.41811">
        <ele>188.907</ele>
        <time>2020-05-24T13:37:15Z</time>
      </trkpt>
      <trkpt lat="43.65086" lon="1.41811">
        <ele>188.852</ele>
        <time>2020-05-24T13:37:20Z</time>
      </trkpt>
      <trkpt lat="43.65085" lon="1.41809">
        <ele>188.757</ele>
        <time>2020-05-24T13:37:25Z</time>
      </trkpt>
      <trkpt lat="43.65085" lon="1.41809">
        <ele>188.746</ele>
        <time>2020-05-24T13:37:30Z</time>
      </trkpt>
      <trkpt lat="43.65085" lon="1.41808">
        <ele>188.731</ele>
        <time>2020-05-24T13:37:36Z</time>
      </trkpt>
      <trkpt lat="43.65084" lon="1.41808">
        <ele>188.719</ele>
        <time>2020-05-24T13:37:41Z</time>
      </trkpt>
      <trkpt lat="43.65085" lon="1.41808">
        <ele>188.704</ele>
        <time>2020-05-24T13:37:47Z</time>
      </trkpt>
      <trkpt lat="43.65085" lon="1.41808">
        <ele>188.692</ele>
        <time>2020-05-24T13:37:52Z</time>
      </trkpt>
      <trkpt lat="43.65085" lon="1.41808">
        <ele>188.679</ele>
        <time>2020-05-24T13:37:57Z</time>
      </trkpt>
      <trkpt lat="43.65085" lon="1.41808">
        <ele>188.664</ele>
        <time>2020-05-24T13:38:03Z</time>
      </trkpt>
      <trkpt lat="43.65084" lon="1.41808">
        <ele>188.649</ele>
        <time>2020-05-24T13:38:08Z</time>
      </trkpt>
      <trkpt lat="43.65084" lon="1.41808">
        <ele>188.633</ele>
        <time>2020-05-24T13:38:13Z</time>
      </trkpt>
      <trkpt lat="43.65084" lon="1.41808">
        <ele>188.616</ele>
        <time>2020-05-24T13:38:18Z</time>
      </trkpt>
      <trkpt lat="43.65084" lon="1.41808">
        <ele>188.594</ele>
        <time>2020-05-24T13:38:24Z</time>
      </trkpt>
      <trkpt lat="43.65085" lon="1.41809">
        <ele>188.575</ele>
        <time>2020-05-24T13:38:29Z</time>
      </trkpt>
      <trkpt lat="43.65084" lon="1.41809">
        <ele>188.552</ele>
        <time>2020-05-24T13:38:35Z</time>
      </trkpt>
      <trkpt lat="43.65084" lon="1.41809">
        <ele>188.529</ele>
        <time>2020-05-24T13:38:41Z</time>
      </trkpt>
      <trkpt lat="43.65084" lon="1.41809">
        <ele>188.504</ele>
        <time>2020-05-24T13:38:48Z</time>
      </trkpt>
      <trkpt lat="43.65084" lon="1.41809">
        <ele>188.485</ele>
        <time>2020-05-24T13:38:53Z</time>
      </trkpt>
      <trkpt lat="43.65085" lon="1.41809">
        <ele>184.506</ele>
        <time>2020-05-24T14:07:19Z</time>
      </trkpt>
      <trkpt lat="43.65085" lon="1.41808">
        <ele>184.471</ele>
        <time>2020-05-24T14:07:24Z</time>
      </trkpt>
      <trkpt lat="43.65084" lon="1.41806">
        <ele>184.421</ele>
        <time>2020-05-24T14:07:29Z</time>
      </trkpt>
      <trkpt lat="43.65084" lon="1.41806">
        <ele>184.407</ele>
        <time>2020-05-24T14:07:35Z</time>
      </trkpt>
      <trkpt lat="43.65084" lon="1.41805">
        <ele>184.393</ele>
        <time>2020-05-24T14:07:41Z</time>
      </trkpt>
      <trkpt lat="43.65081" lon="1.41804">
        <ele>184.348</ele>
        <time>2020-05-24T14:07:46Z</time>
      </trkpt>
      <trkpt lat="43.65073" lon="1.41788">
        <ele>184.301</ele>
        <time>2020-05-24T14:07:52Z</time>
      </trkpt>
      <trkpt lat="43.65057" lon="1.41771">
        <ele>184.26</ele>
        <time>2020-05-24T14:07:58Z</time>
      </trkpt>
      <trkpt lat="43.65037" lon="1.41772">
        <ele>184.222</ele>
        <time>2020-05-24T14:08:04Z</time>
      </trkpt>
      <trkpt lat="43.65018" lon="1.41772">
        <ele>184.19</ele>
        <time>2020-05-24T14:08:09Z</time>
      </trkpt>
      <trkpt lat="43.65006" lon="1.41777">
        <ele>184.161</ele>
        <time>2020-05-24T14:08:14Z</time>
      </trkpt>
      <trkpt lat="43.64993" lon="1.4178">
        <ele>184.13</ele>
        <time>2020-05-24T14:08:20Z</time>
      </trkpt>
      <trkpt lat="43.64976" lon="1.41785">
        <ele>184.102</ele>
        <time>2020-05-24T14:08:26Z</time>
      </trkpt>
      <trkpt lat="43.64972" lon="1.41787">
        <ele>184.083</ele>
        <time>2020-05-24T14:08:31Z</time>
      </trkpt>
      <trkpt lat="43.64965" lon="1.41788">
        <ele>184.067</ele>
        <time>2020-05-24T14:08:37Z</time>
      </trkpt>
      <trkpt lat="43.64955" lon="1.41785">
        <ele>184.053</ele>
        <time>2020-05-24T14:08:42Z</time>
      </trkpt>
      <trkpt lat="43.64947" lon="1.41777">
        <ele>184.042</ele>
        <time>2020-05-24T14:08:47Z</time>
      </trkpt>
      <trkpt lat="43.6494" lon="1.41773">
        <ele>184.034</ele>
        <time>2020-05-24T14:08:52Z</time>
      </trkpt>
      <trkpt lat="43.64925" lon="1.41766">
        <ele>184.028</ele>
        <time>2020-05-24T14:08:58Z</time>
      </trkpt>
      <trkpt lat="43.64911" lon="1.41765">
        <ele>184.028</ele>
        <time>2020-05-24T14:09:03Z</time>
      </trkpt>
      <trkpt lat="43.64897" lon="1.4177">
        <ele>184.032</ele>
        <time>2020-05-24T14:09:09Z</time>
      </trkpt>
      <trkpt lat="43.64881" lon="1.41773">
        <ele>184.035</ele>
        <time>2020-05-24T14:09:14Z</time>
      </trkpt>
      <trkpt lat="43.64866" lon="1.41779">
        <ele>184.038</ele>
        <time>2020-05-24T14:09:19Z</time>
      </trkpt>
      <trkpt lat="43.64849" lon="1.41791">
        <ele>184.047</ele>
        <time>2020-05-24T14:09:25Z</time>
      </trkpt>
      <trkpt lat="43.64835" lon="1.41809">
        <ele>184.055</ele>
        <time>2020-05-24T14:09:31Z</time>
      </trkpt>
      <trkpt lat="43.6483" lon="1.41826">
        <ele>184.061</ele>
        <time>2020-05-24T14:09:36Z</time>
      </trkpt>
      <trkpt lat="43.64825" lon="1.41851">
        <ele>184.068</ele>
        <time>2020-05-24T14:09:42Z</time>
      </trkpt>
      <trkpt lat="43.6482" lon="1.41874">
        <ele>184.074</ele>
        <time>2020-05-24T14:09:47Z</time>
      </trkpt>
      <trkpt lat="43.6482" lon="1.419">
        <ele>184.083</ele>
        <time>2020-05-24T14:09:53Z</time>
      </trkpt>
      <trkpt lat="43.64825" lon="1.41916">
        <ele>184.091</ele>
        <time>2020-05-24T14:09:58Z</time>
      </trkpt>
      <trkpt lat="43.64829" lon="1.41939">
        <ele>184.101</ele>
        <time>2020-05-24T14:10:04Z</time>
      </trkpt>
      <trkpt lat="43.64832" lon="1.4196">
        <ele>184.109</ele>
        <time>2020-05-24T14:10:09Z</time>
      </trkpt>
      <trkpt lat="43.64837" lon="1.41975">
        <ele>184.117</ele>
        <time>2020-05-24T14:10:15Z</time>
      </trkpt>
      <trkpt lat="43.64845" lon="1.41992">
        <ele>184.129</ele>
        <time>2020-05-24T14:10:21Z</time>
      </trkpt>
      <trkpt lat="43.64849" lon="1.42001">
        <ele>184.139</ele>
        <time>2020-05-24T14:10:26Z</time>
      </trkpt>
      <trkpt lat="43.64863" lon="1.42014">
        <ele>184.153</ele>
        <time>2020-05-24T14:10:32Z</time>
      </trkpt>
      <trkpt lat="43.64881" lon="1.42019">
        <ele>184.168</ele>
        <time>2020-05-24T14:10:38Z</time>
      </trkpt>
      <trkpt lat="43.64894" lon="1.42017">
        <ele>184.179</ele>
        <time>2020-05-24T14:10:43Z</time>
      </trkpt>
      <trkpt lat="43.64905" lon="1.42018">
        <ele>184.193</ele>
        <time>2020-05-24T14:10:49Z</time>
      </trkpt>
      <trkpt lat="43.64913" lon="1.42022">
        <ele>184.205</ele>
        <time>2020-05-24T14:10:54Z</time>
      </trkpt>
      <trkpt lat="43.64929" lon="1.42026">
        <ele>184.216</ele>
        <time>2020-05-24T14:11:00Z</time>
      </trkpt>
      <trkpt lat="43.64947" lon="1.4203">
        <ele>184.226</ele>
        <time>2020-05-24T14:11:06Z</time>
      </trkpt>
      <trkpt lat="43.64964" lon="1.42037">
        <ele>184.234</ele>
        <time>2020-05-24T14:11:12Z</time>
      </trkpt>
      <trkpt lat="43.6498" lon="1.42042">
        <ele>184.243</ele>
        <time>2020-05-24T14:11:17Z</time>
      </trkpt>
      <trkpt lat="43.64996" lon="1.42045">
        <ele>184.252</ele>
        <time>2020-05-24T14:11:23Z</time>
      </trkpt>
      <trkpt lat="43.65013" lon="1.42041">
        <ele>184.255</ele>
        <time>2020-05-24T14:11:29Z</time>
      </trkpt>
      <trkpt lat="43.65027" lon="1.42035">
        <ele>184.257</ele>
        <time>2020-05-24T14:11:34Z</time>
      </trkpt>
      <trkpt lat="43.65036" lon="1.42029">
        <ele>184.256</ele>
        <time>2020-05-24T14:11:39Z</time>
      </trkpt>
      <trkpt lat="43.65053" lon="1.42025">
        <ele>184.253</ele>
        <time>2020-05-24T14:11:45Z</time>
      </trkpt>
      <trkpt lat="43.65066" lon="1.42018">
        <ele>184.252</ele>
        <time>2020-05-24T14:11:50Z</time>
      </trkpt>
      <trkpt lat="43.65078" lon="1.42012">
        <ele>184.252</ele>
        <time>2020-05-24T14:11:56Z</time>
      </trkpt>
      <trkpt lat="43.65089" lon="1.42007">
        <ele>184.255</ele>
        <time>2020-05-24T14:12:01Z</time>
      </trkpt>
      <trkpt lat="43.65104" lon="1.42">
        <ele>184.262</ele>
        <time>2020-05-24T14:12:07Z</time>
      </trkpt>
      <trkpt lat="43.6512" lon="1.41997">
        <ele>184.278</ele>
        <time>2020-05-24T14:12:13Z</time>
      </trkpt>
      <trkpt lat="43.65133" lon="1.41998">
        <ele>184.293</ele>
        <time>2020-05-24T14:12:18Z</time>
      </trkpt>
      <trkpt lat="43.65141" lon="1.41998">
        <ele>184.311</ele>
        <time>2020-05-24T14:12:24Z</time>
      </trkpt>
      <trkpt lat="43.6515" lon="1.41998">
        <ele>184.322</ele>
        <time>2020-05-24T14:12:29Z</time>
      </trkpt>
      <trkpt lat="43.65164" lon="1.41996">
        <ele>184.331</ele>
        <time>2020-05-24T14:12:35Z</time>
      </trkpt>
      <trkpt lat="43.65176" lon="1.41996">
        <ele>184.335</ele>
        <time>2020-05-24T14:12:40Z</time>
      </trkpt>
      <trkpt lat="43.6519" lon="1.41993">
        <ele>184.332</ele>
        <time>2020-05-24T14:12:45Z</time>
      </trkpt>
      <trkpt lat="43.65208" lon="1.41994">
        <ele>184.326</ele>
        <time>2020-05-24T14:12:50Z</time>
      </trkpt>
      <trkpt lat="43.65225" lon="1.42">
        <ele>184.316</ele>
        <time>2020-05-24T14:12:56Z</time>
      </trkpt>
      <trkpt lat="43.65235" lon="1.42001">
        <ele>184.3</ele>
        <time>2020-05-24T14:13:01Z</time>
      </trkpt>
      <trkpt lat="43.65232" lon="1.41996">
        <ele>184.285</ele>
        <time>2020-05-24T14:13:07Z</time>
      </trkpt>
      <trkpt lat="43.6523" lon="1.41997">
        <ele>184.276</ele>
        <time>2020-05-24T14:13:12Z</time>
      </trkpt>
      <trkpt lat="43.6523" lon="1.41997">
        <ele>184.276</ele>
        <time>2020-05-24T14:13:18Z</time>
      </trkpt>
      <trkpt lat="43.6523" lon="1.41996">
        <ele>184.279</ele>
        <time>2020-05-24T14:13:23Z</time>
      </trkpt>
      <trkpt lat="43.6523" lon="1.41996">
        <ele>184.283</ele>
        <time>2020-05-24T14:13:29Z</time>
      </trkpt>
      <trkpt lat="43.6523" lon="1.41996">
        <ele>184.284</ele>
        <time>2020-05-24T14:13:34Z</time>
      </trkpt>
      <trkpt lat="43.6523" lon="1.41995">
        <ele>184.285</ele>
        <time>2020-05-24T14:13:39Z</time>
      </trkpt>
      <trkpt lat="43.6523" lon="1.41994">
        <ele>184.287</ele>
        <time>2020-05-24T14:13:45Z</time>
      </trkpt>
      <trkpt lat="43.65229" lon="1.41995">
        <ele>184.29</ele>
        <time>2020-05-24T14:13:51Z</time>
      </trkpt>
      <trkpt lat="43.6523" lon="1.41995">
        <ele>184.292</ele>
        <time>2020-05-24T14:13:56Z</time>
      </trkpt>
      <trkpt lat="43.6523" lon="1.41995">
        <ele>184.294</ele>
        <time>2020-05-24T14:14:02Z</time>
      </trkpt>
      <trkpt lat="43.6523" lon="1.41995">
        <ele>184.296</ele>
        <time>2020-05-24T14:14:07Z</time>
      </trkpt>
      <trkpt lat="43.6523" lon="1.41995">
        <ele>184.299</ele>
        <time>2020-05-24T14:14:13Z</time>
      </trkpt>
      <trkpt lat="43.6523" lon="1.41995">
        <ele>184.303</ele>
        <time>2020-05-24T14:14:18Z</time>
      </trkpt>
      <trkpt lat="43.6523" lon="1.41995">
        <ele>184.308</ele>
        <time>2020-05-24T14:14:24Z</time>
      </trkpt>
      <trkpt lat="43.6523" lon="1.41995">
        <ele>184.313</ele>
        <time>2020-05-24T14:14:30Z</time>
      </trkpt>
      <trkpt lat="43.6523" lon="1.41995">
        <ele>184.318</ele>
        <time>2020-05-24T14:14:35Z</time>
      </trkpt>
      <trkpt lat="43.6523" lon="1.41995">
        <ele>184.322</ele>
        <time>2020-05-24T14:14:40Z</time>
      </trkpt>
      <trkpt lat="43.6523" lon="1.41995">
        <ele>184.327</ele>
        <time>2020-05-24T14:14:45Z</time>
      </trkpt>
      <trkpt lat="43.6523" lon="1.41995">
        <ele>184.334</ele>
        <time>2020-05-24T14:14:51Z</time>
      </trkpt>
      <trkpt lat="43.6523" lon="1.41994">
        <ele>184.338</ele>
        <time>2020-05-24T14:14:56Z</time>
      </trkpt>
      <trkpt lat="43.6523" lon="1.41993">
        <ele>184.343</ele>
        <time>2020-05-24T14:15:02Z</time>
      </trkpt>
      <trkpt lat="43.6523" lon="1.41993">
        <ele>184.35</ele>
        <time>2020-05-24T14:15:08Z</time>
      </trkpt>
      <trkpt lat="43.6523" lon="1.41993">
        <ele>184.356</ele>
        <time>2020-05-24T14:15:14Z</time>
      </trkpt>
      <trkpt lat="43.6523" lon="1.41993">
        <ele>184.362</ele>
        <time>2020-05-24T14:15:20Z</time>
      </trkpt>
      <trkpt lat="43.65231" lon="1.41993">
        <ele>184.368</ele>
        <time>2020-05-24T14:15:26Z</time>
      </trkpt>
      <trkpt lat="43.6523" lon="1.41992">
        <ele>184.381</ele>
        <time>2020-05-24T14:15:31Z</time>
      </trkpt>
      <trkpt lat="43.65228" lon="1.41991">
        <ele>184.407</ele>
        <time>2020-05-24T14:15:36Z</time>
      </trkpt>
      <trkpt lat="43.65229" lon="1.41992">
        <ele>184.417</ele>
        <time>2020-05-24T14:15:42Z</time>
      </trkpt>
      <trkpt lat="43.6523" lon="1.41992">
        <ele>184.42</ele>
        <time>2020-05-24T14:15:47Z</time>
      </trkpt>
      <trkpt lat="43.65231" lon="1.41993">
        <ele>184.433</ele>
        <time>2020-05-24T14:15:53Z</time>
      </trkpt>
      <trkpt lat="43.65232" lon="1.41994">
        <ele>184.44</ele>
        <time>2020-05-24T14:15:59Z</time>
      </trkpt>
      <trkpt lat="43.65233" lon="1.41994">
        <ele>184.459</ele>
        <time>2020-05-24T14:16:04Z</time>
      </trkpt>
      <trkpt lat="43.65233" lon="1.41993">
        <ele>184.467</ele>
        <time>2020-05-24T14:16:10Z</time>
      </trkpt>
      <trkpt lat="43.65232" lon="1.41994">
        <ele>184.474</ele>
        <time>2020-05-24T14:16:15Z</time>
      </trkpt>
      <trkpt lat="43.65233" lon="1.41995">
        <ele>184.481</ele>
        <time>2020-05-24T14:16:21Z</time>
      </trkpt>
      <trkpt lat="43.65233" lon="1.41995">
        <ele>184.486</ele>
        <time>2020-05-24T14:16:26Z</time>
      </trkpt>
      <trkpt lat="43.65233" lon="1.41995">
        <ele>184.491</ele>
        <time>2020-05-24T14:16:32Z</time>
      </trkpt>
      <trkpt lat="43.65233" lon="1.41995">
        <ele>184.496</ele>
        <time>2020-05-24T14:16:38Z</time>
      </trkpt>
      <trkpt lat="43.65232" lon="1.41996">
        <ele>184.5</ele>
        <time>2020-05-24T14:16:44Z</time>
      </trkpt>
      <trkpt lat="43.65235" lon="1.41995">
        <ele>184.513</ele>
        <time>2020-05-24T14:16:49Z</time>
      </trkpt>
      <trkpt lat="43.65235" lon="1.41994">
        <ele>184.525</ele>
        <time>2020-05-24T14:16:54Z</time>
      </trkpt>
      <trkpt lat="43.65235" lon="1.41993">
        <ele>184.526</ele>
        <time>2020-05-24T14:16:59Z</time>
      </trkpt>
      <trkpt lat="43.65235" lon="1.41994">
        <ele>184.526</ele>
        <time>2020-05-24T14:17:05Z</time>
      </trkpt>
      <trkpt lat="43.65235" lon="1.41994">
        <ele>184.524</ele>
        <time>2020-05-24T14:17:10Z</time>
      </trkpt>
      <trkpt lat="43.65235" lon="1.41995">
        <ele>184.522</ele>
        <time>2020-05-24T14:17:16Z</time>
      </trkpt>
      <trkpt lat="43.65235" lon="1.41995">
        <ele>184.519</ele>
        <time>2020-05-24T14:17:22Z</time>
      </trkpt>
      <trkpt lat="43.65234" lon="1.41992">
        <ele>184.497</ele>
        <time>2020-05-24T14:17:27Z</time>
      </trkpt>
      <trkpt lat="43.65234" lon="1.41992">
        <ele>184.486</ele>
        <time>2020-05-24T14:17:32Z</time>
      </trkpt>
      <trkpt lat="43.65234" lon="1.41991">
        <ele>184.48</ele>
        <time>2020-05-24T14:17:38Z</time>
      </trkpt>
      <trkpt lat="43.65234" lon="1.41991">
        <ele>184.473</ele>
        <time>2020-05-24T14:17:44Z</time>
      </trkpt>
      <trkpt lat="43.65233" lon="1.41992">
        <ele>184.465</ele>
        <time>2020-05-24T14:17:50Z</time>
      </trkpt>
      <trkpt lat="43.65233" lon="1.41992">
        <ele>184.455</ele>
        <time>2020-05-24T14:17:56Z</time>
      </trkpt>
      <trkpt lat="43.65232" lon="1.41992">
        <ele>184.432</ele>
        <time>2020-05-24T14:18:01Z</time>
      </trkpt>
      <trkpt lat="43.65233" lon="1.41992">
        <ele>184.411</ele>
        <time>2020-05-24T14:18:06Z</time>
      </trkpt>
      <trkpt lat="43.65233" lon="1.41992">
        <ele>184.366</ele>
        <time>2020-05-24T14:18:12Z</time>
      </trkpt>
      <trkpt lat="43.65232" lon="1.41992">
        <ele>184.357</ele>
        <time>2020-05-24T14:18:18Z</time>
      </trkpt>
      <trkpt lat="43.65233" lon="1.41991">
        <ele>184.347</ele>
        <time>2020-05-24T14:18:24Z</time>
      </trkpt>
      <trkpt lat="43.65233" lon="1.4199">
        <ele>184.32</ele>
        <time>2020-05-24T14:18:30Z</time>
      </trkpt>
      <trkpt lat="43.65233" lon="1.4199">
        <ele>184.294</ele>
        <time>2020-05-24T14:18:35Z</time>
      </trkpt>
      <trkpt lat="43.65233" lon="1.41989">
        <ele>184.284</ele>
        <time>2020-05-24T14:18:41Z</time>
      </trkpt>
      <trkpt lat="43.65233" lon="1.41988">
        <ele>184.275</ele>
        <time>2020-05-24T14:18:46Z</time>
      </trkpt>
      <trkpt lat="43.65233" lon="1.41988">
        <ele>184.267</ele>
        <time>2020-05-24T14:18:52Z</time>
      </trkpt>
      <trkpt lat="43.65232" lon="1.41989">
        <ele>184.235</ele>
        <time>2020-05-24T14:18:58Z</time>
      </trkpt>
      <trkpt lat="43.65232" lon="1.41991">
        <ele>184.187</ele>
        <time>2020-05-24T14:19:03Z</time>
      </trkpt>
      <trkpt lat="43.65233" lon="1.41992">
        <ele>184.143</ele>
        <time>2020-05-24T14:19:09Z</time>
      </trkpt>
      <trkpt lat="43.65243" lon="1.41993">
        <ele>184.096</ele>
        <time>2020-05-24T14:19:14Z</time>
      </trkpt>
      <trkpt lat="43.65258" lon="1.41995">
        <ele>184.055</ele>
        <time>2020-05-24T14:19:19Z</time>
      </trkpt>
      <trkpt lat="43.65274" lon="1.41996">
        <ele>184.017</ele>
        <time>2020-05-24T14:19:24Z</time>
      </trkpt>
      <trkpt lat="43.65277" lon="1.41987">
        <ele>183.98</ele>
        <time>2020-05-24T14:19:29Z</time>
      </trkpt>
      <trkpt lat="43.65277" lon="1.41987">
        <ele>183.977</ele>
        <time>2020-05-24T14:19:34Z</time>
      </trkpt>
      <trkpt lat="43.65276" lon="1.41986">
        <ele>183.95</ele>
        <time>2020-05-24T14:19:40Z</time>
      </trkpt>
      <trkpt lat="43.65278" lon="1.41993">
        <ele>183.925</ele>
        <time>2020-05-24T14:19:46Z</time>
      </trkpt>
      <trkpt lat="43.65288" lon="1.42003">
        <ele>183.907</ele>
        <time>2020-05-24T14:19:51Z</time>
      </trkpt>
      <trkpt lat="43.65301" lon="1.42005">
        <ele>183.884</ele>
        <time>2020-05-24T14:19:57Z</time>
      </trkpt>
      <trkpt lat="43.65313" lon="1.42006">
        <ele>183.859</ele>
        <time>2020-05-24T14:20:03Z</time>
      </trkpt>
      <trkpt lat="43.65324" lon="1.42003">
        <ele>183.838</ele>
        <time>2020-05-24T14:20:09Z</time>
      </trkpt>
      <trkpt lat="43.65331" lon="1.41991">
        <ele>183.824</ele>
        <time>2020-05-24T14:20:14Z</time>
      </trkpt>
      <trkpt lat="43.65339" lon="1.41969">
        <ele>183.813</ele>
        <time>2020-05-24T14:20:20Z</time>
      </trkpt>
      <trkpt lat="43.65345" lon="1.41952">
        <ele>183.807</ele>
        <time>2020-05-24T14:20:25Z</time>
      </trkpt>
      <trkpt lat="43.65351" lon="1.41937">
        <ele>183.806</ele>
        <time>2020-05-24T14:20:31Z</time>
      </trkpt>
      <trkpt lat="43.65355" lon="1.41926">
        <ele>183.799</ele>
        <time>2020-05-24T14:20:36Z</time>
      </trkpt>
      <trkpt lat="43.65363" lon="1.41912">
        <ele>183.791</ele>
        <time>2020-05-24T14:20:41Z</time>
      </trkpt>
      <trkpt lat="43.65378" lon="1.41894">
        <ele>183.781</ele>
        <time>2020-05-24T14:20:47Z</time>
      </trkpt>
      <trkpt lat="43.65392" lon="1.41887">
        <ele>183.77</ele>
        <time>2020-05-24T14:20:53Z</time>
      </trkpt>
      <trkpt lat="43.65393" lon="1.41886">
        <ele>183.767</ele>
        <time>2020-05-24T14:20:59Z</time>
      </trkpt>
      <trkpt lat="43.65402" lon="1.4188">
        <ele>183.734</ele>
        <time>2020-05-24T14:21:05Z</time>
      </trkpt>
      <trkpt lat="43.65409" lon="1.41868">
        <ele>183.69</ele>
        <time>2020-05-24T14:21:11Z</time>
      </trkpt>
      <trkpt lat="43.65419" lon="1.41857">
        <ele>183.65</ele>
        <time>2020-05-24T14:21:17Z</time>
      </trkpt>
      <trkpt lat="43.6542" lon="1.41841">
        <ele>183.615</ele>
        <time>2020-05-24T14:21:22Z</time>
      </trkpt>
      <trkpt lat="43.65414" lon="1.41826">
        <ele>183.579</ele>
        <time>2020-05-24T14:21:28Z</time>
      </trkpt>
      <trkpt lat="43.6541" lon="1.41808">
        <ele>183.549</ele>
        <time>2020-05-24T14:21:33Z</time>
      </trkpt>
      <trkpt lat="43.65408" lon="1.41786">
        <ele>183.507</ele>
        <time>2020-05-24T14:21:39Z</time>
      </trkpt>
      <trkpt lat="43.65403" lon="1.41769">
        <ele>183.471</ele>
        <time>2020-05-24T14:21:44Z</time>
      </trkpt>
      <trkpt lat="43.65399" lon="1.41753">
        <ele>183.432</ele>
        <time>2020-05-24T14:21:50Z</time>
      </trkpt>
      <trkpt lat="43.65392" lon="1.41733">
        <ele>183.4</ele>
        <time>2020-05-24T14:21:56Z</time>
      </trkpt>
      <trkpt lat="43.65384" lon="1.41713">
        <ele>183.38</ele>
        <time>2020-05-24T14:22:01Z</time>
      </trkpt>
      <trkpt lat="43.65379" lon="1.4169">
        <ele>183.354</ele>
        <time>2020-05-24T14:22:07Z</time>
      </trkpt>
      <trkpt lat="43.65375" lon="1.41673">
        <ele>183.333</ele>
        <time>2020-05-24T14:22:12Z</time>
      </trkpt>
      <trkpt lat="43.65373" lon="1.41655">
        <ele>183.306</ele>
        <time>2020-05-24T14:22:18Z</time>
      </trkpt>
      <trkpt lat="43.65369" lon="1.41633">
        <ele>183.281</ele>
        <time>2020-05-24T14:22:24Z</time>
      </trkpt>
      <trkpt lat="43.65367" lon="1.41618">
        <ele>183.264</ele>
        <time>2020-05-24T14:22:29Z</time>
      </trkpt>
      <trkpt lat="43.65367" lon="1.41601">
        <ele>183.251</ele>
        <time>2020-05-24T14:22:34Z</time>
      </trkpt>
      <trkpt lat="43.65364" lon="1.41578">
        <ele>183.236</ele>
        <time>2020-05-24T14:22:40Z</time>
      </trkpt>
      <trkpt lat="43.65363" lon="1.41562">
        <ele>183.233</ele>
        <time>2020-05-24T14:22:45Z</time>
      </trkpt>
      <trkpt lat="43.65357" lon="1.4155">
        <ele>183.237</ele>
        <time>2020-05-24T14:22:51Z</time>
      </trkpt>
      <trkpt lat="43.65357" lon="1.41549">
        <ele>183.239</ele>
        <time>2020-05-24T14:22:57Z</time>
      </trkpt>
      <trkpt lat="43.65357" lon="1.41549">
        <ele>183.242</ele>
        <time>2020-05-24T14:23:02Z</time>
      </trkpt>
      <trkpt lat="43.65357" lon="1.41549">
        <ele>183.247</ele>
        <time>2020-05-24T14:23:07Z</time>
      </trkpt>
      <trkpt lat="43.65358" lon="1.41533">
        <ele>183.286</ele>
        <time>2020-05-24T14:23:13Z</time>
      </trkpt>
      <trkpt lat="43.65364" lon="1.41523">
        <ele>183.33</ele>
        <time>2020-05-24T14:23:19Z</time>
      </trkpt>
      <trkpt lat="43.65368" lon="1.4151">
        <ele>183.372</ele>
        <time>2020-05-24T14:23:24Z</time>
      </trkpt>
      <trkpt lat="43.65375" lon="1.41492">
        <ele>183.425</ele>
        <time>2020-05-24T14:23:30Z</time>
      </trkpt>
      <trkpt lat="43.65379" lon="1.4147">
        <ele>183.477</ele>
        <time>2020-05-24T14:23:36Z</time>
      </trkpt>
      <trkpt lat="43.65375" lon="1.41448">
        <ele>183.518</ele>
        <time>2020-05-24T14:23:41Z</time>
      </trkpt>
      <trkpt lat="43.6537" lon="1.41423">
        <ele>183.56</ele>
        <time>2020-05-24T14:23:47Z</time>
      </trkpt>
      <trkpt lat="43.65362" lon="1.41398">
        <ele>183.596</ele>
        <time>2020-05-24T14:23:53Z</time>
      </trkpt>
      <trkpt lat="43.65365" lon="1.41383">
        <ele>183.622</ele>
        <time>2020-05-24T14:23:59Z</time>
      </trkpt>
      <trkpt lat="43.65363" lon="1.41363">
        <ele>183.634</ele>
        <time>2020-05-24T14:24:04Z</time>
      </trkpt>
      <trkpt lat="43.65357" lon="1.41341">
        <ele>183.641</ele>
        <time>2020-05-24T14:24:09Z</time>
      </trkpt>
      <trkpt lat="43.65349" lon="1.41317">
        <ele>183.641</ele>
        <time>2020-05-24T14:24:15Z</time>
      </trkpt>
      <trkpt lat="43.65342" lon="1.41291">
        <ele>183.632</ele>
        <time>2020-05-24T14:24:21Z</time>
      </trkpt>
      <trkpt lat="43.65333" lon="1.41264">
        <ele>183.615</ele>
        <time>2020-05-24T14:24:27Z</time>
      </trkpt>
      <trkpt lat="43.65323" lon="1.4124">
        <ele>183.59</ele>
        <time>2020-05-24T14:24:33Z</time>
      </trkpt>
      <trkpt lat="43.65314" lon="1.4123">
        <ele>183.564</ele>
        <time>2020-05-24T14:24:39Z</time>
      </trkpt>
      <trkpt lat="43.65313" lon="1.41222">
        <ele>183.542</ele>
        <time>2020-05-24T14:24:45Z</time>
      </trkpt>
      <trkpt lat="43.65311" lon="1.41217">
        <ele>183.522</ele>
        <time>2020-05-24T14:24:51Z</time>
      </trkpt>
      <trkpt lat="43.65308" lon="1.41212">
        <ele>183.51</ele>
        <time>2020-05-24T14:24:56Z</time>
      </trkpt>
      <trkpt lat="43.65318" lon="1.41204">
        <ele>183.487</ele>
        <time>2020-05-24T14:25:02Z</time>
      </trkpt>
      <trkpt lat="43.65323" lon="1.41188">
        <ele>183.463</ele>
        <time>2020-05-24T14:25:07Z</time>
      </trkpt>
      <trkpt lat="43.65322" lon="1.41162">
        <ele>183.427</ele>
        <time>2020-05-24T14:25:13Z</time>
      </trkpt>
      <trkpt lat="43.65324" lon="1.41142">
        <ele>183.385</ele>
        <time>2020-05-24T14:25:19Z</time>
      </trkpt>
      <trkpt lat="43.65325" lon="1.4112">
        <ele>183.346</ele>
        <time>2020-05-24T14:25:24Z</time>
      </trkpt>
      <trkpt lat="43.65328" lon="1.41091">
        <ele>183.299</ele>
        <time>2020-05-24T14:25:30Z</time>
      </trkpt>
      <trkpt lat="43.65329" lon="1.41061">
        <ele>183.254</ele>
        <time>2020-05-24T14:25:36Z</time>
      </trkpt>
      <trkpt lat="43.6533" lon="1.41038">
        <ele>183.218</ele>
        <time>2020-05-24T14:25:41Z</time>
      </trkpt>
      <trkpt lat="43.6533" lon="1.41007">
        <ele>183.184</ele>
        <time>2020-05-24T14:25:47Z</time>
      </trkpt>
      <trkpt lat="43.65322" lon="1.40983">
        <ele>183.163</ele>
        <time>2020-05-24T14:25:52Z</time>
      </trkpt>
      <trkpt lat="43.65312" lon="1.40957">
        <ele>183.147</ele>
        <time>2020-05-24T14:25:58Z</time>
      </trkpt>
      <trkpt lat="43.65304" lon="1.40926">
        <ele>183.101</ele>
        <time>2020-05-24T14:26:04Z</time>
      </trkpt>
      <trkpt lat="43.65298" lon="1.40886">
        <ele>183.075</ele>
        <time>2020-05-24T14:26:10Z</time>
      </trkpt>
      <trkpt lat="43.65292" lon="1.40863">
        <ele>183.064</ele>
        <time>2020-05-24T14:26:15Z</time>
      </trkpt>
      <trkpt lat="43.65294" lon="1.40849">
        <ele>183.052</ele>
        <time>2020-05-24T14:26:21Z</time>
      </trkpt>
      <trkpt lat="43.65311" lon="1.40845">
        <ele>183.031</ele>
        <time>2020-05-24T14:26:27Z</time>
      </trkpt>
      <trkpt lat="43.65328" lon="1.40841">
        <ele>183.011</ele>
        <time>2020-05-24T14:26:32Z</time>
      </trkpt>
      <trkpt lat="43.65347" lon="1.40833">
        <ele>182.989</ele>
        <time>2020-05-24T14:26:38Z</time>
      </trkpt>
      <trkpt lat="43.65365" lon="1.40831">
        <ele>182.965</ele>
        <time>2020-05-24T14:26:44Z</time>
      </trkpt>
      <trkpt lat="43.65378" lon="1.40827">
        <ele>182.942</ele>
        <time>2020-05-24T14:26:49Z</time>
      </trkpt>
      <trkpt lat="43.65396" lon="1.40821">
        <ele>182.906</ele>
        <time>2020-05-24T14:26:55Z</time>
      </trkpt>
      <trkpt lat="43.65415" lon="1.40815">
        <ele>182.861</ele>
        <time>2020-05-24T14:27:01Z</time>
      </trkpt>
      <trkpt lat="43.65429" lon="1.40809">
        <ele>182.825</ele>
        <time>2020-05-24T14:27:06Z</time>
      </trkpt>
      <trkpt lat="43.65443" lon="1.40806">
        <ele>182.791</ele>
        <time>2020-05-24T14:27:11Z</time>
      </trkpt>
      <trkpt lat="43.65462" lon="1.40791">
        <ele>182.708</ele>
        <time>2020-05-24T14:27:17Z</time>
      </trkpt>
      <trkpt lat="43.65474" lon="1.40776">
        <ele>182.685</ele>
        <time>2020-05-24T14:27:23Z</time>
      </trkpt>
      <trkpt lat="43.65486" lon="1.40763">
        <ele>182.666</ele>
        <time>2020-05-24T14:27:29Z</time>
      </trkpt>
      <trkpt lat="43.65479" lon="1.40753">
        <ele>182.651</ele>
        <time>2020-05-24T14:27:34Z</time>
      </trkpt>
      <trkpt lat="43.65465" lon="1.40741">
        <ele>182.625</ele>
        <time>2020-05-24T14:27:40Z</time>
      </trkpt>
      <trkpt lat="43.65451" lon="1.40731">
        <ele>182.592</ele>
        <time>2020-05-24T14:27:46Z</time>
      </trkpt>
      <trkpt lat="43.65435" lon="1.40722">
        <ele>182.565</ele>
        <time>2020-05-24T14:27:52Z</time>
      </trkpt>
      <trkpt lat="43.65416" lon="1.4071">
        <ele>182.541</ele>
        <time>2020-05-24T14:27:58Z</time>
      </trkpt>
      <trkpt lat="43.65397" lon="1.407">
        <ele>182.428</ele>
        <time>2020-05-24T14:28:03Z</time>
      </trkpt>
      <trkpt lat="43.65377" lon="1.40686">
        <ele>182.385</ele>
        <time>2020-05-24T14:28:08Z</time>
      </trkpt>
      <trkpt lat="43.65355" lon="1.40672">
        <ele>182.293</ele>
        <time>2020-05-24T14:28:14Z</time>
      </trkpt>
      <trkpt lat="43.6534" lon="1.40658">
        <ele>182.271</ele>
        <time>2020-05-24T14:28:19Z</time>
      </trkpt>
      <trkpt lat="43.65319" lon="1.40647">
        <ele>182.244</ele>
        <time>2020-05-24T14:28:25Z</time>
      </trkpt>
      <trkpt lat="43.65303" lon="1.40632">
        <ele>182.219</ele>
        <time>2020-05-24T14:28:31Z</time>
      </trkpt>
      <trkpt lat="43.65283" lon="1.40619">
        <ele>182.192</ele>
        <time>2020-05-24T14:28:37Z</time>
      </trkpt>
      <trkpt lat="43.65265" lon="1.40605">
        <ele>182.161</ele>
        <time>2020-05-24T14:28:43Z</time>
      </trkpt>
      <trkpt lat="43.65247" lon="1.40588">
        <ele>182.129</ele>
        <time>2020-05-24T14:28:49Z</time>
      </trkpt>
      <trkpt lat="43.65232" lon="1.40575">
        <ele>182.096</ele>
        <time>2020-05-24T14:28:55Z</time>
      </trkpt>
      <trkpt lat="43.65217" lon="1.40563">
        <ele>182.068</ele>
        <time>2020-05-24T14:29:00Z</time>
      </trkpt>
      <trkpt lat="43.65198" lon="1.40546">
        <ele>182.031</ele>
        <time>2020-05-24T14:29:06Z</time>
      </trkpt>
      <trkpt lat="43.65184" lon="1.40531">
        <ele>181.984</ele>
        <time>2020-05-24T14:29:12Z</time>
      </trkpt>
      <trkpt lat="43.65168" lon="1.4052">
        <ele>181.938</ele>
        <time>2020-05-24T14:29:18Z</time>
      </trkpt>
      <trkpt lat="43.65161" lon="1.40515">
        <ele>181.9</ele>
        <time>2020-05-24T14:29:23Z</time>
      </trkpt>
      <trkpt lat="43.65151" lon="1.40506">
        <ele>181.855</ele>
        <time>2020-05-24T14:29:29Z</time>
      </trkpt>
      <trkpt lat="43.65138" lon="1.40491">
        <ele>181.816</ele>
        <time>2020-05-24T14:29:34Z</time>
      </trkpt>
      <trkpt lat="43.65121" lon="1.40473">
        <ele>181.772</ele>
        <time>2020-05-24T14:29:40Z</time>
      </trkpt>
      <trkpt lat="43.65105" lon="1.40456">
        <ele>181.705</ele>
        <time>2020-05-24T14:29:46Z</time>
      </trkpt>
      <trkpt lat="43.6509" lon="1.40442">
        <ele>181.699</ele>
        <time>2020-05-24T14:29:51Z</time>
      </trkpt>
      <trkpt lat="43.65074" lon="1.40429">
        <ele>181.698</ele>
        <time>2020-05-24T14:29:57Z</time>
      </trkpt>
      <trkpt lat="43.65057" lon="1.40411">
        <ele>181.709</ele>
        <time>2020-05-24T14:30:03Z</time>
      </trkpt>
      <trkpt lat="43.65043" lon="1.40397">
        <ele>181.721</ele>
        <time>2020-05-24T14:30:08Z</time>
      </trkpt>
      <trkpt lat="43.65026" lon="1.40378">
        <ele>181.736</ele>
        <time>2020-05-24T14:30:14Z</time>
      </trkpt>
      <trkpt lat="43.65008" lon="1.40358">
        <ele>181.747</ele>
        <time>2020-05-24T14:30:19Z</time>
      </trkpt>
      <trkpt lat="43.64994" lon="1.40333">
        <ele>181.765</ele>
        <time>2020-05-24T14:30:25Z</time>
      </trkpt>
      <trkpt lat="43.6498" lon="1.40317">
        <ele>181.781</ele>
        <time>2020-05-24T14:30:30Z</time>
      </trkpt>
      <trkpt lat="43.64962" lon="1.40299">
        <ele>181.797</ele>
        <time>2020-05-24T14:30:36Z</time>
      </trkpt>
      <trkpt lat="43.64943" lon="1.40284">
        <ele>181.842</ele>
        <time>2020-05-24T14:30:41Z</time>
      </trkpt>
      <trkpt lat="43.64923" lon="1.40269">
        <ele>181.85</ele>
        <time>2020-05-24T14:30:47Z</time>
      </trkpt>
      <trkpt lat="43.64907" lon="1.40255">
        <ele>181.853</ele>
        <time>2020-05-24T14:30:52Z</time>
      </trkpt>
      <trkpt lat="43.64886" lon="1.40239">
        <ele>181.862</ele>
        <time>2020-05-24T14:30:58Z</time>
      </trkpt>
      <trkpt lat="43.64866" lon="1.40231">
        <ele>181.872</ele>
        <time>2020-05-24T14:31:04Z</time>
      </trkpt>
      <trkpt lat="43.64842" lon="1.40232">
        <ele>181.879</ele>
        <time>2020-05-24T14:31:10Z</time>
      </trkpt>
      <trkpt lat="43.64821" lon="1.40234">
        <ele>181.9</ele>
        <time>2020-05-24T14:31:15Z</time>
      </trkpt>
      <trkpt lat="43.64798" lon="1.40236">
        <ele>181.907</ele>
        <time>2020-05-24T14:31:21Z</time>
      </trkpt>
      <trkpt lat="43.64774" lon="1.40236">
        <ele>181.953</ele>
        <time>2020-05-24T14:31:27Z</time>
      </trkpt>
      <trkpt lat="43.64754" lon="1.40236">
        <ele>181.962</ele>
        <time>2020-05-24T14:31:32Z</time>
      </trkpt>
      <trkpt lat="43.64736" lon="1.40237">
        <ele>181.971</ele>
        <time>2020-05-24T14:31:37Z</time>
      </trkpt>
      <trkpt lat="43.64707" lon="1.40241">
        <ele>182.02</ele>
        <time>2020-05-24T14:31:43Z</time>
      </trkpt>
      <trkpt lat="43.64689" lon="1.40248">
        <ele>182.047</ele>
        <time>2020-05-24T14:31:48Z</time>
      </trkpt>
      <trkpt lat="43.64671" lon="1.40255">
        <ele>182.05</ele>
        <time>2020-05-24T14:31:53Z</time>
      </trkpt>
      <trkpt lat="43.64652" lon="1.40263">
        <ele>182.049</ele>
        <time>2020-05-24T14:31:58Z</time>
      </trkpt>
      <trkpt lat="43.64627" lon="1.40266">
        <ele>182.055</ele>
        <time>2020-05-24T14:32:04Z</time>
      </trkpt>
      <trkpt lat="43.64606" lon="1.40273">
        <ele>182.065</ele>
        <time>2020-05-24T14:32:09Z</time>
      </trkpt>
      <trkpt lat="43.64583" lon="1.40278">
        <ele>182.09</ele>
        <time>2020-05-24T14:32:15Z</time>
      </trkpt>
      <trkpt lat="43.6456" lon="1.40284">
        <ele>182.103</ele>
        <time>2020-05-24T14:32:21Z</time>
      </trkpt>
      <trkpt lat="43.64534" lon="1.40289">
        <ele>182.119</ele>
        <time>2020-05-24T14:32:27Z</time>
      </trkpt>
      <trkpt lat="43.64507" lon="1.40297">
        <ele>182.173</ele>
        <time>2020-05-24T14:32:33Z</time>
      </trkpt>
      <trkpt lat="43.64482" lon="1.40306">
        <ele>182.198</ele>
        <time>2020-05-24T14:32:39Z</time>
      </trkpt>
      <trkpt lat="43.64462" lon="1.40316">
        <ele>182.251</ele>
        <time>2020-05-24T14:32:44Z</time>
      </trkpt>
      <trkpt lat="43.64439" lon="1.40322">
        <ele>182.281</ele>
        <time>2020-05-24T14:32:50Z</time>
      </trkpt>
      <trkpt lat="43.64412" lon="1.40326">
        <ele>182.331</ele>
        <time>2020-05-24T14:32:56Z</time>
      </trkpt>
      <trkpt lat="43.6439" lon="1.40332">
        <ele>182.378</ele>
        <time>2020-05-24T14:33:01Z</time>
      </trkpt>
      <trkpt lat="43.64368" lon="1.40331">
        <ele>182.454</ele>
        <time>2020-05-24T14:33:06Z</time>
      </trkpt>
      <trkpt lat="43.64339" lon="1.40338">
        <ele>182.5</ele>
        <time>2020-05-24T14:33:12Z</time>
      </trkpt>
      <trkpt lat="43.64316" lon="1.40346">
        <ele>182.547</ele>
        <time>2020-05-24T14:33:17Z</time>
      </trkpt>
      <trkpt lat="43.64294" lon="1.40354">
        <ele>182.572</ele>
        <time>2020-05-24T14:33:23Z</time>
      </trkpt>
      <trkpt lat="43.64274" lon="1.4036">
        <ele>182.608</ele>
        <time>2020-05-24T14:33:28Z</time>
      </trkpt>
      <trkpt lat="43.64263" lon="1.40362">
        <ele>182.62</ele>
        <time>2020-05-24T14:33:34Z</time>
      </trkpt>
      <trkpt lat="43.64248" lon="1.40366">
        <ele>182.629</ele>
        <time>2020-05-24T14:33:40Z</time>
      </trkpt>
      <trkpt lat="43.64228" lon="1.40372">
        <ele>182.669</ele>
        <time>2020-05-24T14:33:45Z</time>
      </trkpt>
      <trkpt lat="43.6421" lon="1.40377">
        <ele>182.674</ele>
        <time>2020-05-24T14:33:50Z</time>
      </trkpt>
      <trkpt lat="43.64186" lon="1.40385">
        <ele>182.722</ele>
        <time>2020-05-24T14:33:56Z</time>
      </trkpt>
      <trkpt lat="43.64167" lon="1.4039">
        <ele>182.752</ele>
        <time>2020-05-24T14:34:01Z</time>
      </trkpt>
      <trkpt lat="43.64141" lon="1.40395">
        <ele>182.778</ele>
        <time>2020-05-24T14:34:07Z</time>
      </trkpt>
      <trkpt lat="43.64114" lon="1.404">
        <ele>182.784</ele>
        <time>2020-05-24T14:34:13Z</time>
      </trkpt>
      <trkpt lat="43.64088" lon="1.40408">
        <ele>182.782</ele>
        <time>2020-05-24T14:34:19Z</time>
      </trkpt>
      <trkpt lat="43.6406" lon="1.40414">
        <ele>182.752</ele>
        <time>2020-05-24T14:34:25Z</time>
      </trkpt>
      <trkpt lat="43.64039" lon="1.40421">
        <ele>182.724</ele>
        <time>2020-05-24T14:34:30Z</time>
      </trkpt>
      <trkpt lat="43.6402" lon="1.40425">
        <ele>182.721</ele>
        <time>2020-05-24T14:34:36Z</time>
      </trkpt>
      <trkpt lat="43.64004" lon="1.40429">
        <ele>182.725</ele>
        <time>2020-05-24T14:34:42Z</time>
      </trkpt>
      <trkpt lat="43.63982" lon="1.40432">
        <ele>182.742</ele>
        <time>2020-05-24T14:34:48Z</time>
      </trkpt>
      <trkpt lat="43.6396" lon="1.40433">
        <ele>182.765</ele>
        <time>2020-05-24T14:34:54Z</time>
      </trkpt>
      <trkpt lat="43.63934" lon="1.40442">
        <ele>182.779</ele>
        <time>2020-05-24T14:35:00Z</time>
      </trkpt>
      <trkpt lat="43.63913" lon="1.40447">
        <ele>182.816</ele>
        <time>2020-05-24T14:35:05Z</time>
      </trkpt>
      <trkpt lat="43.63892" lon="1.40447">
        <ele>182.862</ele>
        <time>2020-05-24T14:35:10Z</time>
      </trkpt>
      <trkpt lat="43.63873" lon="1.40449">
        <ele>182.867</ele>
        <time>2020-05-24T14:35:15Z</time>
      </trkpt>
      <trkpt lat="43.63851" lon="1.40459">
        <ele>182.908</ele>
        <time>2020-05-24T14:35:21Z</time>
      </trkpt>
      <trkpt lat="43.63829" lon="1.40468">
        <ele>182.947</ele>
        <time>2020-05-24T14:35:27Z</time>
      </trkpt>
      <trkpt lat="43.6381" lon="1.40467">
        <ele>182.961</ele>
        <time>2020-05-24T14:35:33Z</time>
      </trkpt>
      <trkpt lat="43.63787" lon="1.40472">
        <ele>182.974</ele>
        <time>2020-05-24T14:35:39Z</time>
      </trkpt>
      <trkpt lat="43.63764" lon="1.40484">
        <ele>182.991</ele>
        <time>2020-05-24T14:35:45Z</time>
      </trkpt>
      <trkpt lat="43.63744" lon="1.40486">
        <ele>183.025</ele>
        <time>2020-05-24T14:35:51Z</time>
      </trkpt>
      <trkpt lat="43.63728" lon="1.40488">
        <ele>183.069</ele>
        <time>2020-05-24T14:35:56Z</time>
      </trkpt>
      <trkpt lat="43.63712" lon="1.40486">
        <ele>183.115</ele>
        <time>2020-05-24T14:36:01Z</time>
      </trkpt>
      <trkpt lat="43.63692" lon="1.40485">
        <ele>183.173</ele>
        <time>2020-05-24T14:36:07Z</time>
      </trkpt>
      <trkpt lat="43.63676" lon="1.40486">
        <ele>183.228</ele>
        <time>2020-05-24T14:36:12Z</time>
      </trkpt>
      <trkpt lat="43.63654" lon="1.40486">
        <ele>183.305</ele>
        <time>2020-05-24T14:36:18Z</time>
      </trkpt>
      <trkpt lat="43.63636" lon="1.40488">
        <ele>183.486</ele>
        <time>2020-05-24T14:36:23Z</time>
      </trkpt>
      <trkpt lat="43.63617" lon="1.40489">
        <ele>183.547</ele>
        <time>2020-05-24T14:36:29Z</time>
      </trkpt>
      <trkpt lat="43.63599" lon="1.40487">
        <ele>183.606</ele>
        <time>2020-05-24T14:36:35Z</time>
      </trkpt>
      <trkpt lat="43.63583" lon="1.40486">
        <ele>183.647</ele>
        <time>2020-05-24T14:36:40Z</time>
      </trkpt>
      <trkpt lat="43.63567" lon="1.40485">
        <ele>183.685</ele>
        <time>2020-05-24T14:36:45Z</time>
      </trkpt>
      <trkpt lat="43.63551" lon="1.40485">
        <ele>183.729</ele>
        <time>2020-05-24T14:36:50Z</time>
      </trkpt>
      <trkpt lat="43.63534" lon="1.40485">
        <ele>183.772</ele>
        <time>2020-05-24T14:36:55Z</time>
      </trkpt>
      <trkpt lat="43.63517" lon="1.40486">
        <ele>183.811</ele>
        <time>2020-05-24T14:37:00Z</time>
      </trkpt>
      <trkpt lat="43.635" lon="1.40486">
        <ele>183.847</ele>
        <time>2020-05-24T14:37:05Z</time>
      </trkpt>
      <trkpt lat="43.63479" lon="1.40487">
        <ele>183.895</ele>
        <time>2020-05-24T14:37:11Z</time>
      </trkpt>
      <trkpt lat="43.63461" lon="1.40486">
        <ele>183.93</ele>
        <time>2020-05-24T14:37:16Z</time>
      </trkpt>
      <trkpt lat="43.63438" lon="1.4049">
        <ele>183.965</ele>
        <time>2020-05-24T14:37:22Z</time>
      </trkpt>
      <trkpt lat="43.63421" lon="1.40493">
        <ele>183.998</ele>
        <time>2020-05-24T14:37:28Z</time>
      </trkpt>
      <trkpt lat="43.63401" lon="1.40493">
        <ele>184.108</ele>
        <time>2020-05-24T14:37:34Z</time>
      </trkpt>
      <trkpt lat="43.63378" lon="1.40487">
        <ele>184.156</ele>
        <time>2020-05-24T14:37:40Z</time>
      </trkpt>
      <trkpt lat="43.63358" lon="1.40476">
        <ele>184.176</ele>
        <time>2020-05-24T14:37:45Z</time>
      </trkpt>
      <trkpt lat="43.63339" lon="1.40473">
        <ele>184.178</ele>
        <time>2020-05-24T14:37:51Z</time>
      </trkpt>
      <trkpt lat="43.63318" lon="1.40467">
        <ele>184.171</ele>
        <time>2020-05-24T14:37:57Z</time>
      </trkpt>
      <trkpt lat="43.63302" lon="1.40459">
        <ele>184.166</ele>
        <time>2020-05-24T14:38:03Z</time>
      </trkpt>
      <trkpt lat="43.63292" lon="1.40453">
        <ele>184.164</ele>
        <time>2020-05-24T14:38:09Z</time>
      </trkpt>
      <trkpt lat="43.63282" lon="1.40447">
        <ele>184.161</ele>
        <time>2020-05-24T14:38:15Z</time>
      </trkpt>
      <trkpt lat="43.63266" lon="1.40443">
        <ele>184.156</ele>
        <time>2020-05-24T14:38:21Z</time>
      </trkpt>
      <trkpt lat="43.63253" lon="1.40442">
        <ele>184.151</ele>
        <time>2020-05-24T14:38:26Z</time>
      </trkpt>
      <trkpt lat="43.63235" lon="1.40437">
        <ele>184.147</ele>
        <time>2020-05-24T14:38:32Z</time>
      </trkpt>
      <trkpt lat="43.63218" lon="1.40429">
        <ele>184.144</ele>
        <time>2020-05-24T14:38:37Z</time>
      </trkpt>
      <trkpt lat="43.63197" lon="1.40422">
        <ele>184.146</ele>
        <time>2020-05-24T14:38:43Z</time>
      </trkpt>
      <trkpt lat="43.63177" lon="1.40414">
        <ele>184.158</ele>
        <time>2020-05-24T14:38:48Z</time>
      </trkpt>
      <trkpt lat="43.63155" lon="1.40406">
        <ele>184.154</ele>
        <time>2020-05-24T14:38:54Z</time>
      </trkpt>
      <trkpt lat="43.6313" lon="1.40395">
        <ele>184.15</ele>
        <time>2020-05-24T14:39:00Z</time>
      </trkpt>
      <trkpt lat="43.6311" lon="1.40387">
        <ele>184.151</ele>
        <time>2020-05-24T14:39:06Z</time>
      </trkpt>
      <trkpt lat="43.63098" lon="1.4038">
        <ele>184.155</ele>
        <time>2020-05-24T14:39:11Z</time>
      </trkpt>
      <trkpt lat="43.63079" lon="1.40373">
        <ele>184.166</ele>
        <time>2020-05-24T14:39:17Z</time>
      </trkpt>
      <trkpt lat="43.6306" lon="1.40364">
        <ele>184.18</ele>
        <time>2020-05-24T14:39:23Z</time>
      </trkpt>
      <trkpt lat="43.63041" lon="1.40356">
        <ele>184.193</ele>
        <time>2020-05-24T14:39:29Z</time>
      </trkpt>
      <trkpt lat="43.63022" lon="1.40346">
        <ele>184.203</ele>
        <time>2020-05-24T14:39:35Z</time>
      </trkpt>
      <trkpt lat="43.63003" lon="1.40337">
        <ele>184.18</ele>
        <time>2020-05-24T14:39:40Z</time>
      </trkpt>
      <trkpt lat="43.62981" lon="1.40325">
        <ele>184.142</ele>
        <time>2020-05-24T14:39:45Z</time>
      </trkpt>
      <trkpt lat="43.62962" lon="1.40317">
        <ele>184.113</ele>
        <time>2020-05-24T14:39:50Z</time>
      </trkpt>
      <trkpt lat="43.62945" lon="1.40304">
        <ele>184.096</ele>
        <time>2020-05-24T14:39:55Z</time>
      </trkpt>
      <trkpt lat="43.6292" lon="1.40298">
        <ele>184.066</ele>
        <time>2020-05-24T14:40:01Z</time>
      </trkpt>
      <trkpt lat="43.62898" lon="1.40296">
        <ele>184.065</ele>
        <time>2020-05-24T14:40:07Z</time>
      </trkpt>
      <trkpt lat="43.62871" lon="1.40287">
        <ele>184.039</ele>
        <time>2020-05-24T14:40:13Z</time>
      </trkpt>
      <trkpt lat="43.62851" lon="1.4028">
        <ele>184.031</ele>
        <time>2020-05-24T14:40:18Z</time>
      </trkpt>
      <trkpt lat="43.62829" lon="1.40274">
        <ele>184.027</ele>
        <time>2020-05-24T14:40:24Z</time>
      </trkpt>
      <trkpt lat="43.62813" lon="1.40269">
        <ele>184.028</ele>
        <time>2020-05-24T14:40:29Z</time>
      </trkpt>
      <trkpt lat="43.62795" lon="1.40265">
        <ele>184.033</ele>
        <time>2020-05-24T14:40:35Z</time>
      </trkpt>
      <trkpt lat="43.62779" lon="1.40265">
        <ele>184.042</ele>
        <time>2020-05-24T14:40:40Z</time>
      </trkpt>
      <trkpt lat="43.6276" lon="1.40261">
        <ele>184.055</ele>
        <time>2020-05-24T14:40:45Z</time>
      </trkpt>
      <trkpt lat="43.62733" lon="1.40254">
        <ele>184.126</ele>
        <time>2020-05-24T14:40:51Z</time>
      </trkpt>
      <trkpt lat="43.62709" lon="1.40247">
        <ele>184.142</ele>
        <time>2020-05-24T14:40:56Z</time>
      </trkpt>
      <trkpt lat="43.6268" lon="1.40241">
        <ele>184.136</ele>
        <time>2020-05-24T14:41:02Z</time>
      </trkpt>
      <trkpt lat="43.62659" lon="1.40234">
        <ele>184.125</ele>
        <time>2020-05-24T14:41:07Z</time>
      </trkpt>
      <trkpt lat="43.62634" lon="1.40227">
        <ele>184.067</ele>
        <time>2020-05-24T14:41:13Z</time>
      </trkpt>
      <trkpt lat="43.62619" lon="1.40229">
        <ele>184.052</ele>
        <time>2020-05-24T14:41:18Z</time>
      </trkpt>
      <trkpt lat="43.62599" lon="1.40224">
        <ele>184.016</ele>
        <time>2020-05-24T14:41:24Z</time>
      </trkpt>
      <trkpt lat="43.62584" lon="1.40221">
        <ele>184.012</ele>
        <time>2020-05-24T14:41:29Z</time>
      </trkpt>
      <trkpt lat="43.62567" lon="1.40212">
        <ele>184.015</ele>
        <time>2020-05-24T14:41:35Z</time>
      </trkpt>
      <trkpt lat="43.62546" lon="1.40213">
        <ele>184.026</ele>
        <time>2020-05-24T14:41:40Z</time>
      </trkpt>
      <trkpt lat="43.62536" lon="1.40215">
        <ele>184.034</ele>
        <time>2020-05-24T14:41:45Z</time>
      </trkpt>
      <trkpt lat="43.62532" lon="1.40214">
        <ele>184.044</ele>
        <time>2020-05-24T14:41:51Z</time>
      </trkpt>
      <trkpt lat="43.62532" lon="1.40213">
        <ele>184.047</ele>
        <time>2020-05-24T14:41:56Z</time>
      </trkpt>
      <trkpt lat="43.62532" lon="1.40214">
        <ele>184.053</ele>
        <time>2020-05-24T14:42:02Z</time>
      </trkpt>
      <trkpt lat="43.62532" lon="1.40213">
        <ele>184.069</ele>
        <time>2020-05-24T14:42:08Z</time>
      </trkpt>
      <trkpt lat="43.62532" lon="1.40214">
        <ele>184.086</ele>
        <time>2020-05-24T14:42:13Z</time>
      </trkpt>
      <trkpt lat="43.62531" lon="1.40213">
        <ele>184.094</ele>
        <time>2020-05-24T14:42:19Z</time>
      </trkpt>
      <trkpt lat="43.62532" lon="1.40213">
        <ele>184.132</ele>
        <time>2020-05-24T14:42:25Z</time>
      </trkpt>
      <trkpt lat="43.62529" lon="1.40214">
        <ele>184.224</ele>
        <time>2020-05-24T14:42:30Z</time>
      </trkpt>
      <trkpt lat="43.62528" lon="1.40214">
        <ele>184.332</ele>
        <time>2020-05-24T14:42:35Z</time>
      </trkpt>
      <trkpt lat="43.62514" lon="1.40213">
        <ele>184.472</ele>
        <time>2020-05-24T14:42:41Z</time>
      </trkpt>
      <trkpt lat="43.625" lon="1.40213">
        <ele>184.571</ele>
        <time>2020-05-24T14:42:46Z</time>
      </trkpt>
      <trkpt lat="43.62484" lon="1.40211">
        <ele>184.678</ele>
        <time>2020-05-24T14:42:52Z</time>
      </trkpt>
      <trkpt lat="43.62468" lon="1.40203">
        <ele>184.772</ele>
        <time>2020-05-24T14:42:58Z</time>
      </trkpt>
      <trkpt lat="43.62456" lon="1.40203">
        <ele>184.842</ele>
        <time>2020-05-24T14:43:04Z</time>
      </trkpt>
      <trkpt lat="43.62454" lon="1.40205">
        <ele>184.9</ele>
        <time>2020-05-24T14:43:10Z</time>
      </trkpt>
      <trkpt lat="43.62455" lon="1.40208">
        <ele>184.962</ele>
        <time>2020-05-24T14:43:16Z</time>
      </trkpt>
      <trkpt lat="43.62458" lon="1.40206">
        <ele>185.017</ele>
        <time>2020-05-24T14:43:22Z</time>
      </trkpt>
      <trkpt lat="43.62462" lon="1.40206">
        <ele>185.064</ele>
        <time>2020-05-24T14:43:27Z</time>
      </trkpt>
      <trkpt lat="43.62473" lon="1.40217">
        <ele>185.121</ele>
        <time>2020-05-24T14:43:33Z</time>
      </trkpt>
      <trkpt lat="43.62485" lon="1.40225">
        <ele>185.173</ele>
        <time>2020-05-24T14:43:39Z</time>
      </trkpt>
      <trkpt lat="43.62488" lon="1.4024">
        <ele>185.214</ele>
        <time>2020-05-24T14:43:45Z</time>
      </trkpt>
      <trkpt lat="43.62488" lon="1.40247">
        <ele>185.245</ele>
        <time>2020-05-24T14:43:51Z</time>
      </trkpt>
      <trkpt lat="43.62479" lon="1.40251">
        <ele>185.269</ele>
        <time>2020-05-24T14:43:57Z</time>
      </trkpt>
      <trkpt lat="43.62471" lon="1.40268">
        <ele>185.285</ele>
        <time>2020-05-24T14:44:03Z</time>
      </trkpt>
      <trkpt lat="43.62469" lon="1.40273">
        <ele>185.288</ele>
        <time>2020-05-24T14:44:08Z</time>
      </trkpt>
      <trkpt lat="43.62468" lon="1.40278">
        <ele>185.282</ele>
        <time>2020-05-24T14:44:14Z</time>
      </trkpt>
      <trkpt lat="43.62464" lon="1.40278">
        <ele>185.267</ele>
        <time>2020-05-24T14:44:20Z</time>
      </trkpt>
      <trkpt lat="43.62456" lon="1.40273">
        <ele>185.254</ele>
        <time>2020-05-24T14:44:25Z</time>
      </trkpt>
      <trkpt lat="43.62452" lon="1.4026">
        <ele>185.245</ele>
        <time>2020-05-24T14:44:31Z</time>
      </trkpt>
      <trkpt lat="43.62452" lon="1.40235">
        <ele>185.246</ele>
        <time>2020-05-24T14:44:37Z</time>
      </trkpt>
      <trkpt lat="43.62436" lon="1.40231">
        <ele>185.255</ele>
        <time>2020-05-24T14:44:43Z</time>
      </trkpt>
      <trkpt lat="43.62418" lon="1.40231">
        <ele>185.301</ele>
        <time>2020-05-24T14:44:48Z</time>
      </trkpt>
      <trkpt lat="43.62395" lon="1.40229">
        <ele>185.322</ele>
        <time>2020-05-24T14:44:54Z</time>
      </trkpt>
      <trkpt lat="43.62373" lon="1.40228">
        <ele>185.277</ele>
        <time>2020-05-24T14:45:00Z</time>
      </trkpt>
      <trkpt lat="43.62346" lon="1.40227">
        <ele>185.22</ele>
        <time>2020-05-24T14:45:06Z</time>
      </trkpt>
      <trkpt lat="43.62318" lon="1.40227">
        <ele>185.143</ele>
        <time>2020-05-24T14:45:12Z</time>
      </trkpt>
      <trkpt lat="43.62294" lon="1.40229">
        <ele>185.079</ele>
        <time>2020-05-24T14:45:17Z</time>
      </trkpt>
      <trkpt lat="43.62264" lon="1.40232">
        <ele>185</ele>
        <time>2020-05-24T14:45:23Z</time>
      </trkpt>
      <trkpt lat="43.6224" lon="1.40234">
        <ele>184.956</ele>
        <time>2020-05-24T14:45:28Z</time>
      </trkpt>
      <trkpt lat="43.62216" lon="1.40238">
        <ele>184.952</ele>
        <time>2020-05-24T14:45:33Z</time>
      </trkpt>
      <trkpt lat="43.62202" lon="1.40244">
        <ele>184.954</ele>
        <time>2020-05-24T14:45:38Z</time>
      </trkpt>
      <trkpt lat="43.6217" lon="1.40247">
        <ele>184.99</ele>
        <time>2020-05-24T14:45:44Z</time>
      </trkpt>
      <trkpt lat="43.62143" lon="1.40255">
        <ele>185.037</ele>
        <time>2020-05-24T14:45:50Z</time>
      </trkpt>
      <trkpt lat="43.62118" lon="1.40263">
        <ele>185.087</ele>
        <time>2020-05-24T14:45:55Z</time>
      </trkpt>
      <trkpt lat="43.62095" lon="1.40273">
        <ele>185.103</ele>
        <time>2020-05-24T14:46:00Z</time>
      </trkpt>
      <trkpt lat="43.62065" lon="1.40285">
        <ele>185.079</ele>
        <time>2020-05-24T14:46:06Z</time>
      </trkpt>
      <trkpt lat="43.62037" lon="1.40296">
        <ele>185.047</ele>
        <time>2020-05-24T14:46:12Z</time>
      </trkpt>
      <trkpt lat="43.6202" lon="1.40304">
        <ele>185.047</ele>
        <time>2020-05-24T14:46:17Z</time>
      </trkpt>
      <trkpt lat="43.61997" lon="1.40313">
        <ele>185.048</ele>
        <time>2020-05-24T14:46:23Z</time>
      </trkpt>
      <trkpt lat="43.61974" lon="1.40322">
        <ele>185.048</ele>
        <time>2020-05-24T14:46:28Z</time>
      </trkpt>
      <trkpt lat="43.61949" lon="1.40332">
        <ele>185.034</ele>
        <time>2020-05-24T14:46:33Z</time>
      </trkpt>
      <trkpt lat="43.61925" lon="1.40341">
        <ele>185.008</ele>
        <time>2020-05-24T14:46:38Z</time>
      </trkpt>
      <trkpt lat="43.61895" lon="1.40351">
        <ele>185.044</ele>
        <time>2020-05-24T14:46:44Z</time>
      </trkpt>
      <trkpt lat="43.61871" lon="1.40363">
        <ele>185.081</ele>
        <time>2020-05-24T14:46:49Z</time>
      </trkpt>
      <trkpt lat="43.61845" lon="1.40371">
        <ele>185.06</ele>
        <time>2020-05-24T14:46:54Z</time>
      </trkpt>
      <trkpt lat="43.61815" lon="1.40381">
        <ele>185.036</ele>
        <time>2020-05-24T14:47:00Z</time>
      </trkpt>
      <trkpt lat="43.61785" lon="1.40392">
        <ele>185.003</ele>
        <time>2020-05-24T14:47:06Z</time>
      </trkpt>
      <trkpt lat="43.61757" lon="1.40406">
        <ele>185.003</ele>
        <time>2020-05-24T14:47:12Z</time>
      </trkpt>
      <trkpt lat="43.61731" lon="1.4042">
        <ele>184.999</ele>
        <time>2020-05-24T14:47:17Z</time>
      </trkpt>
      <trkpt lat="43.61702" lon="1.40435">
        <ele>184.99</ele>
        <time>2020-05-24T14:47:23Z</time>
      </trkpt>
      <trkpt lat="43.61676" lon="1.40449">
        <ele>184.965</ele>
        <time>2020-05-24T14:47:29Z</time>
      </trkpt>
      <trkpt lat="43.61652" lon="1.40464">
        <ele>184.952</ele>
        <time>2020-05-24T14:47:35Z</time>
      </trkpt>
      <trkpt lat="43.61628" lon="1.4048">
        <ele>184.98</ele>
        <time>2020-05-24T14:47:40Z</time>
      </trkpt>
      <trkpt lat="43.61605" lon="1.40498">
        <ele>184.969</ele>
        <time>2020-05-24T14:47:45Z</time>
      </trkpt>
      <trkpt lat="43.61578" lon="1.40521">
        <ele>184.929</ele>
        <time>2020-05-24T14:47:51Z</time>
      </trkpt>
      <trkpt lat="43.61554" lon="1.40542">
        <ele>184.89</ele>
        <time>2020-05-24T14:47:57Z</time>
      </trkpt>
      <trkpt lat="43.61528" lon="1.40564">
        <ele>184.859</ele>
        <time>2020-05-24T14:48:03Z</time>
      </trkpt>
      <trkpt lat="43.61505" lon="1.4059">
        <ele>184.848</ele>
        <time>2020-05-24T14:48:09Z</time>
      </trkpt>
      <trkpt lat="43.61479" lon="1.40615">
        <ele>184.858</ele>
        <time>2020-05-24T14:48:15Z</time>
      </trkpt>
      <trkpt lat="43.6146" lon="1.40637">
        <ele>184.888</ele>
        <time>2020-05-24T14:48:20Z</time>
      </trkpt>
      <trkpt lat="43.61435" lon="1.40666">
        <ele>184.94</ele>
        <time>2020-05-24T14:48:26Z</time>
      </trkpt>
      <trkpt lat="43.61415" lon="1.40688">
        <ele>184.976</ele>
        <time>2020-05-24T14:48:31Z</time>
      </trkpt>
      <trkpt lat="43.61395" lon="1.40709">
        <ele>185.013</ele>
        <time>2020-05-24T14:48:36Z</time>
      </trkpt>
      <trkpt lat="43.61372" lon="1.40735">
        <ele>185.044</ele>
        <time>2020-05-24T14:48:42Z</time>
      </trkpt>
      <trkpt lat="43.61353" lon="1.40755">
        <ele>185.074</ele>
        <time>2020-05-24T14:48:47Z</time>
      </trkpt>
      <trkpt lat="43.61333" lon="1.40782">
        <ele>185.102</ele>
        <time>2020-05-24T14:48:53Z</time>
      </trkpt>
      <trkpt lat="43.61313" lon="1.40804">
        <ele>185.111</ele>
        <time>2020-05-24T14:48:58Z</time>
      </trkpt>
      <trkpt lat="43.61289" lon="1.40832">
        <ele>185.12</ele>
        <time>2020-05-24T14:49:04Z</time>
      </trkpt>
      <trkpt lat="43.61267" lon="1.40853">
        <ele>185.134</ele>
        <time>2020-05-24T14:49:09Z</time>
      </trkpt>
      <trkpt lat="43.61248" lon="1.40873">
        <ele>185.143</ele>
        <time>2020-05-24T14:49:14Z</time>
      </trkpt>
      <trkpt lat="43.61223" lon="1.40898">
        <ele>185.132</ele>
        <time>2020-05-24T14:49:20Z</time>
      </trkpt>
      <trkpt lat="43.61198" lon="1.40925">
        <ele>185.14</ele>
        <time>2020-05-24T14:49:26Z</time>
      </trkpt>
      <trkpt lat="43.61175" lon="1.40952">
        <ele>185.155</ele>
        <time>2020-05-24T14:49:32Z</time>
      </trkpt>
      <trkpt lat="43.61157" lon="1.40973">
        <ele>185.172</ele>
        <time>2020-05-24T14:49:37Z</time>
      </trkpt>
      <trkpt lat="43.61139" lon="1.40992">
        <ele>185.177</ele>
        <time>2020-05-24T14:49:42Z</time>
      </trkpt>
      <trkpt lat="43.61124" lon="1.4101">
        <ele>185.193</ele>
        <time>2020-05-24T14:49:47Z</time>
      </trkpt>
      <trkpt lat="43.61101" lon="1.41034">
        <ele>185.211</ele>
        <time>2020-05-24T14:49:53Z</time>
      </trkpt>
      <trkpt lat="43.61082" lon="1.41057">
        <ele>185.214</ele>
        <time>2020-05-24T14:49:58Z</time>
      </trkpt>
      <trkpt lat="43.61064" lon="1.41081">
        <ele>185.224</ele>
        <time>2020-05-24T14:50:03Z</time>
      </trkpt>
      <trkpt lat="43.61046" lon="1.41112">
        <ele>185.263</ele>
        <time>2020-05-24T14:50:09Z</time>
      </trkpt>
      <trkpt lat="43.61029" lon="1.41144">
        <ele>185.215</ele>
        <time>2020-05-24T14:50:15Z</time>
      </trkpt>
      <trkpt lat="43.61011" lon="1.41177">
        <ele>185.145</ele>
        <time>2020-05-24T14:50:21Z</time>
      </trkpt>
      <trkpt lat="43.60995" lon="1.41206">
        <ele>185.074</ele>
        <time>2020-05-24T14:50:27Z</time>
      </trkpt>
      <trkpt lat="43.60979" lon="1.41236">
        <ele>185.034</ele>
        <time>2020-05-24T14:50:33Z</time>
      </trkpt>
      <trkpt lat="43.60964" lon="1.4126">
        <ele>185</ele>
        <time>2020-05-24T14:50:39Z</time>
      </trkpt>
      <trkpt lat="43.60947" lon="1.41289">
        <ele>184.926</ele>
        <time>2020-05-24T14:50:46Z</time>
      </trkpt>
      <trkpt lat="43.60934" lon="1.41312">
        <ele>184.9</ele>
        <time>2020-05-24T14:50:52Z</time>
      </trkpt>
      <trkpt lat="43.60918" lon="1.41346">
        <ele>184.883</ele>
        <time>2020-05-24T14:50:58Z</time>
      </trkpt>
      <trkpt lat="43.60899" lon="1.41376">
        <ele>184.866</ele>
        <time>2020-05-24T14:51:04Z</time>
      </trkpt>
      <trkpt lat="43.60894" lon="1.41386">
        <ele>184.864</ele>
        <time>2020-05-24T14:51:09Z</time>
      </trkpt>
      <trkpt lat="43.60888" lon="1.41396">
        <ele>184.859</ele>
        <time>2020-05-24T14:51:15Z</time>
      </trkpt>
      <trkpt lat="43.60878" lon="1.41416">
        <ele>184.82</ele>
        <time>2020-05-24T14:51:20Z</time>
      </trkpt>
      <trkpt lat="43.60864" lon="1.41445">
        <ele>184.743</ele>
        <time>2020-05-24T14:51:26Z</time>
      </trkpt>
      <trkpt lat="43.60849" lon="1.41471">
        <ele>184.704</ele>
        <time>2020-05-24T14:51:31Z</time>
      </trkpt>
      <trkpt lat="43.60835" lon="1.41497">
        <ele>184.681</ele>
        <time>2020-05-24T14:51:36Z</time>
      </trkpt>
      <trkpt lat="43.60816" lon="1.4153">
        <ele>184.633</ele>
        <time>2020-05-24T14:51:42Z</time>
      </trkpt>
      <trkpt lat="43.60797" lon="1.41562">
        <ele>184.613</ele>
        <time>2020-05-24T14:51:48Z</time>
      </trkpt>
      <trkpt lat="43.60777" lon="1.41597">
        <ele>184.609</ele>
        <time>2020-05-24T14:51:54Z</time>
      </trkpt>
      <trkpt lat="43.60757" lon="1.41634">
        <ele>184.598</ele>
        <time>2020-05-24T14:52:00Z</time>
      </trkpt>
      <trkpt lat="43.60739" lon="1.4167">
        <ele>184.595</ele>
        <time>2020-05-24T14:52:06Z</time>
      </trkpt>
      <trkpt lat="43.60723" lon="1.417">
        <ele>184.599</ele>
        <time>2020-05-24T14:52:11Z</time>
      </trkpt>
      <trkpt lat="43.60703" lon="1.41735">
        <ele>184.617</ele>
        <time>2020-05-24T14:52:17Z</time>
      </trkpt>
      <trkpt lat="43.60687" lon="1.41764">
        <ele>184.616</ele>
        <time>2020-05-24T14:52:22Z</time>
      </trkpt>
      <trkpt lat="43.60673" lon="1.41793">
        <ele>184.614</ele>
        <time>2020-05-24T14:52:28Z</time>
      </trkpt>
      <trkpt lat="43.60658" lon="1.41829">
        <ele>184.592</ele>
        <time>2020-05-24T14:52:34Z</time>
      </trkpt>
      <trkpt lat="43.60648" lon="1.4186">
        <ele>184.585</ele>
        <time>2020-05-24T14:52:39Z</time>
      </trkpt>
      <trkpt lat="43.60635" lon="1.41892">
        <ele>184.572</ele>
        <time>2020-05-24T14:52:44Z</time>
      </trkpt>
      <trkpt lat="43.6062" lon="1.41931">
        <ele>184.537</ele>
        <time>2020-05-24T14:52:50Z</time>
      </trkpt>
      <trkpt lat="43.60607" lon="1.41971">
        <ele>184.498</ele>
        <time>2020-05-24T14:52:56Z</time>
      </trkpt>
      <trkpt lat="43.60593" lon="1.42009">
        <ele>184.417</ele>
        <time>2020-05-24T14:53:02Z</time>
      </trkpt>
      <trkpt lat="43.60584" lon="1.42044">
        <ele>184.355</ele>
        <time>2020-05-24T14:53:07Z</time>
      </trkpt>
      <trkpt lat="43.60576" lon="1.42079">
        <ele>184.315</ele>
        <time>2020-05-24T14:53:12Z</time>
      </trkpt>
      <trkpt lat="43.60568" lon="1.42111">
        <ele>184.291</ele>
        <time>2020-05-24T14:53:17Z</time>
      </trkpt>
      <trkpt lat="43.60562" lon="1.42145">
        <ele>184.276</ele>
        <time>2020-05-24T14:53:23Z</time>
      </trkpt>
      <trkpt lat="43.60555" lon="1.42171">
        <ele>184.27</ele>
        <time>2020-05-24T14:53:29Z</time>
      </trkpt>
      <trkpt lat="43.6055" lon="1.42191">
        <ele>184.257</ele>
        <time>2020-05-24T14:53:35Z</time>
      </trkpt>
      <trkpt lat="43.60543" lon="1.42214">
        <ele>184.237</ele>
        <time>2020-05-24T14:53:41Z</time>
      </trkpt>
      <trkpt lat="43.60536" lon="1.42238">
        <ele>184.163</ele>
        <time>2020-05-24T14:53:46Z</time>
      </trkpt>
      <trkpt lat="43.6053" lon="1.42268">
        <ele>184.08</ele>
        <time>2020-05-24T14:53:51Z</time>
      </trkpt>
      <trkpt lat="43.60522" lon="1.42297">
        <ele>184.049</ele>
        <time>2020-05-24T14:53:56Z</time>
      </trkpt>
      <trkpt lat="43.60515" lon="1.42334">
        <ele>184.066</ele>
        <time>2020-05-24T14:54:02Z</time>
      </trkpt>
      <trkpt lat="43.60505" lon="1.42372">
        <ele>184.083</ele>
        <time>2020-05-24T14:54:08Z</time>
      </trkpt>
      <trkpt lat="43.60498" lon="1.42405">
        <ele>184.093</ele>
        <time>2020-05-24T14:54:13Z</time>
      </trkpt>
      <trkpt lat="43.6049" lon="1.42443">
        <ele>184.108</ele>
        <time>2020-05-24T14:54:19Z</time>
      </trkpt>
      <trkpt lat="43.6048" lon="1.42482">
        <ele>184.115</ele>
        <time>2020-05-24T14:54:25Z</time>
      </trkpt>
      <trkpt lat="43.60473" lon="1.42513">
        <ele>184.107</ele>
        <time>2020-05-24T14:54:30Z</time>
      </trkpt>
      <trkpt lat="43.60463" lon="1.42551">
        <ele>184.077</ele>
        <time>2020-05-24T14:54:36Z</time>
      </trkpt>
      <trkpt lat="43.60456" lon="1.42591">
        <ele>184.079</ele>
        <time>2020-05-24T14:54:42Z</time>
      </trkpt>
      <trkpt lat="43.6045" lon="1.42632">
        <ele>184.065</ele>
        <time>2020-05-24T14:54:48Z</time>
      </trkpt>
      <trkpt lat="43.60449" lon="1.42674">
        <ele>184.07</ele>
        <time>2020-05-24T14:54:54Z</time>
      </trkpt>
      <trkpt lat="43.60445" lon="1.42705">
        <ele>184.048</ele>
        <time>2020-05-24T14:54:59Z</time>
      </trkpt>
      <trkpt lat="43.60444" lon="1.42744">
        <ele>183.986</ele>
        <time>2020-05-24T14:55:05Z</time>
      </trkpt>
      <trkpt lat="43.60443" lon="1.42778">
        <ele>183.953</ele>
        <time>2020-05-24T14:55:11Z</time>
      </trkpt>
      <trkpt lat="43.60458" lon="1.42785">
        <ele>184.032</ele>
        <time>2020-05-24T14:55:16Z</time>
      </trkpt>
      <trkpt lat="43.60477" lon="1.42803">
        <ele>185.649</ele>
        <time>2020-05-24T14:55:28Z</time>
      </trkpt>
      <trkpt lat="43.60469" lon="1.42828">
        <ele>186.738</ele>
        <time>2020-05-24T14:55:33Z</time>
      </trkpt>
      <trkpt lat="43.60442" lon="1.42838">
        <ele>189.741</ele>
        <time>2020-05-24T14:55:38Z</time>
      </trkpt>
      <trkpt lat="43.60433" lon="1.4286">
        <ele>190.848</ele>
        <time>2020-05-24T14:55:44Z</time>
      </trkpt>
      <trkpt lat="43.60428" lon="1.4288">
        <ele>191.622</ele>
        <time>2020-05-24T14:55:49Z</time>
      </trkpt>
      <trkpt lat="43.60421" lon="1.42901">
        <ele>192.263</ele>
        <time>2020-05-24T14:55:55Z</time>
      </trkpt>
      <trkpt lat="43.60414" lon="1.42924">
        <ele>192.679</ele>
        <time>2020-05-24T14:56:00Z</time>
      </trkpt>
      <trkpt lat="43.60405" lon="1.42951">
        <ele>194.226</ele>
        <time>2020-05-24T14:56:06Z</time>
      </trkpt>
      <trkpt lat="43.60396" lon="1.42979">
        <ele>194.963</ele>
        <time>2020-05-24T14:56:12Z</time>
      </trkpt>
      <trkpt lat="43.60389" lon="1.43011">
        <ele>195.241</ele>
        <time>2020-05-24T14:56:18Z</time>
      </trkpt>
      <trkpt lat="43.6039" lon="1.43044">
        <ele>195.176</ele>
        <time>2020-05-24T14:56:24Z</time>
      </trkpt>
      <trkpt lat="43.60396" lon="1.43065">
        <ele>195.237</ele>
        <time>2020-05-24T14:56:29Z</time>
      </trkpt>
      <trkpt lat="43.60407" lon="1.43082">
        <ele>195.35</ele>
        <time>2020-05-24T14:56:35Z</time>
      </trkpt>
      <trkpt lat="43.60422" lon="1.43098">
        <ele>195.601</ele>
        <time>2020-05-24T14:56:40Z</time>
      </trkpt>
      <trkpt lat="43.60441" lon="1.43111">
        <ele>195.56</ele>
        <time>2020-05-24T14:56:46Z</time>
      </trkpt>
      <trkpt lat="43.60454" lon="1.43115">
        <ele>195.486</ele>
        <time>2020-05-24T14:56:51Z</time>
      </trkpt>
      <trkpt lat="43.60464" lon="1.43131">
        <ele>195.358</ele>
        <time>2020-05-24T14:56:56Z</time>
      </trkpt>
      <trkpt lat="43.60466" lon="1.43154">
        <ele>195.2</ele>
        <time>2020-05-24T14:57:02Z</time>
      </trkpt>
      <trkpt lat="43.60468" lon="1.43178">
        <ele>195.091</ele>
        <time>2020-05-24T14:57:08Z</time>
      </trkpt>
      <trkpt lat="43.6047" lon="1.43198">
        <ele>194.996</ele>
        <time>2020-05-24T14:57:14Z</time>
      </trkpt>
      <trkpt lat="43.60474" lon="1.43217">
        <ele>194.925</ele>
        <time>2020-05-24T14:57:19Z</time>
      </trkpt>
      <trkpt lat="43.60467" lon="1.43234">
        <ele>194.854</ele>
        <time>2020-05-24T14:57:25Z</time>
      </trkpt>
      <trkpt lat="43.60467" lon="1.4325">
        <ele>194.849</ele>
        <time>2020-05-24T14:57:30Z</time>
      </trkpt>
      <trkpt lat="43.60485" lon="1.43243">
        <ele>194.897</ele>
        <time>2020-05-24T14:57:36Z</time>
      </trkpt>
      <trkpt lat="43.60496" lon="1.43246">
        <ele>194.961</ele>
        <time>2020-05-24T14:57:41Z</time>
      </trkpt>
      <trkpt lat="43.60509" lon="1.43252">
        <ele>195.08</ele>
        <time>2020-05-24T14:57:47Z</time>
      </trkpt>
      <trkpt lat="43.6052" lon="1.43261">
        <ele>195.181</ele>
        <time>2020-05-24T14:57:52Z</time>
      </trkpt>
      <trkpt lat="43.60518" lon="1.43264">
        <ele>195.244</ele>
        <time>2020-05-24T14:57:58Z</time>
      </trkpt>
      <trkpt lat="43.6052" lon="1.43259">
        <ele>195.355</ele>
        <time>2020-05-24T14:58:04Z</time>
      </trkpt>
      <trkpt lat="43.60519" lon="1.43267">
        <ele>195.562</ele>
        <time>2020-05-24T14:58:10Z</time>
      </trkpt>
      <trkpt lat="43.60519" lon="1.43268">
        <ele>195.651</ele>
        <time>2020-05-24T14:58:16Z</time>
      </trkpt>
      <trkpt lat="43.60519" lon="1.43268">
        <ele>195.712</ele>
        <time>2020-05-24T14:58:21Z</time>
      </trkpt>
      <trkpt lat="43.60514" lon="1.43267">
        <ele>195.969</ele>
        <time>2020-05-24T14:58:27Z</time>
      </trkpt>
      <trkpt lat="43.60503" lon="1.43266">
        <ele>196.159</ele>
        <time>2020-05-24T14:58:32Z</time>
      </trkpt>
      <trkpt lat="43.60485" lon="1.43262">
        <ele>196.332</ele>
        <time>2020-05-24T14:58:37Z</time>
      </trkpt>
      <trkpt lat="43.60467" lon="1.43253">
        <ele>196.522</ele>
        <time>2020-05-24T14:58:43Z</time>
      </trkpt>
      <trkpt lat="43.60453" lon="1.43264">
        <ele>196.671</ele>
        <time>2020-05-24T14:58:48Z</time>
      </trkpt>
      <trkpt lat="43.60444" lon="1.43285">
        <ele>196.81</ele>
        <time>2020-05-24T14:58:53Z</time>
      </trkpt>
      <trkpt lat="43.60433" lon="1.4331">
        <ele>197.491</ele>
        <time>2020-05-24T14:58:58Z</time>
      </trkpt>
      <trkpt lat="43.60421" lon="1.43338">
        <ele>197.773</ele>
        <time>2020-05-24T14:59:04Z</time>
      </trkpt>
      <trkpt lat="43.6041" lon="1.43364">
        <ele>197.987</ele>
        <time>2020-05-24T14:59:09Z</time>
      </trkpt>
      <trkpt lat="43.60395" lon="1.43393">
        <ele>198.052</ele>
        <time>2020-05-24T14:59:15Z</time>
      </trkpt>
      <trkpt lat="43.60382" lon="1.43422">
        <ele>198.189</ele>
        <time>2020-05-24T14:59:21Z</time>
      </trkpt>
      <trkpt lat="43.60368" lon="1.43447">
        <ele>198.21</ele>
        <time>2020-05-24T14:59:27Z</time>
      </trkpt>
      <trkpt lat="43.60357" lon="1.4347">
        <ele>198.233</ele>
        <time>2020-05-24T14:59:33Z</time>
      </trkpt>
      <trkpt lat="43.60346" lon="1.43495">
        <ele>198.254</ele>
        <time>2020-05-24T14:59:39Z</time>
      </trkpt>
      <trkpt lat="43.60347" lon="1.43522">
        <ele>198.27</ele>
        <time>2020-05-24T14:59:45Z</time>
      </trkpt>
      <trkpt lat="43.60347" lon="1.43551">
        <ele>198.285</ele>
        <time>2020-05-24T14:59:51Z</time>
      </trkpt>
      <trkpt lat="43.60344" lon="1.43566">
        <ele>198.292</ele>
        <time>2020-05-24T14:59:57Z</time>
      </trkpt>
      <trkpt lat="43.60336" lon="1.4358">
        <ele>198.297</ele>
        <time>2020-05-24T15:00:03Z</time>
      </trkpt>
      <trkpt lat="43.60323" lon="1.4359">
        <ele>198.304</ele>
        <time>2020-05-24T15:00:09Z</time>
      </trkpt>
      <trkpt lat="43.60303" lon="1.43598">
        <ele>198.342</ele>
        <time>2020-05-24T15:00:14Z</time>
      </trkpt>
      <trkpt lat="43.6029" lon="1.43612">
        <ele>198.346</ele>
        <time>2020-05-24T15:00:19Z</time>
      </trkpt>
      <trkpt lat="43.60278" lon="1.43636">
        <ele>198.359</ele>
        <time>2020-05-24T15:00:25Z</time>
      </trkpt>
      <trkpt lat="43.60273" lon="1.43649">
        <ele>198.366</ele>
        <time>2020-05-24T15:00:30Z</time>
      </trkpt>
      <trkpt lat="43.60265" lon="1.43667">
        <ele>198.376</ele>
        <time>2020-05-24T15:00:36Z</time>
      </trkpt>
      <trkpt lat="43.60253" lon="1.43695">
        <ele>198.39</ele>
        <time>2020-05-24T15:00:42Z</time>
      </trkpt>
      <trkpt lat="43.60238" lon="1.43724">
        <ele>198.467</ele>
        <time>2020-05-24T15:00:48Z</time>
      </trkpt>
      <trkpt lat="43.60224" lon="1.43748">
        <ele>198.529</ele>
        <time>2020-05-24T15:00:53Z</time>
      </trkpt>
      <trkpt lat="43.60206" lon="1.43774">
        <ele>198.597</ele>
        <time>2020-05-24T15:00:58Z</time>
      </trkpt>
      <trkpt lat="43.60189" lon="1.43804">
        <ele>198.653</ele>
        <time>2020-05-24T15:01:04Z</time>
      </trkpt>
      <trkpt lat="43.60174" lon="1.43829">
        <ele>198.673</ele>
        <time>2020-05-24T15:01:09Z</time>
      </trkpt>
      <trkpt lat="43.60171" lon="1.43848">
        <ele>198.682</ele>
        <time>2020-05-24T15:01:14Z</time>
      </trkpt>
      <trkpt lat="43.60181" lon="1.4388">
        <ele>198.745</ele>
        <time>2020-05-24T15:01:20Z</time>
      </trkpt>
      <trkpt lat="43.60186" lon="1.43901">
        <ele>198.751</ele>
        <time>2020-05-24T15:01:25Z</time>
      </trkpt>
      <trkpt lat="43.60181" lon="1.43923">
        <ele>198.765</ele>
        <time>2020-05-24T15:01:31Z</time>
      </trkpt>
      <trkpt lat="43.60168" lon="1.4394">
        <ele>198.778</ele>
        <time>2020-05-24T15:01:36Z</time>
      </trkpt>
      <trkpt lat="43.60157" lon="1.43958">
        <ele>198.778</ele>
        <time>2020-05-24T15:01:41Z</time>
      </trkpt>
      <trkpt lat="43.60149" lon="1.43971">
        <ele>198.777</ele>
        <time>2020-05-24T15:01:47Z</time>
      </trkpt>
      <trkpt lat="43.6014" lon="1.43973">
        <ele>198.775</ele>
        <time>2020-05-24T15:01:53Z</time>
      </trkpt>
      <trkpt lat="43.60128" lon="1.43962">
        <ele>198.771</ele>
        <time>2020-05-24T15:01:58Z</time>
      </trkpt>
      <trkpt lat="43.60121" lon="1.43944">
        <ele>198.759</ele>
        <time>2020-05-24T15:02:03Z</time>
      </trkpt>
      <trkpt lat="43.60105" lon="1.43927">
        <ele>198.74</ele>
        <time>2020-05-24T15:02:08Z</time>
      </trkpt>
      <trkpt lat="43.60082" lon="1.43939">
        <ele>198.732</ele>
        <time>2020-05-24T15:02:14Z</time>
      </trkpt>
      <trkpt lat="43.60063" lon="1.43957">
        <ele>198.698</ele>
        <time>2020-05-24T15:02:19Z</time>
      </trkpt>
      <trkpt lat="43.60044" lon="1.43976">
        <ele>198.698</ele>
        <time>2020-05-24T15:02:25Z</time>
      </trkpt>
      <trkpt lat="43.60027" lon="1.43995">
        <ele>198.705</ele>
        <time>2020-05-24T15:02:30Z</time>
      </trkpt>
      <trkpt lat="43.60008" lon="1.44019">
        <ele>198.716</ele>
        <time>2020-05-24T15:02:36Z</time>
      </trkpt>
      <trkpt lat="43.59986" lon="1.44037">
        <ele>198.727</ele>
        <time>2020-05-24T15:02:42Z</time>
      </trkpt>
      <trkpt lat="43.59976" lon="1.44045">
        <ele>198.727</ele>
        <time>2020-05-24T15:02:47Z</time>
      </trkpt>
      <trkpt lat="43.59967" lon="1.44047">
        <ele>198.722</ele>
        <time>2020-05-24T15:02:53Z</time>
      </trkpt>
      <trkpt lat="43.59967" lon="1.44048">
        <ele>198.721</ele>
        <time>2020-05-24T15:02:59Z</time>
      </trkpt>
      <trkpt lat="43.59967" lon="1.44048">
        <ele>198.72</ele>
        <time>2020-05-24T15:03:05Z</time>
      </trkpt>
      <trkpt lat="43.59967" lon="1.44048">
        <ele>198.718</ele>
        <time>2020-05-24T15:03:10Z</time>
      </trkpt>
      <trkpt lat="43.59967" lon="1.44048">
        <ele>198.716</ele>
        <time>2020-05-24T15:03:16Z</time>
      </trkpt>
      <trkpt lat="43.59967" lon="1.44048">
        <ele>198.714</ele>
        <time>2020-05-24T15:03:22Z</time>
      </trkpt>
      <trkpt lat="43.59967" lon="1.44048">
        <ele>198.712</ele>
        <time>2020-05-24T15:03:28Z</time>
      </trkpt>
      <trkpt lat="43.59967" lon="1.44048">
        <ele>198.703</ele>
        <time>2020-05-24T15:03:33Z</time>
      </trkpt>
      <trkpt lat="43.59966" lon="1.44047">
        <ele>198.684</ele>
        <time>2020-05-24T15:03:39Z</time>
      </trkpt>
      <trkpt lat="43.59966" lon="1.44047">
        <ele>198.675</ele>
        <time>2020-05-24T15:03:45Z</time>
      </trkpt>
      <trkpt lat="43.59966" lon="1.44046">
        <ele>198.671</ele>
        <time>2020-05-24T15:03:51Z</time>
      </trkpt>
      <trkpt lat="43.59965" lon="1.44045">
        <ele>198.661</ele>
        <time>2020-05-24T15:03:57Z</time>
      </trkpt>
      <trkpt lat="43.59952" lon="1.44052">
        <ele>198.627</ele>
        <time>2020-05-24T15:04:02Z</time>
      </trkpt>
      <trkpt lat="43.59935" lon="1.4405">
        <ele>198.544</ele>
        <time>2020-05-24T15:04:07Z</time>
      </trkpt>
      <trkpt lat="43.59908" lon="1.44047">
        <ele>198.392</ele>
        <time>2020-05-24T15:04:13Z</time>
      </trkpt>
      <trkpt lat="43.59876" lon="1.44041">
        <ele>198.371</ele>
        <time>2020-05-24T15:04:19Z</time>
      </trkpt>
      <trkpt lat="43.59848" lon="1.44035">
        <ele>198.36</ele>
        <time>2020-05-24T15:04:25Z</time>
      </trkpt>
      <trkpt lat="43.59819" lon="1.44029">
        <ele>198.362</ele>
        <time>2020-05-24T15:04:30Z</time>
      </trkpt>
      <trkpt lat="43.59774" lon="1.44027">
        <ele>198.381</ele>
        <time>2020-05-24T15:04:36Z</time>
      </trkpt>
      <trkpt lat="43.59737" lon="1.44027">
        <ele>198.4</ele>
        <time>2020-05-24T15:04:42Z</time>
      </trkpt>
      <trkpt lat="43.5971" lon="1.44029">
        <ele>198.36</ele>
        <time>2020-05-24T15:04:47Z</time>
      </trkpt>
      <trkpt lat="43.5968" lon="1.4403">
        <ele>198.31</ele>
        <time>2020-05-24T15:04:52Z</time>
      </trkpt>
      <trkpt lat="43.59649" lon="1.44034">
        <ele>198.225</ele>
        <time>2020-05-24T15:04:58Z</time>
      </trkpt>
      <trkpt lat="43.5962" lon="1.44038">
        <ele>198.124</ele>
        <time>2020-05-24T15:05:04Z</time>
      </trkpt>
      <trkpt lat="43.59584" lon="1.44046">
        <ele>198.067</ele>
        <time>2020-05-24T15:05:10Z</time>
      </trkpt>
      <trkpt lat="43.59552" lon="1.44047">
        <ele>198.013</ele>
        <time>2020-05-24T15:05:16Z</time>
      </trkpt>
      <trkpt lat="43.59522" lon="1.44047">
        <ele>197.957</ele>
        <time>2020-05-24T15:05:22Z</time>
      </trkpt>
      <trkpt lat="43.59497" lon="1.44046">
        <ele>197.945</ele>
        <time>2020-05-24T15:05:27Z</time>
      </trkpt>
      <trkpt lat="43.59477" lon="1.44056">
        <ele>197.943</ele>
        <time>2020-05-24T15:05:32Z</time>
      </trkpt>
      <trkpt lat="43.59447" lon="1.44062">
        <ele>197.915</ele>
        <time>2020-05-24T15:05:38Z</time>
      </trkpt>
      <trkpt lat="43.59423" lon="1.44063">
        <ele>197.807</ele>
        <time>2020-05-24T15:05:43Z</time>
      </trkpt>
      <trkpt lat="43.59394" lon="1.44068">
        <ele>197.674</ele>
        <time>2020-05-24T15:05:49Z</time>
      </trkpt>
      <trkpt lat="43.59363" lon="1.44071">
        <ele>197.503</ele>
        <time>2020-05-24T15:05:55Z</time>
      </trkpt>
      <trkpt lat="43.59332" lon="1.44076">
        <ele>197.341</ele>
        <time>2020-05-24T15:06:01Z</time>
      </trkpt>
      <trkpt lat="43.59307" lon="1.44079">
        <ele>197.244</ele>
        <time>2020-05-24T15:06:06Z</time>
      </trkpt>
      <trkpt lat="43.5928" lon="1.44079">
        <ele>197.127</ele>
        <time>2020-05-24T15:06:12Z</time>
      </trkpt>
      <trkpt lat="43.59251" lon="1.44083">
        <ele>197.049</ele>
        <time>2020-05-24T15:06:18Z</time>
      </trkpt>
      <trkpt lat="43.59231" lon="1.44088">
        <ele>196.996</ele>
        <time>2020-05-24T15:06:24Z</time>
      </trkpt>
      <trkpt lat="43.59222" lon="1.44106">
        <ele>196.975</ele>
        <time>2020-05-24T15:06:29Z</time>
      </trkpt>
      <trkpt lat="43.59223" lon="1.44116">
        <ele>196.961</ele>
        <time>2020-05-24T15:06:35Z</time>
      </trkpt>
      <trkpt lat="43.59223" lon="1.44115">
        <ele>196.955</ele>
        <time>2020-05-24T15:06:40Z</time>
      </trkpt>
      <trkpt lat="43.59223" lon="1.44115">
        <ele>196.947</ele>
        <time>2020-05-24T15:06:46Z</time>
      </trkpt>
      <trkpt lat="43.59223" lon="1.44115">
        <ele>196.941</ele>
        <time>2020-05-24T15:06:51Z</time>
      </trkpt>
      <trkpt lat="43.59222" lon="1.44116">
        <ele>196.933</ele>
        <time>2020-05-24T15:06:57Z</time>
      </trkpt>
      <trkpt lat="43.59223" lon="1.44116">
        <ele>196.928</ele>
        <time>2020-05-24T15:07:02Z</time>
      </trkpt>
      <trkpt lat="43.59224" lon="1.44116">
        <ele>196.926</ele>
        <time>2020-05-24T15:07:08Z</time>
      </trkpt>
      <trkpt lat="43.59224" lon="1.44116">
        <ele>196.921</ele>
        <time>2020-05-24T15:07:13Z</time>
      </trkpt>
      <trkpt lat="43.59224" lon="1.44115">
        <ele>196.916</ele>
        <time>2020-05-24T15:07:19Z</time>
      </trkpt>
      <trkpt lat="43.59225" lon="1.44125">
        <ele>196.88</ele>
        <time>2020-05-24T15:07:24Z</time>
      </trkpt>
      <trkpt lat="43.59223" lon="1.44148">
        <ele>196.868</ele>
        <time>2020-05-24T15:07:29Z</time>
      </trkpt>
      <trkpt lat="43.5922" lon="1.44176">
        <ele>196.812</ele>
        <time>2020-05-24T15:07:35Z</time>
      </trkpt>
      <trkpt lat="43.59219" lon="1.44204">
        <ele>196.713</ele>
        <time>2020-05-24T15:07:40Z</time>
      </trkpt>
      <trkpt lat="43.59233" lon="1.44228">
        <ele>196.686</ele>
        <time>2020-05-24T15:07:46Z</time>
      </trkpt>
      <trkpt lat="43.59241" lon="1.44245">
        <ele>196.681</ele>
        <time>2020-05-24T15:07:52Z</time>
      </trkpt>
      <trkpt lat="43.59236" lon="1.44258">
        <ele>196.684</ele>
        <time>2020-05-24T15:07:58Z</time>
      </trkpt>
      <trkpt lat="43.59237" lon="1.44258">
        <ele>196.685</ele>
        <time>2020-05-24T15:08:03Z</time>
      </trkpt>
      <trkpt lat="43.59236" lon="1.44258">
        <ele>196.69</ele>
        <time>2020-05-24T15:08:09Z</time>
      </trkpt>
      <trkpt lat="43.59226" lon="1.44263">
        <ele>196.702</ele>
        <time>2020-05-24T15:08:14Z</time>
      </trkpt>
      <trkpt lat="43.59215" lon="1.4427">
        <ele>196.713</ele>
        <time>2020-05-24T15:08:20Z</time>
      </trkpt>
      <trkpt lat="43.59214" lon="1.4427">
        <ele>196.716</ele>
        <time>2020-05-24T15:08:26Z</time>
      </trkpt>
      <trkpt lat="43.59212" lon="1.44268">
        <ele>196.719</ele>
        <time>2020-05-24T15:08:31Z</time>
      </trkpt>
      <trkpt lat="43.5921" lon="1.44247">
        <ele>196.722</ele>
        <time>2020-05-24T15:08:36Z</time>
      </trkpt>
      <trkpt lat="43.59203" lon="1.44234">
        <ele>196.736</ele>
        <time>2020-05-24T15:08:42Z</time>
      </trkpt>
      <trkpt lat="43.59187" lon="1.44222">
        <ele>196.747</ele>
        <time>2020-05-24T15:08:48Z</time>
      </trkpt>
      <trkpt lat="43.59171" lon="1.44198">
        <ele>196.757</ele>
        <time>2020-05-24T15:08:54Z</time>
      </trkpt>
      <trkpt lat="43.59156" lon="1.4417">
        <ele>196.758</ele>
        <time>2020-05-24T15:09:00Z</time>
      </trkpt>
      <trkpt lat="43.5913" lon="1.44148">
        <ele>196.755</ele>
        <time>2020-05-24T15:09:06Z</time>
      </trkpt>
      <trkpt lat="43.59108" lon="1.44143">
        <ele>196.762</ele>
        <time>2020-05-24T15:09:11Z</time>
      </trkpt>
      <trkpt lat="43.59086" lon="1.44143">
        <ele>196.777</ele>
        <time>2020-05-24T15:09:16Z</time>
      </trkpt>
      <trkpt lat="43.59061" lon="1.44144">
        <ele>196.687</ele>
        <time>2020-05-24T15:09:22Z</time>
      </trkpt>
      <trkpt lat="43.59041" lon="1.44142">
        <ele>196.608</ele>
        <time>2020-05-24T15:09:28Z</time>
      </trkpt>
      <trkpt lat="43.59023" lon="1.44142">
        <ele>196.323</ele>
        <time>2020-05-24T15:09:34Z</time>
      </trkpt>
      <trkpt lat="43.59014" lon="1.44153">
        <ele>196.01</ele>
        <time>2020-05-24T15:09:39Z</time>
      </trkpt>
      <trkpt lat="43.59004" lon="1.44168">
        <ele>195.57</ele>
        <time>2020-05-24T15:09:45Z</time>
      </trkpt>
      <trkpt lat="43.58998" lon="1.44185">
        <ele>195.315</ele>
        <time>2020-05-24T15:09:51Z</time>
      </trkpt>
      <trkpt lat="43.58996" lon="1.44211">
        <ele>194.944</ele>
        <time>2020-05-24T15:09:56Z</time>
      </trkpt>
      <trkpt lat="43.58989" lon="1.44249">
        <ele>194.514</ele>
        <time>2020-05-24T15:10:02Z</time>
      </trkpt>
      <trkpt lat="43.58985" lon="1.44288">
        <ele>194.482</ele>
        <time>2020-05-24T15:10:08Z</time>
      </trkpt>
      <trkpt lat="43.58981" lon="1.44323">
        <ele>194.702</ele>
        <time>2020-05-24T15:10:14Z</time>
      </trkpt>
      <trkpt lat="43.58977" lon="1.44349">
        <ele>194.733</ele>
        <time>2020-05-24T15:10:19Z</time>
      </trkpt>
      <trkpt lat="43.58974" lon="1.44375">
        <ele>194.832</ele>
        <time>2020-05-24T15:10:24Z</time>
      </trkpt>
      <trkpt lat="43.58972" lon="1.44405">
        <ele>195.103</ele>
        <time>2020-05-24T15:10:30Z</time>
      </trkpt>
      <trkpt lat="43.58968" lon="1.44431">
        <ele>195.181</ele>
        <time>2020-05-24T15:10:35Z</time>
      </trkpt>
      <trkpt lat="43.58968" lon="1.44449">
        <ele>195.238</ele>
        <time>2020-05-24T15:10:40Z</time>
      </trkpt>
      <trkpt lat="43.58965" lon="1.44456">
        <ele>195.32</ele>
        <time>2020-05-24T15:10:45Z</time>
      </trkpt>
      <trkpt lat="43.58953" lon="1.44454">
        <ele>195.445</ele>
        <time>2020-05-24T15:10:50Z</time>
      </trkpt>
      <trkpt lat="43.58921" lon="1.44443">
        <ele>195.948</ele>
        <time>2020-05-24T15:10:56Z</time>
      </trkpt>
      <trkpt lat="43.58903" lon="1.44444">
        <ele>196.464</ele>
        <time>2020-05-24T15:11:01Z</time>
      </trkpt>
      <trkpt lat="43.58885" lon="1.44445">
        <ele>196.873</ele>
        <time>2020-05-24T15:11:06Z</time>
      </trkpt>
      <trkpt lat="43.58858" lon="1.44436">
        <ele>197.058</ele>
        <time>2020-05-24T15:11:12Z</time>
      </trkpt>
      <trkpt lat="43.58829" lon="1.44436">
        <ele>198.046</ele>
        <time>2020-05-24T15:11:18Z</time>
      </trkpt>
      <trkpt lat="43.58806" lon="1.44429">
        <ele>198.388</ele>
        <time>2020-05-24T15:11:24Z</time>
      </trkpt>
      <trkpt lat="43.58767" lon="1.44429">
        <ele>198.8</ele>
        <time>2020-05-24T15:11:30Z</time>
      </trkpt>
      <trkpt lat="43.58735" lon="1.44427">
        <ele>198.973</ele>
        <time>2020-05-24T15:11:36Z</time>
      </trkpt>
      <trkpt lat="43.58713" lon="1.44427">
        <ele>199.072</ele>
        <time>2020-05-24T15:11:41Z</time>
      </trkpt>
      <trkpt lat="43.5869" lon="1.44429">
        <ele>199.185</ele>
        <time>2020-05-24T15:11:46Z</time>
      </trkpt>
      <trkpt lat="43.58664" lon="1.44425">
        <ele>199.118</ele>
        <time>2020-05-24T15:11:52Z</time>
      </trkpt>
      <trkpt lat="43.58644" lon="1.44425">
        <ele>198.94</ele>
        <time>2020-05-24T15:11:57Z</time>
      </trkpt>
      <trkpt lat="43.58616" lon="1.44426">
        <ele>199.356</ele>
        <time>2020-05-24T15:12:03Z</time>
      </trkpt>
      <trkpt lat="43.58592" lon="1.44422">
        <ele>199.939</ele>
        <time>2020-05-24T15:12:08Z</time>
      </trkpt>
      <trkpt lat="43.58563" lon="1.44424">
        <ele>200.416</ele>
        <time>2020-05-24T15:12:14Z</time>
      </trkpt>
      <trkpt lat="43.58539" lon="1.44421">
        <ele>200.515</ele>
        <time>2020-05-24T15:12:20Z</time>
      </trkpt>
      <trkpt lat="43.58518" lon="1.44423">
        <ele>200.539</ele>
        <time>2020-05-24T15:12:25Z</time>
      </trkpt>
      <trkpt lat="43.58497" lon="1.4442">
        <ele>200.633</ele>
        <time>2020-05-24T15:12:31Z</time>
      </trkpt>
      <trkpt lat="43.58477" lon="1.44417">
        <ele>200.674</ele>
        <time>2020-05-24T15:12:37Z</time>
      </trkpt>
      <trkpt lat="43.58452" lon="1.44424">
        <ele>200.667</ele>
        <time>2020-05-24T15:12:43Z</time>
      </trkpt>
      <trkpt lat="43.58425" lon="1.44419">
        <ele>200.661</ele>
        <time>2020-05-24T15:12:49Z</time>
      </trkpt>
      <trkpt lat="43.58416" lon="1.44415">
        <ele>200.674</ele>
        <time>2020-05-24T15:12:54Z</time>
      </trkpt>
      <trkpt lat="43.58406" lon="1.44412">
        <ele>200.733</ele>
        <time>2020-05-24T15:13:00Z</time>
      </trkpt>
      <trkpt lat="43.58386" lon="1.44407">
        <ele>200.804</ele>
        <time>2020-05-24T15:13:06Z</time>
      </trkpt>
      <trkpt lat="43.58369" lon="1.44408">
        <ele>200.95</ele>
        <time>2020-05-24T15:13:11Z</time>
      </trkpt>
      <trkpt lat="43.58347" lon="1.44409">
        <ele>201.207</ele>
        <time>2020-05-24T15:13:16Z</time>
      </trkpt>
      <trkpt lat="43.58326" lon="1.4441">
        <ele>201.287</ele>
        <time>2020-05-24T15:13:22Z</time>
      </trkpt>
      <trkpt lat="43.58304" lon="1.44409">
        <ele>201.328</ele>
        <time>2020-05-24T15:13:28Z</time>
      </trkpt>
      <trkpt lat="43.58273" lon="1.44405">
        <ele>201.318</ele>
        <time>2020-05-24T15:13:34Z</time>
      </trkpt>
      <trkpt lat="43.58251" lon="1.44402">
        <ele>201.299</ele>
        <time>2020-05-24T15:13:39Z</time>
      </trkpt>
      <trkpt lat="43.58215" lon="1.44401">
        <ele>201.198</ele>
        <time>2020-05-24T15:13:45Z</time>
      </trkpt>
      <trkpt lat="43.58194" lon="1.44408">
        <ele>201.139</ele>
        <time>2020-05-24T15:13:50Z</time>
      </trkpt>
      <trkpt lat="43.58176" lon="1.44414">
        <ele>201.134</ele>
        <time>2020-05-24T15:13:56Z</time>
      </trkpt>
      <trkpt lat="43.5815" lon="1.44421">
        <ele>201.088</ele>
        <time>2020-05-24T15:14:01Z</time>
      </trkpt>
      <trkpt lat="43.58123" lon="1.44422">
        <ele>201.097</ele>
        <time>2020-05-24T15:14:06Z</time>
      </trkpt>
      <trkpt lat="43.58114" lon="1.44442">
        <ele>201.1</ele>
        <time>2020-05-24T15:14:12Z</time>
      </trkpt>
      <trkpt lat="43.58112" lon="1.44473">
        <ele>201.089</ele>
        <time>2020-05-24T15:14:18Z</time>
      </trkpt>
      <trkpt lat="43.58114" lon="1.44504">
        <ele>201.045</ele>
        <time>2020-05-24T15:14:23Z</time>
      </trkpt>
      <trkpt lat="43.58116" lon="1.44543">
        <ele>200.985</ele>
        <time>2020-05-24T15:14:29Z</time>
      </trkpt>
      <trkpt lat="43.5812" lon="1.44568">
        <ele>200.933</ele>
        <time>2020-05-24T15:14:34Z</time>
      </trkpt>
      <trkpt lat="43.58126" lon="1.44599">
        <ele>200.91</ele>
        <time>2020-05-24T15:14:40Z</time>
      </trkpt>
      <trkpt lat="43.58133" lon="1.44633">
        <ele>200.833</ele>
        <time>2020-05-24T15:14:46Z</time>
      </trkpt>
      <trkpt lat="43.58137" lon="1.44657">
        <ele>200.813</ele>
        <time>2020-05-24T15:14:51Z</time>
      </trkpt>
      <trkpt lat="43.5814" lon="1.44673">
        <ele>200.794</ele>
        <time>2020-05-24T15:14:56Z</time>
      </trkpt>
      <trkpt lat="43.58147" lon="1.44675">
        <ele>200.778</ele>
        <time>2020-05-24T15:15:02Z</time>
      </trkpt>
      <trkpt lat="43.58147" lon="1.44675">
        <ele>200.771</ele>
        <time>2020-05-24T15:15:08Z</time>
      </trkpt>
      <trkpt lat="43.58151" lon="1.44672">
        <ele>200.757</ele>
        <time>2020-05-24T15:15:13Z</time>
      </trkpt>
      <trkpt lat="43.58154" lon="1.4467">
        <ele>200.747</ele>
        <time>2020-05-24T15:15:19Z</time>
      </trkpt>
      <trkpt lat="43.58157" lon="1.44673">
        <ele>200.735</ele>
        <time>2020-05-24T15:15:25Z</time>
      </trkpt>
      <trkpt lat="43.58159" lon="1.44673">
        <ele>200.717</ele>
        <time>2020-05-24T15:15:30Z</time>
      </trkpt>
      <trkpt lat="43.58159" lon="1.44674">
        <ele>200.702</ele>
        <time>2020-05-24T15:15:36Z</time>
      </trkpt>
      <trkpt lat="43.58158" lon="1.44675">
        <ele>200.685</ele>
        <time>2020-05-24T15:15:42Z</time>
      </trkpt>
      <trkpt lat="43.58157" lon="1.44675">
        <ele>200.673</ele>
        <time>2020-05-24T15:15:47Z</time>
      </trkpt>
      <trkpt lat="43.58157" lon="1.44676">
        <ele>200.669</ele>
        <time>2020-05-24T15:15:52Z</time>
      </trkpt>
      <trkpt lat="43.58157" lon="1.44676">
        <ele>200.665</ele>
        <time>2020-05-24T15:15:58Z</time>
      </trkpt>
      <trkpt lat="43.58158" lon="1.44674">
        <ele>200.648</ele>
        <time>2020-05-24T15:16:03Z</time>
      </trkpt>
      <trkpt lat="43.58159" lon="1.44672">
        <ele>200.621</ele>
        <time>2020-05-24T15:16:09Z</time>
      </trkpt>
      <trkpt lat="43.58159" lon="1.44672">
        <ele>200.618</ele>
        <time>2020-05-24T15:16:14Z</time>
      </trkpt>
      <trkpt lat="43.58158" lon="1.44673">
        <ele>200.615</ele>
        <time>2020-05-24T15:16:20Z</time>
      </trkpt>
      <trkpt lat="43.58159" lon="1.44674">
        <ele>200.6</ele>
        <time>2020-05-24T15:16:26Z</time>
      </trkpt>
      <trkpt lat="43.58158" lon="1.44674">
        <ele>200.591</ele>
        <time>2020-05-24T15:16:32Z</time>
      </trkpt>
      <trkpt lat="43.58156" lon="1.44674">
        <ele>200.586</ele>
        <time>2020-05-24T15:16:38Z</time>
      </trkpt>
      <trkpt lat="43.58156" lon="1.44675">
        <ele>200.582</ele>
        <time>2020-05-24T15:16:43Z</time>
      </trkpt>
      <trkpt lat="43.58156" lon="1.44675">
        <ele>200.57</ele>
        <time>2020-05-24T15:16:49Z</time>
      </trkpt>
      <trkpt lat="43.58157" lon="1.44678">
        <ele>200.552</ele>
        <time>2020-05-24T15:16:55Z</time>
      </trkpt>
      <trkpt lat="43.58157" lon="1.44678">
        <ele>200.543</ele>
        <time>2020-05-24T15:17:01Z</time>
      </trkpt>
      <trkpt lat="43.58156" lon="1.44678">
        <ele>200.54</ele>
        <time>2020-05-24T15:17:06Z</time>
      </trkpt>
      <trkpt lat="43.58155" lon="1.44678">
        <ele>200.518</ele>
        <time>2020-05-24T15:17:11Z</time>
      </trkpt>
      <trkpt lat="43.58155" lon="1.44679">
        <ele>200.489</ele>
        <time>2020-05-24T15:17:17Z</time>
      </trkpt>
      <trkpt lat="43.58159" lon="1.44674">
        <ele>200.463</ele>
        <time>2020-05-24T15:17:23Z</time>
      </trkpt>
      <trkpt lat="43.58159" lon="1.44674">
        <ele>200.454</ele>
        <time>2020-05-24T15:17:28Z</time>
      </trkpt>
      <trkpt lat="43.58162" lon="1.44673">
        <ele>200.431</ele>
        <time>2020-05-24T15:17:34Z</time>
      </trkpt>
      <trkpt lat="43.58165" lon="1.4467">
        <ele>200.408</ele>
        <time>2020-05-24T15:17:39Z</time>
      </trkpt>
      <trkpt lat="43.58166" lon="1.44671">
        <ele>200.385</ele>
        <time>2020-05-24T15:17:44Z</time>
      </trkpt>
      <trkpt lat="43.58166" lon="1.44672">
        <ele>200.366</ele>
        <time>2020-05-24T15:17:49Z</time>
      </trkpt>
      <trkpt lat="43.58164" lon="1.44672">
        <ele>200.339</ele>
        <time>2020-05-24T15:17:55Z</time>
      </trkpt>
      <trkpt lat="43.58163" lon="1.44669">
        <ele>200.316</ele>
        <time>2020-05-24T15:18:01Z</time>
      </trkpt>
      <trkpt lat="43.58164" lon="1.44667">
        <ele>200.304</ele>
        <time>2020-05-24T15:18:07Z</time>
      </trkpt>
      <trkpt lat="43.58163" lon="1.44667">
        <ele>200.292</ele>
        <time>2020-05-24T15:18:12Z</time>
      </trkpt>
      <trkpt lat="43.58162" lon="1.44667">
        <ele>200.279</ele>
        <time>2020-05-24T15:18:18Z</time>
      </trkpt>
      <trkpt lat="43.58161" lon="1.44665">
        <ele>200.267</ele>
        <time>2020-05-24T15:18:23Z</time>
      </trkpt>
      <trkpt lat="43.5816" lon="1.44664">
        <ele>200.259</ele>
        <time>2020-05-24T15:18:28Z</time>
      </trkpt>
      <trkpt lat="43.58159" lon="1.44666">
        <ele>200.244</ele>
        <time>2020-05-24T15:18:34Z</time>
      </trkpt>
      <trkpt lat="43.58158" lon="1.44665">
        <ele>200.232</ele>
        <time>2020-05-24T15:18:40Z</time>
      </trkpt>
      <trkpt lat="43.58159" lon="1.44664">
        <ele>200.224</ele>
        <time>2020-05-24T15:18:46Z</time>
      </trkpt>
      <trkpt lat="43.58158" lon="1.44661">
        <ele>200.215</ele>
        <time>2020-05-24T15:18:51Z</time>
      </trkpt>
      <trkpt lat="43.58163" lon="1.44671">
        <ele>200.207</ele>
        <time>2020-05-24T15:18:57Z</time>
      </trkpt>
      <trkpt lat="43.5816" lon="1.4467">
        <ele>200.203</ele>
        <time>2020-05-24T15:19:03Z</time>
      </trkpt>
      <trkpt lat="43.58158" lon="1.44667">
        <ele>200.198</ele>
        <time>2020-05-24T15:19:08Z</time>
      </trkpt>
      <trkpt lat="43.58159" lon="1.44665">
        <ele>200.191</ele>
        <time>2020-05-24T15:19:14Z</time>
      </trkpt>
      <trkpt lat="43.58149" lon="1.44673">
        <ele>200.262</ele>
        <time>2020-05-24T15:43:33Z</time>
      </trkpt>
      <trkpt lat="43.5815" lon="1.44674">
        <ele>200.247</ele>
        <time>2020-05-24T15:43:38Z</time>
      </trkpt>
      <trkpt lat="43.58151" lon="1.44676">
        <ele>200.231</ele>
        <time>2020-05-24T15:43:44Z</time>
      </trkpt>
      <trkpt lat="43.58152" lon="1.44677">
        <ele>200.225</ele>
        <time>2020-05-24T15:43:50Z</time>
      </trkpt>
      <trkpt lat="43.58152" lon="1.44677">
        <ele>200.225</ele>
        <time>2020-05-24T15:43:55Z</time>
      </trkpt>
      <trkpt lat="43.58152" lon="1.44677">
        <ele>200.225</ele>
        <time>2020-05-24T15:44:01Z</time>
      </trkpt>
      <trkpt lat="43.58152" lon="1.44676">
        <ele>200.225</ele>
        <time>2020-05-24T15:44:07Z</time>
      </trkpt>
      <trkpt lat="43.58151" lon="1.44676">
        <ele>200.226</ele>
        <time>2020-05-24T15:44:13Z</time>
      </trkpt>
      <trkpt lat="43.58152" lon="1.44676">
        <ele>200.226</ele>
        <time>2020-05-24T15:44:19Z</time>
      </trkpt>
      <trkpt lat="43.58152" lon="1.44676">
        <ele>200.227</ele>
        <time>2020-05-24T15:44:25Z</time>
      </trkpt>
      <trkpt lat="43.58152" lon="1.44677">
        <ele>200.233</ele>
        <time>2020-05-24T15:44:31Z</time>
      </trkpt>
      <trkpt lat="43.58152" lon="1.44677">
        <ele>200.236</ele>
        <time>2020-05-24T15:44:36Z</time>
      </trkpt>
      <trkpt lat="43.58152" lon="1.44677">
        <ele>200.239</ele>
        <time>2020-05-24T15:44:41Z</time>
      </trkpt>
      <trkpt lat="43.58153" lon="1.44678">
        <ele>200.242</ele>
        <time>2020-05-24T15:44:47Z</time>
      </trkpt>
      <trkpt lat="43.58154" lon="1.4468">
        <ele>200.244</ele>
        <time>2020-05-24T15:44:53Z</time>
      </trkpt>
      <trkpt lat="43.58154" lon="1.4468">
        <ele>200.245</ele>
        <time>2020-05-24T15:44:59Z</time>
      </trkpt>
      <trkpt lat="43.58154" lon="1.4468">
        <ele>200.246</ele>
        <time>2020-05-24T15:45:05Z</time>
      </trkpt>
      <trkpt lat="43.58154" lon="1.4468">
        <ele>200.247</ele>
        <time>2020-05-24T15:45:11Z</time>
      </trkpt>
      <trkpt lat="43.58154" lon="1.4468">
        <ele>200.248</ele>
        <time>2020-05-24T15:45:16Z</time>
      </trkpt>
      <trkpt lat="43.58154" lon="1.4468">
        <ele>200.249</ele>
        <time>2020-05-24T15:45:21Z</time>
      </trkpt>
      <trkpt lat="43.58154" lon="1.4468">
        <ele>200.251</ele>
        <time>2020-05-24T15:45:27Z</time>
      </trkpt>
      <trkpt lat="43.58153" lon="1.44679">
        <ele>200.264</ele>
        <time>2020-05-24T15:45:32Z</time>
      </trkpt>
      <trkpt lat="43.58154" lon="1.44679">
        <ele>200.277</ele>
        <time>2020-05-24T15:45:38Z</time>
      </trkpt>
      <trkpt lat="43.58154" lon="1.44679">
        <ele>200.279</ele>
        <time>2020-05-24T15:45:44Z</time>
      </trkpt>
      <trkpt lat="43.58154" lon="1.44679">
        <ele>200.282</ele>
        <time>2020-05-24T15:45:49Z</time>
      </trkpt>
      <trkpt lat="43.58154" lon="1.44679">
        <ele>200.285</ele>
        <time>2020-05-24T15:45:55Z</time>
      </trkpt>
      <trkpt lat="43.58154" lon="1.44679">
        <ele>200.289</ele>
        <time>2020-05-24T15:46:01Z</time>
      </trkpt>
      <trkpt lat="43.58154" lon="1.44679">
        <ele>200.293</ele>
        <time>2020-05-24T15:46:07Z</time>
      </trkpt>
      <trkpt lat="43.58155" lon="1.44679">
        <ele>200.296</ele>
        <time>2020-05-24T15:46:12Z</time>
      </trkpt>
      <trkpt lat="43.58155" lon="1.44679">
        <ele>200.299</ele>
        <time>2020-05-24T15:46:17Z</time>
      </trkpt>
      <trkpt lat="43.58155" lon="1.44679">
        <ele>200.303</ele>
        <time>2020-05-24T15:46:23Z</time>
      </trkpt>
      <trkpt lat="43.58155" lon="1.44679">
        <ele>200.307</ele>
        <time>2020-05-24T15:46:29Z</time>
      </trkpt>
      <trkpt lat="43.58155" lon="1.4468">
        <ele>200.33</ele>
        <time>2020-05-24T15:46:35Z</time>
      </trkpt>
      <trkpt lat="43.58155" lon="1.44679">
        <ele>200.341</ele>
        <time>2020-05-24T15:46:41Z</time>
      </trkpt>
      <trkpt lat="43.58155" lon="1.4468">
        <ele>200.345</ele>
        <time>2020-05-24T15:46:46Z</time>
      </trkpt>
      <trkpt lat="43.58155" lon="1.4468">
        <ele>200.35</ele>
        <time>2020-05-24T15:46:51Z</time>
      </trkpt>
      <trkpt lat="43.58155" lon="1.4468">
        <ele>200.366</ele>
        <time>2020-05-24T15:46:57Z</time>
      </trkpt>
      <trkpt lat="43.58156" lon="1.44678">
        <ele>200.383</ele>
        <time>2020-05-24T15:47:03Z</time>
      </trkpt>
      <trkpt lat="43.58156" lon="1.44678">
        <ele>200.399</ele>
        <time>2020-05-24T15:47:09Z</time>
      </trkpt>
      <trkpt lat="43.58157" lon="1.44678">
        <ele>200.433</ele>
        <time>2020-05-24T15:47:14Z</time>
      </trkpt>
      <trkpt lat="43.58158" lon="1.44677">
        <ele>200.448</ele>
        <time>2020-05-24T15:47:20Z</time>
      </trkpt>
      <trkpt lat="43.58158" lon="1.44677">
        <ele>200.455</ele>
        <time>2020-05-24T15:47:26Z</time>
      </trkpt>
      <trkpt lat="43.58158" lon="1.44677">
        <ele>200.476</ele>
        <time>2020-05-24T15:47:32Z</time>
      </trkpt>
      <trkpt lat="43.58158" lon="1.44677">
        <ele>200.496</ele>
        <time>2020-05-24T15:47:37Z</time>
      </trkpt>
      <trkpt lat="43.58161" lon="1.44669">
        <ele>200.549</ele>
        <time>2020-05-24T15:47:43Z</time>
      </trkpt>
      <trkpt lat="43.58159" lon="1.44652">
        <ele>200.605</ele>
        <time>2020-05-24T15:47:48Z</time>
      </trkpt>
      <trkpt lat="43.58155" lon="1.44634">
        <ele>200.661</ele>
        <time>2020-05-24T15:47:54Z</time>
      </trkpt>
      <trkpt lat="43.5815" lon="1.44614">
        <ele>200.702</ele>
        <time>2020-05-24T15:47:59Z</time>
      </trkpt>
      <trkpt lat="43.58145" lon="1.4459">
        <ele>200.744</ele>
        <time>2020-05-24T15:48:05Z</time>
      </trkpt>
      <trkpt lat="43.58141" lon="1.44562">
        <ele>200.781</ele>
        <time>2020-05-24T15:48:11Z</time>
      </trkpt>
      <trkpt lat="43.58134" lon="1.44538">
        <ele>200.808</ele>
        <time>2020-05-24T15:48:16Z</time>
      </trkpt>
      <trkpt lat="43.58122" lon="1.44503">
        <ele>200.889</ele>
        <time>2020-05-24T15:48:22Z</time>
      </trkpt>
      <trkpt lat="43.58109" lon="1.44476">
        <ele>200.919</ele>
        <time>2020-05-24T15:48:27Z</time>
      </trkpt>
      <trkpt lat="43.58098" lon="1.44448">
        <ele>200.921</ele>
        <time>2020-05-24T15:48:33Z</time>
      </trkpt>
      <trkpt lat="43.58097" lon="1.44432">
        <ele>200.925</ele>
        <time>2020-05-24T15:48:39Z</time>
      </trkpt>
      <trkpt lat="43.58086" lon="1.44439">
        <ele>200.938</ele>
        <time>2020-05-24T15:48:44Z</time>
      </trkpt>
      <trkpt lat="43.58069" lon="1.44458">
        <ele>201.053</ele>
        <time>2020-05-24T15:48:50Z</time>
      </trkpt>
      <trkpt lat="43.58047" lon="1.44481">
        <ele>201.155</ele>
        <time>2020-05-24T15:48:56Z</time>
      </trkpt>
      <trkpt lat="43.58025" lon="1.445">
        <ele>201.236</ele>
        <time>2020-05-24T15:49:02Z</time>
      </trkpt>
      <trkpt lat="43.58004" lon="1.44517">
        <ele>201.278</ele>
        <time>2020-05-24T15:49:07Z</time>
      </trkpt>
      <trkpt lat="43.57984" lon="1.44538">
        <ele>201.32</ele>
        <time>2020-05-24T15:49:12Z</time>
      </trkpt>
      <trkpt lat="43.57968" lon="1.44555">
        <ele>201.347</ele>
        <time>2020-05-24T15:49:17Z</time>
      </trkpt>
      <trkpt lat="43.57962" lon="1.44563">
        <ele>201.355</ele>
        <time>2020-05-24T15:49:22Z</time>
      </trkpt>
      <trkpt lat="43.57954" lon="1.44572">
        <ele>201.363</ele>
        <time>2020-05-24T15:49:28Z</time>
      </trkpt>
      <trkpt lat="43.57941" lon="1.44586">
        <ele>201.372</ele>
        <time>2020-05-24T15:49:33Z</time>
      </trkpt>
      <trkpt lat="43.57923" lon="1.44611">
        <ele>201.447</ele>
        <time>2020-05-24T15:49:39Z</time>
      </trkpt>
      <trkpt lat="43.57904" lon="1.44631">
        <ele>201.508</ele>
        <time>2020-05-24T15:49:44Z</time>
      </trkpt>
      <trkpt lat="43.57887" lon="1.44655">
        <ele>201.564</ele>
        <time>2020-05-24T15:49:49Z</time>
      </trkpt>
      <trkpt lat="43.57868" lon="1.44676">
        <ele>201.645</ele>
        <time>2020-05-24T15:49:55Z</time>
      </trkpt>
      <trkpt lat="43.57843" lon="1.447">
        <ele>201.668</ele>
        <time>2020-05-24T15:50:01Z</time>
      </trkpt>
      <trkpt lat="43.57819" lon="1.44727">
        <ele>201.697</ele>
        <time>2020-05-24T15:50:07Z</time>
      </trkpt>
      <trkpt lat="43.57799" lon="1.44747">
        <ele>201.724</ele>
        <time>2020-05-24T15:50:13Z</time>
      </trkpt>
      <trkpt lat="43.57784" lon="1.44762">
        <ele>201.753</ele>
        <time>2020-05-24T15:50:18Z</time>
      </trkpt>
      <trkpt lat="43.57762" lon="1.44778">
        <ele>201.762</ele>
        <time>2020-05-24T15:50:23Z</time>
      </trkpt>
      <trkpt lat="43.57739" lon="1.44798">
        <ele>201.756</ele>
        <time>2020-05-24T15:50:29Z</time>
      </trkpt>
      <trkpt lat="43.57718" lon="1.44813">
        <ele>201.808</ele>
        <time>2020-05-24T15:50:34Z</time>
      </trkpt>
      <trkpt lat="43.57699" lon="1.4483">
        <ele>201.818</ele>
        <time>2020-05-24T15:50:39Z</time>
      </trkpt>
      <trkpt lat="43.57677" lon="1.44851">
        <ele>201.81</ele>
        <time>2020-05-24T15:50:45Z</time>
      </trkpt>
      <trkpt lat="43.57656" lon="1.44869">
        <ele>201.792</ele>
        <time>2020-05-24T15:50:51Z</time>
      </trkpt>
      <trkpt lat="43.57632" lon="1.44887">
        <ele>201.769</ele>
        <time>2020-05-24T15:50:57Z</time>
      </trkpt>
      <trkpt lat="43.57614" lon="1.44905">
        <ele>201.776</ele>
        <time>2020-05-24T15:51:02Z</time>
      </trkpt>
      <trkpt lat="43.57592" lon="1.44924">
        <ele>201.861</ele>
        <time>2020-05-24T15:51:08Z</time>
      </trkpt>
      <trkpt lat="43.57573" lon="1.4494">
        <ele>201.883</ele>
        <time>2020-05-24T15:51:13Z</time>
      </trkpt>
      <trkpt lat="43.5755" lon="1.44962">
        <ele>201.929</ele>
        <time>2020-05-24T15:51:19Z</time>
      </trkpt>
      <trkpt lat="43.57532" lon="1.44978">
        <ele>202.042</ele>
        <time>2020-05-24T15:51:24Z</time>
      </trkpt>
      <trkpt lat="43.57511" lon="1.45">
        <ele>202.092</ele>
        <time>2020-05-24T15:51:30Z</time>
      </trkpt>
      <trkpt lat="43.57494" lon="1.45014">
        <ele>202.161</ele>
        <time>2020-05-24T15:51:35Z</time>
      </trkpt>
      <trkpt lat="43.57479" lon="1.45031">
        <ele>202.195</ele>
        <time>2020-05-24T15:51:40Z</time>
      </trkpt>
      <trkpt lat="43.5746" lon="1.45052">
        <ele>202.277</ele>
        <time>2020-05-24T15:51:46Z</time>
      </trkpt>
      <trkpt lat="43.57438" lon="1.45074">
        <ele>202.362</ele>
        <time>2020-05-24T15:51:52Z</time>
      </trkpt>
      <trkpt lat="43.57416" lon="1.45096">
        <ele>202.513</ele>
        <time>2020-05-24T15:51:58Z</time>
      </trkpt>
      <trkpt lat="43.57401" lon="1.45114">
        <ele>202.583</ele>
        <time>2020-05-24T15:52:03Z</time>
      </trkpt>
      <trkpt lat="43.57383" lon="1.45133">
        <ele>202.633</ele>
        <time>2020-05-24T15:52:09Z</time>
      </trkpt>
      <trkpt lat="43.57377" lon="1.45145">
        <ele>202.638</ele>
        <time>2020-05-24T15:52:14Z</time>
      </trkpt>
      <trkpt lat="43.57378" lon="1.45154">
        <ele>202.645</ele>
        <time>2020-05-24T15:52:19Z</time>
      </trkpt>
      <trkpt lat="43.57384" lon="1.45167">
        <ele>202.654</ele>
        <time>2020-05-24T15:52:24Z</time>
      </trkpt>
      <trkpt lat="43.57386" lon="1.45178">
        <ele>202.666</ele>
        <time>2020-05-24T15:52:30Z</time>
      </trkpt>
      <trkpt lat="43.57385" lon="1.45182">
        <ele>202.674</ele>
        <time>2020-05-24T15:52:35Z</time>
      </trkpt>
      <trkpt lat="43.57385" lon="1.45182">
        <ele>202.676</ele>
        <time>2020-05-24T15:52:40Z</time>
      </trkpt>
      <trkpt lat="43.57385" lon="1.45182">
        <ele>202.677</ele>
        <time>2020-05-24T15:52:46Z</time>
      </trkpt>
      <trkpt lat="43.57384" lon="1.45182">
        <ele>202.681</ele>
        <time>2020-05-24T15:52:52Z</time>
      </trkpt>
      <trkpt lat="43.57385" lon="1.45182">
        <ele>202.685</ele>
        <time>2020-05-24T15:52:57Z</time>
      </trkpt>
      <trkpt lat="43.57385" lon="1.45182">
        <ele>202.689</ele>
        <time>2020-05-24T15:53:02Z</time>
      </trkpt>
      <trkpt lat="43.57385" lon="1.45182">
        <ele>202.692</ele>
        <time>2020-05-24T15:53:07Z</time>
      </trkpt>
      <trkpt lat="43.57385" lon="1.45182">
        <ele>202.695</ele>
        <time>2020-05-24T15:53:13Z</time>
      </trkpt>
      <trkpt lat="43.57385" lon="1.45183">
        <ele>202.713</ele>
        <time>2020-05-24T15:53:18Z</time>
      </trkpt>
      <trkpt lat="43.57385" lon="1.45195">
        <ele>202.746</ele>
        <time>2020-05-24T15:53:23Z</time>
      </trkpt>
      <trkpt lat="43.57382" lon="1.45208">
        <ele>202.783</ele>
        <time>2020-05-24T15:53:28Z</time>
      </trkpt>
      <trkpt lat="43.5738" lon="1.45226">
        <ele>202.821</ele>
        <time>2020-05-24T15:53:33Z</time>
      </trkpt>
      <trkpt lat="43.5736" lon="1.4525">
        <ele>202.862</ele>
        <time>2020-05-24T15:53:39Z</time>
      </trkpt>
      <trkpt lat="43.57345" lon="1.45279">
        <ele>202.945</ele>
        <time>2020-05-24T15:53:44Z</time>
      </trkpt>
      <trkpt lat="43.57334" lon="1.45309">
        <ele>203.076</ele>
        <time>2020-05-24T15:53:50Z</time>
      </trkpt>
      <trkpt lat="43.57322" lon="1.45327">
        <ele>203.16</ele>
        <time>2020-05-24T15:53:55Z</time>
      </trkpt>
      <trkpt lat="43.57307" lon="1.45355">
        <ele>203.255</ele>
        <time>2020-05-24T15:54:01Z</time>
      </trkpt>
      <trkpt lat="43.57289" lon="1.45385">
        <ele>203.263</ele>
        <time>2020-05-24T15:54:07Z</time>
      </trkpt>
      <trkpt lat="43.57279" lon="1.4542">
        <ele>203.295</ele>
        <time>2020-05-24T15:54:13Z</time>
      </trkpt>
      <trkpt lat="43.57272" lon="1.45451">
        <ele>203.35</ele>
        <time>2020-05-24T15:54:18Z</time>
      </trkpt>
      <trkpt lat="43.57267" lon="1.4548">
        <ele>203.375</ele>
        <time>2020-05-24T15:54:23Z</time>
      </trkpt>
      <trkpt lat="43.57259" lon="1.45516">
        <ele>203.38</ele>
        <time>2020-05-24T15:54:29Z</time>
      </trkpt>
      <trkpt lat="43.57252" lon="1.4555">
        <ele>203.442</ele>
        <time>2020-05-24T15:54:35Z</time>
      </trkpt>
      <trkpt lat="43.57247" lon="1.4557">
        <ele>203.442</ele>
        <time>2020-05-24T15:54:41Z</time>
      </trkpt>
      <trkpt lat="43.57241" lon="1.45594">
        <ele>203.416</ele>
        <time>2020-05-24T15:54:47Z</time>
      </trkpt>
      <trkpt lat="43.57241" lon="1.45628">
        <ele>203.109</ele>
        <time>2020-05-24T15:54:53Z</time>
      </trkpt>
      <trkpt lat="43.57246" lon="1.45656">
        <ele>202.949</ele>
        <time>2020-05-24T15:54:58Z</time>
      </trkpt>
      <trkpt lat="43.57239" lon="1.45685">
        <ele>202.908</ele>
        <time>2020-05-24T15:55:04Z</time>
      </trkpt>
      <trkpt lat="43.57234" lon="1.45713">
        <ele>202.876</ele>
        <time>2020-05-24T15:55:09Z</time>
      </trkpt>
      <trkpt lat="43.57233" lon="1.45757">
        <ele>202.719</ele>
        <time>2020-05-24T15:55:15Z</time>
      </trkpt>
      <trkpt lat="43.57233" lon="1.45784">
        <ele>202.705</ele>
        <time>2020-05-24T15:55:20Z</time>
      </trkpt>
      <trkpt lat="43.57234" lon="1.45826">
        <ele>202.561</ele>
        <time>2020-05-24T15:55:26Z</time>
      </trkpt>
      <trkpt lat="43.57235" lon="1.45854">
        <ele>202.483</ele>
        <time>2020-05-24T15:55:31Z</time>
      </trkpt>
      <trkpt lat="43.57236" lon="1.45878">
        <ele>202.461</ele>
        <time>2020-05-24T15:55:37Z</time>
      </trkpt>
      <trkpt lat="43.57244" lon="1.459">
        <ele>202.446</ele>
        <time>2020-05-24T15:55:43Z</time>
      </trkpt>
      <trkpt lat="43.57268" lon="1.45917">
        <ele>202.429</ele>
        <time>2020-05-24T15:55:49Z</time>
      </trkpt>
      <trkpt lat="43.57297" lon="1.45929">
        <ele>202.405</ele>
        <time>2020-05-24T15:55:55Z</time>
      </trkpt>
      <trkpt lat="43.57313" lon="1.45944">
        <ele>202.411</ele>
        <time>2020-05-24T15:56:01Z</time>
      </trkpt>
      <trkpt lat="43.57313" lon="1.45956">
        <ele>202.421</ele>
        <time>2020-05-24T15:56:06Z</time>
      </trkpt>
      <trkpt lat="43.57298" lon="1.45976">
        <ele>202.43</ele>
        <time>2020-05-24T15:56:12Z</time>
      </trkpt>
      <trkpt lat="43.57283" lon="1.45998">
        <ele>202.439</ele>
        <time>2020-05-24T15:56:18Z</time>
      </trkpt>
      <trkpt lat="43.5727" lon="1.46018">
        <ele>202.448</ele>
        <time>2020-05-24T15:56:23Z</time>
      </trkpt>
      <trkpt lat="43.57255" lon="1.46038">
        <ele>202.46</ele>
        <time>2020-05-24T15:56:29Z</time>
      </trkpt>
      <trkpt lat="43.57244" lon="1.46056">
        <ele>202.471</ele>
        <time>2020-05-24T15:56:35Z</time>
      </trkpt>
      <trkpt lat="43.5723" lon="1.4609">
        <ele>202.483</ele>
        <time>2020-05-24T15:56:41Z</time>
      </trkpt>
      <trkpt lat="43.57216" lon="1.46119">
        <ele>202.523</ele>
        <time>2020-05-24T15:56:46Z</time>
      </trkpt>
      <trkpt lat="43.57201" lon="1.46149">
        <ele>202.555</ele>
        <time>2020-05-24T15:56:52Z</time>
      </trkpt>
      <trkpt lat="43.5719" lon="1.46169">
        <ele>202.568</ele>
        <time>2020-05-24T15:56:57Z</time>
      </trkpt>
      <trkpt lat="43.57176" lon="1.46188">
        <ele>202.613</ele>
        <time>2020-05-24T15:57:03Z</time>
      </trkpt>
      <trkpt lat="43.5716" lon="1.46213">
        <ele>202.68</ele>
        <time>2020-05-24T15:57:08Z</time>
      </trkpt>
      <trkpt lat="43.57144" lon="1.46238">
        <ele>202.696</ele>
        <time>2020-05-24T15:57:14Z</time>
      </trkpt>
      <trkpt lat="43.57127" lon="1.46258">
        <ele>202.713</ele>
        <time>2020-05-24T15:57:19Z</time>
      </trkpt>
      <trkpt lat="43.57111" lon="1.46282">
        <ele>202.737</ele>
        <time>2020-05-24T15:57:24Z</time>
      </trkpt>
      <trkpt lat="43.57092" lon="1.46312">
        <ele>202.788</ele>
        <time>2020-05-24T15:57:30Z</time>
      </trkpt>
      <trkpt lat="43.57078" lon="1.46336">
        <ele>202.828</ele>
        <time>2020-05-24T15:57:35Z</time>
      </trkpt>
      <trkpt lat="43.57058" lon="1.46364">
        <ele>202.884</ele>
        <time>2020-05-24T15:57:41Z</time>
      </trkpt>
      <trkpt lat="43.57034" lon="1.46384">
        <ele>202.897</ele>
        <time>2020-05-24T15:57:47Z</time>
      </trkpt>
      <trkpt lat="43.57005" lon="1.46391">
        <ele>202.946</ele>
        <time>2020-05-24T15:57:53Z</time>
      </trkpt>
      <trkpt lat="43.56989" lon="1.46399">
        <ele>202.945</ele>
        <time>2020-05-24T15:57:58Z</time>
      </trkpt>
      <trkpt lat="43.56967" lon="1.4641">
        <ele>202.894</ele>
        <time>2020-05-24T15:58:04Z</time>
      </trkpt>
      <trkpt lat="43.56942" lon="1.4641">
        <ele>202.746</ele>
        <time>2020-05-24T15:58:09Z</time>
      </trkpt>
      <trkpt lat="43.56908" lon="1.46411">
        <ele>202.648</ele>
        <time>2020-05-24T15:58:15Z</time>
      </trkpt>
      <trkpt lat="43.56877" lon="1.46413">
        <ele>202.615</ele>
        <time>2020-05-24T15:58:21Z</time>
      </trkpt>
      <trkpt lat="43.56851" lon="1.46415">
        <ele>202.613</ele>
        <time>2020-05-24T15:58:26Z</time>
      </trkpt>
      <trkpt lat="43.56822" lon="1.46421">
        <ele>202.614</ele>
        <time>2020-05-24T15:58:32Z</time>
      </trkpt>
      <trkpt lat="43.56795" lon="1.46427">
        <ele>202.608</ele>
        <time>2020-05-24T15:58:38Z</time>
      </trkpt>
      <trkpt lat="43.56772" lon="1.46434">
        <ele>202.57</ele>
        <time>2020-05-24T15:58:43Z</time>
      </trkpt>
      <trkpt lat="43.56747" lon="1.46441">
        <ele>202.535</ele>
        <time>2020-05-24T15:58:48Z</time>
      </trkpt>
      <trkpt lat="43.56733" lon="1.46466">
        <ele>202.532</ele>
        <time>2020-05-24T15:58:54Z</time>
      </trkpt>
      <trkpt lat="43.56721" lon="1.46484">
        <ele>202.55</ele>
        <time>2020-05-24T15:58:59Z</time>
      </trkpt>
      <trkpt lat="43.56703" lon="1.465">
        <ele>202.671</ele>
        <time>2020-05-24T15:59:04Z</time>
      </trkpt>
      <trkpt lat="43.56681" lon="1.4652">
        <ele>202.731</ele>
        <time>2020-05-24T15:59:10Z</time>
      </trkpt>
      <trkpt lat="43.56657" lon="1.46543">
        <ele>202.748</ele>
        <time>2020-05-24T15:59:16Z</time>
      </trkpt>
      <trkpt lat="43.56632" lon="1.46559">
        <ele>202.787</ele>
        <time>2020-05-24T15:59:21Z</time>
      </trkpt>
      <trkpt lat="43.56613" lon="1.4658">
        <ele>202.782</ele>
        <time>2020-05-24T15:59:27Z</time>
      </trkpt>
      <trkpt lat="43.56599" lon="1.46594">
        <ele>202.762</ele>
        <time>2020-05-24T15:59:32Z</time>
      </trkpt>
      <trkpt lat="43.56579" lon="1.46613">
        <ele>202.72</ele>
        <time>2020-05-24T15:59:38Z</time>
      </trkpt>
      <trkpt lat="43.56561" lon="1.4663">
        <ele>202.674</ele>
        <time>2020-05-24T15:59:43Z</time>
      </trkpt>
      <trkpt lat="43.56538" lon="1.46653">
        <ele>202.645</ele>
        <time>2020-05-24T15:59:49Z</time>
      </trkpt>
      <trkpt lat="43.56516" lon="1.46675">
        <ele>202.627</ele>
        <time>2020-05-24T15:59:55Z</time>
      </trkpt>
      <trkpt lat="43.56495" lon="1.46696">
        <ele>202.637</ele>
        <time>2020-05-24T16:00:00Z</time>
      </trkpt>
      <trkpt lat="43.56472" lon="1.4672">
        <ele>202.63</ele>
        <time>2020-05-24T16:00:06Z</time>
      </trkpt>
      <trkpt lat="43.56447" lon="1.46745">
        <ele>202.607</ele>
        <time>2020-05-24T16:00:12Z</time>
      </trkpt>
      <trkpt lat="43.56428" lon="1.46766">
        <ele>202.604</ele>
        <time>2020-05-24T16:00:17Z</time>
      </trkpt>
      <trkpt lat="43.56415" lon="1.46799">
        <ele>202.628</ele>
        <time>2020-05-24T16:00:23Z</time>
      </trkpt>
      <trkpt lat="43.56404" lon="1.46819">
        <ele>202.692</ele>
        <time>2020-05-24T16:00:28Z</time>
      </trkpt>
      <trkpt lat="43.56385" lon="1.46838">
        <ele>202.743</ele>
        <time>2020-05-24T16:00:33Z</time>
      </trkpt>
      <trkpt lat="43.56362" lon="1.46863">
        <ele>202.788</ele>
        <time>2020-05-24T16:00:39Z</time>
      </trkpt>
      <trkpt lat="43.56339" lon="1.46889">
        <ele>202.785</ele>
        <time>2020-05-24T16:00:45Z</time>
      </trkpt>
      <trkpt lat="43.56318" lon="1.46908">
        <ele>202.757</ele>
        <time>2020-05-24T16:00:50Z</time>
      </trkpt>
      <trkpt lat="43.5629" lon="1.46928">
        <ele>202.711</ele>
        <time>2020-05-24T16:00:56Z</time>
      </trkpt>
      <trkpt lat="43.56265" lon="1.46945">
        <ele>202.719</ele>
        <time>2020-05-24T16:01:02Z</time>
      </trkpt>
      <trkpt lat="43.5624" lon="1.46955">
        <ele>202.75</ele>
        <time>2020-05-24T16:01:08Z</time>
      </trkpt>
      <trkpt lat="43.56218" lon="1.4698">
        <ele>202.776</ele>
        <time>2020-05-24T16:01:13Z</time>
      </trkpt>
      <trkpt lat="43.56193" lon="1.47002">
        <ele>202.762</ele>
        <time>2020-05-24T16:01:19Z</time>
      </trkpt>
      <trkpt lat="43.56168" lon="1.4702">
        <ele>202.773</ele>
        <time>2020-05-24T16:01:25Z</time>
      </trkpt>
      <trkpt lat="43.56146" lon="1.4705">
        <ele>202.816</ele>
        <time>2020-05-24T16:01:30Z</time>
      </trkpt>
      <trkpt lat="43.56119" lon="1.47079">
        <ele>202.909</ele>
        <time>2020-05-24T16:01:36Z</time>
      </trkpt>
      <trkpt lat="43.56095" lon="1.47107">
        <ele>202.994</ele>
        <time>2020-05-24T16:01:42Z</time>
      </trkpt>
      <trkpt lat="43.56074" lon="1.47128">
        <ele>203.038</ele>
        <time>2020-05-24T16:01:48Z</time>
      </trkpt>
      <trkpt lat="43.56048" lon="1.47155">
        <ele>203.072</ele>
        <time>2020-05-24T16:01:54Z</time>
      </trkpt>
      <trkpt lat="43.56021" lon="1.47181">
        <ele>203.076</ele>
        <time>2020-05-24T16:02:00Z</time>
      </trkpt>
      <trkpt lat="43.56002" lon="1.47202">
        <ele>203.048</ele>
        <time>2020-05-24T16:02:05Z</time>
      </trkpt>
      <trkpt lat="43.5598" lon="1.47225">
        <ele>203.017</ele>
        <time>2020-05-24T16:02:11Z</time>
      </trkpt>
      <trkpt lat="43.55957" lon="1.47247">
        <ele>202.98</ele>
        <time>2020-05-24T16:02:17Z</time>
      </trkpt>
      <trkpt lat="43.55933" lon="1.4727">
        <ele>202.942</ele>
        <time>2020-05-24T16:02:23Z</time>
      </trkpt>
      <trkpt lat="43.55914" lon="1.4729">
        <ele>202.929</ele>
        <time>2020-05-24T16:02:28Z</time>
      </trkpt>
      <trkpt lat="43.5589" lon="1.47315">
        <ele>202.889</ele>
        <time>2020-05-24T16:02:34Z</time>
      </trkpt>
      <trkpt lat="43.55873" lon="1.47334">
        <ele>202.884</ele>
        <time>2020-05-24T16:02:39Z</time>
      </trkpt>
      <trkpt lat="43.55853" lon="1.47352">
        <ele>202.89</ele>
        <time>2020-05-24T16:02:45Z</time>
      </trkpt>
      <trkpt lat="43.5584" lon="1.47366">
        <ele>202.886</ele>
        <time>2020-05-24T16:02:50Z</time>
      </trkpt>
      <trkpt lat="43.55834" lon="1.4738">
        <ele>202.879</ele>
        <time>2020-05-24T16:02:55Z</time>
      </trkpt>
      <trkpt lat="43.55828" lon="1.47397">
        <ele>202.866</ele>
        <time>2020-05-24T16:03:01Z</time>
      </trkpt>
      <trkpt lat="43.55816" lon="1.47421">
        <ele>202.853</ele>
        <time>2020-05-24T16:03:07Z</time>
      </trkpt>
      <trkpt lat="43.55804" lon="1.47446">
        <ele>202.837</ele>
        <time>2020-05-24T16:03:13Z</time>
      </trkpt>
      <trkpt lat="43.55793" lon="1.47467">
        <ele>202.767</ele>
        <time>2020-05-24T16:03:18Z</time>
      </trkpt>
      <trkpt lat="43.55783" lon="1.47488">
        <ele>202.754</ele>
        <time>2020-05-24T16:03:23Z</time>
      </trkpt>
      <trkpt lat="43.55771" lon="1.47509">
        <ele>202.748</ele>
        <time>2020-05-24T16:03:28Z</time>
      </trkpt>
      <trkpt lat="43.55759" lon="1.4753">
        <ele>202.749</ele>
        <time>2020-05-24T16:03:34Z</time>
      </trkpt>
      <trkpt lat="43.55746" lon="1.47553">
        <ele>202.756</ele>
        <time>2020-05-24T16:03:40Z</time>
      </trkpt>
      <trkpt lat="43.55727" lon="1.47573">
        <ele>202.828</ele>
        <time>2020-05-24T16:03:46Z</time>
      </trkpt>
      <trkpt lat="43.55706" lon="1.4759">
        <ele>202.893</ele>
        <time>2020-05-24T16:03:52Z</time>
      </trkpt>
      <trkpt lat="43.55689" lon="1.47599">
        <ele>202.89</ele>
        <time>2020-05-24T16:03:57Z</time>
      </trkpt>
      <trkpt lat="43.55673" lon="1.47593">
        <ele>202.873</ele>
        <time>2020-05-24T16:04:03Z</time>
      </trkpt>
      <trkpt lat="43.55656" lon="1.47581">
        <ele>202.819</ele>
        <time>2020-05-24T16:04:09Z</time>
      </trkpt>
      <trkpt lat="43.55641" lon="1.47598">
        <ele>202.802</ele>
        <time>2020-05-24T16:04:14Z</time>
      </trkpt>
      <trkpt lat="43.55614" lon="1.47609">
        <ele>202.709</ele>
        <time>2020-05-24T16:04:20Z</time>
      </trkpt>
      <trkpt lat="43.5559" lon="1.476">
        <ele>202.704</ele>
        <time>2020-05-24T16:04:25Z</time>
      </trkpt>
      <trkpt lat="43.55564" lon="1.47616">
        <ele>202.751</ele>
        <time>2020-05-24T16:04:31Z</time>
      </trkpt>
      <trkpt lat="43.55544" lon="1.47626">
        <ele>202.797</ele>
        <time>2020-05-24T16:04:37Z</time>
      </trkpt>
      <trkpt lat="43.55524" lon="1.47629">
        <ele>202.805</ele>
        <time>2020-05-24T16:04:42Z</time>
      </trkpt>
      <trkpt lat="43.55495" lon="1.47631">
        <ele>202.872</ele>
        <time>2020-05-24T16:04:48Z</time>
      </trkpt>
      <trkpt lat="43.55477" lon="1.4764">
        <ele>202.883</ele>
        <time>2020-05-24T16:04:53Z</time>
      </trkpt>
      <trkpt lat="43.55459" lon="1.47638">
        <ele>202.89</ele>
        <time>2020-05-24T16:04:59Z</time>
      </trkpt>
      <trkpt lat="43.55443" lon="1.47629">
        <ele>202.893</ele>
        <time>2020-05-24T16:05:05Z</time>
      </trkpt>
      <trkpt lat="43.55424" lon="1.47633">
        <ele>202.906</ele>
        <time>2020-05-24T16:05:11Z</time>
      </trkpt>
      <trkpt lat="43.5541" lon="1.47636">
        <ele>202.913</ele>
        <time>2020-05-24T16:05:17Z</time>
      </trkpt>
      <trkpt lat="43.55409" lon="1.47633">
        <ele>202.915</ele>
        <time>2020-05-24T16:05:22Z</time>
      </trkpt>
      <trkpt lat="43.55402" lon="1.47617">
        <ele>202.92</ele>
        <time>2020-05-24T16:05:28Z</time>
      </trkpt>
      <trkpt lat="43.55387" lon="1.47603">
        <ele>202.919</ele>
        <time>2020-05-24T16:05:34Z</time>
      </trkpt>
      <trkpt lat="43.55371" lon="1.47578">
        <ele>202.908</ele>
        <time>2020-05-24T16:05:40Z</time>
      </trkpt>
      <trkpt lat="43.55353" lon="1.47564">
        <ele>202.904</ele>
        <time>2020-05-24T16:05:45Z</time>
      </trkpt>
      <trkpt lat="43.55331" lon="1.47573">
        <ele>202.906</ele>
        <time>2020-05-24T16:05:51Z</time>
      </trkpt>
      <trkpt lat="43.55307" lon="1.47577">
        <ele>202.867</ele>
        <time>2020-05-24T16:05:57Z</time>
      </trkpt>
      <trkpt lat="43.55282" lon="1.47595">
        <ele>202.817</ele>
        <time>2020-05-24T16:06:03Z</time>
      </trkpt>
      <trkpt lat="43.55255" lon="1.47616">
        <ele>202.733</ele>
        <time>2020-05-24T16:06:09Z</time>
      </trkpt>
      <trkpt lat="43.5523" lon="1.47632">
        <ele>202.696</ele>
        <time>2020-05-24T16:06:15Z</time>
      </trkpt>
      <trkpt lat="43.55217" lon="1.47631">
        <ele>202.687</ele>
        <time>2020-05-24T16:06:20Z</time>
      </trkpt>
      <trkpt lat="43.55201" lon="1.47605">
        <ele>202.675</ele>
        <time>2020-05-24T16:06:26Z</time>
      </trkpt>
      <trkpt lat="43.55186" lon="1.47578">
        <ele>202.642</ele>
        <time>2020-05-24T16:06:31Z</time>
      </trkpt>
      <trkpt lat="43.55164" lon="1.47568">
        <ele>202.635</ele>
        <time>2020-05-24T16:06:37Z</time>
      </trkpt>
      <trkpt lat="43.5515" lon="1.47581">
        <ele>202.631</ele>
        <time>2020-05-24T16:06:42Z</time>
      </trkpt>
      <trkpt lat="43.55122" lon="1.47601">
        <ele>202.524</ele>
        <time>2020-05-24T16:06:48Z</time>
      </trkpt>
      <trkpt lat="43.55101" lon="1.47617">
        <ele>202.495</ele>
        <time>2020-05-24T16:06:53Z</time>
      </trkpt>
      <trkpt lat="43.55077" lon="1.4764">
        <ele>202.484</ele>
        <time>2020-05-24T16:06:59Z</time>
      </trkpt>
      <trkpt lat="43.55055" lon="1.47658">
        <ele>202.456</ele>
        <time>2020-05-24T16:07:05Z</time>
      </trkpt>
      <trkpt lat="43.55039" lon="1.47671">
        <ele>202.453</ele>
        <time>2020-05-24T16:07:10Z</time>
      </trkpt>
      <trkpt lat="43.55036" lon="1.4767">
        <ele>202.449</ele>
        <time>2020-05-24T16:07:16Z</time>
      </trkpt>
      <trkpt lat="43.55033" lon="1.47675">
        <ele>202.433</ele>
        <time>2020-05-24T16:07:22Z</time>
      </trkpt>
      <trkpt lat="43.55032" lon="1.47677">
        <ele>202.418</ele>
        <time>2020-05-24T16:07:28Z</time>
      </trkpt>
      <trkpt lat="43.55034" lon="1.47679">
        <ele>202.396</ele>
        <time>2020-05-24T16:07:33Z</time>
      </trkpt>
      <trkpt lat="43.55035" lon="1.47679">
        <ele>202.381</ele>
        <time>2020-05-24T16:07:39Z</time>
      </trkpt>
    </trkseg>
  </trk>
</gpx>